Date StartTime U_cm/s V_cm/s W_cm/s Ustd_cm/s Vstd_cm/s Wstd_cm/s Uvar_(cm/s)^2 Vvar_(cm/s)^2 Wvar_(cm/s)^2 KE_(m/s)^2 TurbulentKE_(m/s)^2 HorizWindSpeed_cm/s FrictionSpeec_cm/s DragCoef SpeedOfSound_m/s SonicTemperature_C Pressure_mb 
12/11/2013  00:00:00      -26.705       -9.909      -10.223       19.670       14.564       15.107      386.901      212.122      228.215        0.087        0.041       28.484        8.698        0.093      327.117       -7.608      869.091
12/11/2013  00:01:00      -43.962       -0.983       -6.043       28.189       23.648       13.617      794.644      559.248      185.414        0.175        0.077       43.973        9.446        0.046      327.258       -7.378      869.077
12/11/2013  00:02:00      -12.669       60.963       -9.638       26.155       40.904       23.955      684.086     1673.178      573.826        0.345        0.147       62.265       24.919        0.160      327.546       -6.911      869.059
12/11/2013  00:03:00      -15.007       61.705      -11.355       21.651       18.909       10.432      468.767      357.561      108.833        0.255        0.047       63.503        7.986        0.016      327.757       -6.568      869.058
12/11/2013  00:04:00       16.111       85.361      -10.613       21.969       33.145       14.918      482.642     1098.584      222.559        0.473        0.090       86.868        9.642        0.012      327.832       -6.447      869.059
12/11/2013  00:05:00        3.861      100.108      -10.730       15.634       16.916       11.295      244.412      286.147      127.586        0.540        0.033      100.182       10.395        0.011      327.834       -6.445      869.068
12/11/2013  00:06:00       10.832       97.249      -11.834       12.379       16.272        8.813      153.247      264.771       77.667        0.511        0.025       97.850       10.597        0.012      327.871       -6.383      869.068
12/11/2013  00:07:00       -6.041       57.740      -15.037       35.218       47.717       10.404     1240.341     2276.873      108.235        0.361        0.181       58.055       10.163        0.031      327.666       -6.716      869.062
12/11/2013  00:08:00      -25.814      -10.450       -1.958       21.366       13.042       13.565      456.489      170.092      184.014        0.079        0.041       27.849       14.252        0.262      327.379       -7.182      869.055
12/11/2013  00:09:00      -42.232       -7.280      -11.589       24.026       22.261       11.082      577.249      495.554      122.804        0.158        0.060       42.855        3.364        0.006      327.215       -7.448      869.047
12/11/2013  00:10:00      -62.233      -11.228      -15.607       11.015       13.980       10.025      121.330      195.427      100.504        0.233        0.021       63.238        5.022        0.006      327.027       -7.754      869.046
12/11/2013  00:11:00      -83.900      -11.077      -14.272       14.279        8.738       10.266      203.886       76.347      105.401        0.388        0.019       84.628        5.720        0.005      326.939       -7.897      869.039
12/11/2013  00:12:00      -95.579       -7.430      -13.935       27.022       11.872        9.719      730.210      140.936       94.451        0.517        0.048       95.867        7.943        0.007      326.875       -8.001      869.031
12/11/2013  00:13:00      -98.180       -5.981      -15.841       19.180       15.416       12.029      367.860      237.652      144.704        0.534        0.038       98.362        7.030        0.005      326.809       -8.108      869.015
12/11/2013  00:14:00     -103.040       -4.632      -14.610       28.059       13.838       14.255      787.294      191.483      203.207        0.602        0.059      103.144       11.953        0.013      326.786       -8.145      869.002
12/11/2013  00:15:00     -113.176       -6.968      -10.481       30.247       21.620       16.287      914.907      467.443      265.274        0.731        0.082      113.390       10.111        0.008      326.777       -8.161      868.991
12/11/2013  00:16:00     -114.681       -9.827       -4.744       31.812       30.882       18.286     1012.034      953.694      334.370        0.779        0.115      115.102       12.440        0.012      326.765       -8.180      868.982
12/11/2013  00:17:00     -107.565      -15.126       -9.631       35.133       25.586       19.338     1234.343      654.650      373.945        0.708        0.113      108.623       16.887        0.024      326.857       -8.030      868.989
12/11/2013  00:18:00     -113.650       -9.700      -10.133       31.263       24.069       20.534      977.395      579.301      421.632        0.755        0.099      114.064       13.076        0.013      326.911       -7.943      868.996
12/11/2013  00:19:00      -97.977       -6.611       -2.890       44.236       32.735       23.852     1956.839     1071.570      568.939        0.662        0.180       98.200       23.413        0.057      326.911       -7.943      869.001
12/11/2013  00:20:00     -128.850      -12.482      -10.970       32.926       21.360       23.091     1084.126      456.268      533.181        0.948        0.104      129.453       17.332        0.018      326.875       -8.000      869.010
12/11/2013  00:21:00     -120.440      -11.905       -8.962       31.302       26.030       16.757      979.835      677.550      280.783        0.833        0.097      121.027       12.114        0.010      326.847       -8.047      869.006
12/11/2013  00:22:00     -106.296      -25.803       -8.660       31.868       24.668       18.448     1015.592      608.524      340.324        0.700        0.098      109.383       13.404        0.015      326.894       -7.969      869.005
12/11/2013  00:23:00      -87.315      -26.203        1.344       49.491       28.682       20.455     2449.351      822.647      418.410        0.600        0.185       91.162       23.242        0.065      326.915       -7.936      869.007
12/11/2013  00:24:00      -92.850      -38.897        1.640       25.812       22.608       16.387      666.250      511.106      268.547        0.579        0.072      100.669       10.581        0.011      326.970       -7.847      869.017
12/11/2013  00:25:00     -106.045      -22.144       -2.248       30.740       18.607       18.463      944.963      346.235      340.896        0.669        0.082      108.332       16.562        0.023      326.903       -7.955      869.024
12/11/2013  00:26:00     -103.621      -48.168       -4.652       40.192       24.114       19.144     1615.386      581.482      366.500        0.782        0.128      114.269       13.979        0.015      326.932       -7.909      869.028
12/11/2013  00:27:00     -115.808      -34.684       -5.707       20.852       33.258       19.289      434.817     1106.089      372.046        0.828        0.096      120.890        9.591        0.006      326.903       -7.956      869.034
12/11/2013  00:28:00      -86.586      -18.392       -1.883       30.194       27.273       18.123      911.689      743.808      328.453        0.491        0.099       88.517       16.488        0.035      326.926       -7.918      869.040
12/11/2013  00:29:00      -88.081        1.259       -7.608       23.118       23.008       13.613      534.419      529.390      185.326        0.453        0.062       88.090       10.558        0.014      326.856       -8.032      869.045
12/11/2013  00:30:00      -78.813       -1.218       -6.681       19.306       16.815       16.653      372.712      282.745      277.328        0.360        0.047       78.822       13.301        0.028      326.749       -8.206      869.050
12/11/2013  00:31:00      -68.285       -1.194       -7.830       23.647       13.658       16.377      559.180      186.535      268.197        0.287        0.051       68.296       15.196        0.050      326.756       -8.195      869.054
12/11/2013  00:32:00      -43.563       -4.878        0.213       15.963       10.157        8.862      254.819      103.156       78.538        0.118        0.022       43.835        6.065        0.019      326.815       -8.097      869.060
12/11/2013  00:33:00      -32.147       -3.882        1.328       29.502       12.630       14.045      870.340      159.525      197.252        0.114        0.061       32.381       15.153        0.219      326.819       -8.092      869.070
12/11/2013  00:34:00      -53.311       -4.525        3.394       13.712       15.381        8.280      188.019      236.587       68.564        0.168        0.025       53.503        6.451        0.015      326.808       -8.111      869.072
12/11/2013  00:35:00      -69.016       -5.789       -7.029       29.972       18.481       13.099      898.296      341.538      171.582        0.313        0.071       69.258       15.504        0.050      326.838       -8.061      869.075
12/11/2013  00:36:00      -76.048      -20.255       -3.478       32.426       22.006       14.975     1051.462      484.252      224.246        0.398        0.088       78.699       10.758        0.019      326.817       -8.095      869.068
12/11/2013  00:37:00      -85.719      -46.743        0.226       24.050       25.200       19.826      578.416      635.061      393.074        0.557        0.080       97.635       15.651        0.026      326.870       -8.010      869.057
12/11/2013  00:38:00      -87.232      -29.554        0.291       35.269       28.422       17.556     1243.868      807.837      308.213        0.542        0.118       92.102       13.646        0.022      326.913       -7.939      869.043
12/11/2013  00:39:00      -89.305      -52.581       -8.852       28.053       22.833       13.174      786.946      521.360      173.545        0.615        0.074      103.635        9.838        0.009      326.938       -7.898      869.031
12/11/2013  00:40:00      -71.123      -21.652        1.099       27.782       25.378       14.994      771.840      644.039      224.831        0.358        0.082       74.346       11.332        0.023      326.904       -7.953      869.029
12/11/2013  00:41:00     -130.734      -16.342       -3.808       36.228       27.735       22.080     1312.469      769.208      487.530        0.997        0.128      131.751       19.662        0.022      326.797       -8.127      869.022
12/11/2013  00:42:00     -159.081      -32.293      -10.587       40.137       24.131       20.438     1610.963      582.305      417.696        1.454        0.131      162.325       15.334        0.009      326.774       -8.165      869.011
12/11/2013  00:43:00     -133.192      -13.437       -5.566       44.699       29.990       26.435     1998.017      899.411      698.824        1.077        0.180      133.868       25.124        0.035      326.669       -8.337      869.014
12/11/2013  00:44:00     -161.620      -46.795       -9.511       25.737       30.877       17.837      662.391      953.407      318.164        1.517        0.097      168.258       13.263        0.006      326.721       -8.250      869.026
12/11/2013  00:45:00     -108.528      -88.098       -5.164       37.686       35.130       20.129     1420.207     1234.142      405.184        1.131        0.153      139.784       16.870        0.015      326.801       -8.121      869.046
12/11/2013  00:46:00     -100.596      -23.588       -4.671       31.953       39.359       22.440     1020.980     1549.117      503.536        0.689        0.154      103.325       18.745        0.033      326.754       -8.199      869.061
12/11/2013  00:47:00     -120.082      -23.722      -16.090       40.389       42.059       19.476     1631.270     1768.952      379.308        0.951        0.189      122.403       13.191        0.012      326.653       -8.360      869.071
12/11/2013  00:48:00     -133.819       -5.024      -13.398       40.316       31.059       28.163     1625.403      964.688      793.143        1.075        0.169      133.913       25.810        0.037      326.567       -8.501      869.074
12/11/2013  00:49:00     -140.311       -6.618       -7.685       42.007       29.535       26.454     1764.548      872.337      699.836        1.156        0.167      140.467       24.098        0.029      326.539       -8.545      869.059
12/11/2013  00:50:00     -118.010      -18.505        1.444       36.752       34.510       23.986     1350.722     1190.954      575.317        0.869        0.156      119.452       21.542        0.033      326.564       -8.505      869.046
12/11/2013  00:51:00     -143.413      -28.817      -11.089       40.701       38.841       23.395     1656.550     1508.648      547.327        1.262        0.186      146.279       23.160        0.025      326.649       -8.368      869.038
12/11/2013  00:52:00     -144.513      -34.642      -14.844       43.127       43.484       23.479     1859.901     1890.836      551.240        1.330        0.215      148.607       22.758        0.023      326.653       -8.363      869.062
12/11/2013  00:53:00     -129.910        3.721      -11.509       41.813       37.330       32.263     1748.367     1393.519     1040.898        1.060        0.209      129.964       29.929        0.053      326.555       -8.521      869.100
12/11/2013  00:54:00     -150.828        9.574      -14.024       42.544       33.000       22.912     1809.966     1089.022      524.958        1.323        0.171      151.131       20.101        0.018      326.538       -8.547      869.132
12/11/2013  00:55:00     -181.415       24.781      -12.890       44.752       30.937       25.563     2002.739      957.129      653.457        1.865        0.181      183.100       20.801        0.013      326.562       -8.509      869.155
12/11/2013  00:56:00     -141.304      -34.213      -11.685       35.314       41.588       22.043     1247.065     1729.561      485.899        1.237        0.173      145.387       11.703        0.006      326.551       -8.526      869.162
12/11/2013  00:57:00     -128.153       -9.626      -13.250       42.199       44.054       25.453     1780.777     1940.745      647.849        1.053        0.218      128.514       20.944        0.027      326.554       -8.523      869.155
12/11/2013  00:58:00     -140.682      -14.062       -4.878       60.285       55.854       25.306     3634.293     3119.706      640.372        1.370        0.370      141.383       26.208        0.034      326.549       -8.530      869.152
12/11/2013  00:59:00      -85.562      -13.814        2.938       49.170       46.899       27.405     2417.701     2199.549      751.017        0.644        0.268       86.670       27.600        0.101      326.520       -8.577      869.149
12/11/2013  01:00:00     -112.790        0.061      -11.338       37.403       27.316       25.470     1399.005      746.179      648.742        0.782        0.140      112.790       18.500        0.027      326.521       -8.575      869.156
12/11/2013  01:01:00     -109.308       32.417      -17.688       29.540       29.422       23.926      872.611      865.647      572.449        0.781        0.116      114.014       15.439        0.018      326.516       -8.584      869.152
12/11/2013  01:02:00     -145.297      -11.266      -15.490       33.627       28.700       18.588     1130.759      823.678      345.515        1.189        0.115      145.733       16.086        0.012      326.571       -8.492      869.137
12/11/2013  01:03:00      -67.603      -20.402        2.057       40.846       30.022       28.788     1668.374      901.338      828.736        0.419        0.170       70.615       29.530        0.175      326.564       -8.506      869.109
12/11/2013  01:04:00      -57.508      -13.744       -0.921       22.956       23.031       15.778      526.978      530.440      248.957        0.240        0.065       59.128       10.804        0.033      326.556       -8.518      869.097
12/11/2013  01:05:00      -31.995      -37.734        1.335       21.514       30.119       16.571      462.862      907.182      274.612        0.205        0.082       49.472       13.379        0.073      326.594       -8.456      869.076
12/11/2013  01:06:00      -26.986      -18.099       -2.520       17.347       13.701        7.363      300.908      187.730       54.220        0.080        0.027       32.493        6.893        0.045      326.607       -8.436      869.069
12/11/2013  01:07:00      -20.551        2.333        2.708       30.234       21.052       18.117      914.091      443.182      328.228        0.106        0.084       20.683       13.213        0.408      326.634       -8.393      869.075
12/11/2013  01:08:00      -81.483        3.773      -10.770       10.670       18.067       10.634      113.839      326.422      113.079        0.366        0.028       81.570        7.832        0.009      326.597       -8.453      869.090
12/11/2013  01:09:00      -78.659       -8.660       -7.152       20.652       20.080       14.907      426.512      403.216      222.227        0.368        0.053       79.134       13.754        0.030      326.580       -8.479      869.110
12/11/2013  01:10:00      -83.973      -17.983       -4.925       20.368       19.285       17.055      414.846      371.927      290.861        0.424        0.054       85.877       14.688        0.029      326.576       -8.487      869.146
12/11/2013  01:11:00     -110.920       -8.131      -15.670        9.590        8.322        7.997       91.976       69.249       63.951        0.642        0.011      111.217        3.823        0.001      326.444       -8.699      869.171
12/11/2013  01:12:00     -118.000      -21.692       -9.955       20.928       17.088       12.918      437.990      291.998      166.867        0.770        0.045      119.977        9.622        0.006      326.449       -8.691      869.177
12/11/2013  01:13:00      -84.584      -13.170       -4.928       22.355       17.712       14.838      499.765      313.727      220.163        0.419        0.052       85.603       11.765        0.019      326.531       -8.560      869.174
12/11/2013  01:14:00      -73.200       -6.070       -7.491       15.978       21.248       13.781      255.300      451.458      189.929        0.317        0.045       73.452        7.667        0.011      326.538       -8.548      869.167
12/11/2013  01:15:00      -73.247       -7.623       -9.339       13.922       14.758       10.477      193.836      217.802      109.778        0.302        0.026       73.643        7.026        0.009      326.516       -8.583      869.167
12/11/2013  01:16:00      -92.879        7.148      -12.217       17.178       13.913       11.823      295.072      193.568      139.783        0.473        0.031       93.154        9.819        0.011      326.536       -8.551      869.163
12/11/2013  01:17:00      -72.541        5.144       -8.029       22.704       14.821       10.235      515.463      219.669      104.755        0.310        0.042       72.723       11.160        0.024      326.579       -8.481      869.171
12/11/2013  01:18:00      -81.721        9.369      -11.475       15.162       11.960       10.864      229.892      143.031      118.024        0.369        0.025       82.256        8.271        0.010      326.513       -8.587      869.180
12/11/2013  01:19:00      -94.288        7.906      -11.519       16.337       14.691       10.350      266.888      215.828      107.119        0.484        0.029       94.619        5.591        0.003      326.461       -8.671      869.183
12/11/2013  01:20:00      -71.922        3.003       -5.244       32.448       19.096       18.191     1052.900      364.648      330.913        0.348        0.087       71.985       18.911        0.069      326.453       -8.685      869.181
12/11/2013  01:21:00      -63.688       -8.542       -2.673       32.807       21.589       18.913     1076.329      466.090      357.714        0.302        0.095       64.259       16.422        0.065      326.447       -8.694      869.168
12/11/2013  01:22:00      -36.189       -9.586        3.287       22.827       17.693       12.909      521.089      313.028      166.647        0.121        0.050       37.437       11.474        0.094      326.440       -8.706      869.161
12/11/2013  01:23:00      -45.035      -16.290        0.432       26.265       17.411        9.717      689.856      303.133       94.412        0.169        0.054       47.891        7.719        0.026      326.427       -8.726      869.143
12/11/2013  01:24:00      -30.250        1.007       -4.290       19.285       13.189        9.536      371.914      173.958       90.941        0.079        0.032       30.267        9.353        0.095      326.379       -8.805      869.130
12/11/2013  01:25:00      -46.625        1.872      -10.297        8.329       15.421        6.515       69.372      237.817       42.442        0.132        0.017       46.663        6.847        0.022      326.466       -8.665      869.120
12/11/2013  01:26:00      -40.422       -8.538       -3.601       11.666       11.099        7.219      136.104      123.180       52.108        0.102        0.016       41.313        4.896        0.014      326.524       -8.569      869.124
12/11/2013  01:27:00      -51.044       -3.915       -9.973       11.845        6.593        8.003      140.297       43.464       64.044        0.148        0.012       51.194        4.470        0.008      326.471       -8.655      869.151
12/11/2013  01:28:00      -28.427       -3.258       -3.571       12.012        8.591       11.176      144.292       73.798      124.911        0.059        0.017       28.613        9.413        0.108      326.422       -8.734      869.189
12/11/2013  01:29:00      -20.485       -4.060       -5.629        8.819        5.383        5.234       77.772       28.974       27.396        0.030        0.007       20.884        3.732        0.032      326.460       -8.674      869.226
12/11/2013  01:30:00      -18.310       -1.119       -2.821        9.660        7.876        4.738       93.313       62.039       22.448        0.026        0.009       18.345        4.841        0.070      326.583       -8.475      869.257
12/11/2013  01:31:00       -1.271       13.479        6.435       13.645       12.602        8.083      186.187      158.808       65.341        0.032        0.021       13.539        7.084        0.274      326.539       -8.545      869.274
12/11/2013  01:32:00        2.034       32.482       -0.993        8.408       19.471        7.878       70.687      379.119       62.067        0.079        0.026       32.545        8.806        0.073      326.593       -8.458      869.277
12/11/2013  01:33:00        1.832       35.666       -3.695        9.621       10.546        7.023       92.557      111.227       49.326        0.077        0.013       35.713        6.984        0.038      326.585       -8.471      869.275
12/11/2013  01:34:00        5.317       35.980       -2.339       11.695       11.979        6.097      136.767      143.506       37.176        0.082        0.016       36.371        7.518        0.043      326.651       -8.365      869.265
12/11/2013  01:35:00      -14.463        8.850       -1.398        9.649        6.794        5.053       93.107       46.164       25.536        0.023        0.008       16.956        2.280        0.018      326.581       -8.477      869.248
12/11/2013  01:36:00      -24.952       -5.631       -1.483       10.254        6.903        6.226      105.150       47.647       38.758        0.042        0.010       25.580        6.194        0.059      326.511       -8.591      869.240
12/11/2013  01:37:00      -39.955       -3.095       -6.401       10.748       12.328        8.115      115.510      151.971       65.860        0.099        0.017       40.074        7.559        0.036      326.420       -8.739      869.235
12/11/2013  01:38:00      -40.938       -2.677       -4.667       16.132        9.087       11.026      260.226       82.581      121.572        0.108        0.023       41.026       10.129        0.061      326.377       -8.808      869.248
12/11/2013  01:39:00      -44.290       -6.770       -8.219        8.683       13.677        8.273       75.386      187.053       68.443        0.120        0.017       44.804        6.542        0.021      326.406       -8.762      869.262
12/11/2013  01:40:00      -52.912      -16.519       -2.764       13.006        9.785        6.658      169.152       95.749       44.328        0.169        0.015       55.430        3.086        0.003      326.414       -8.749      869.285
12/11/2013  01:41:00      -45.178      -12.764       -2.480        7.480        8.941        5.952       55.947       79.950       35.426        0.119        0.009       46.946        3.154        0.005      326.421       -8.738      869.306
12/11/2013  01:42:00      -28.912       -3.592       -6.977       14.848        9.277        5.932      220.474       86.061       35.192        0.062        0.017       29.134        4.952        0.029      326.374       -8.814      869.322
12/11/2013  01:43:00      -25.214      -10.529       -4.054        7.200        8.360        5.901       51.833       69.883       34.825        0.046        0.008       27.324        5.102        0.035      326.406       -8.763      869.345
12/11/2013  01:44:00      -34.335      -15.892       -4.403       11.906       11.382        5.886      141.753      129.547       34.642        0.088        0.015       37.834        4.919        0.017      326.366       -8.825      869.367
12/11/2013  01:45:00      -54.386      -20.841       -8.602       12.847       13.775        9.025      165.055      189.762       81.445        0.195        0.022       58.243        6.212        0.011      326.313       -8.912      869.393
12/11/2013  01:46:00      -80.488      -24.485       -8.233       12.995       14.657       10.498      168.874      214.831      110.206        0.382        0.025       84.130        6.065        0.005      326.255       -9.006      869.414
12/11/2013  01:47:00     -106.752      -12.476      -15.813       11.306       13.335       10.672      127.818      177.811      113.892        0.611        0.021      107.478        6.075        0.003      326.084       -9.281      869.427
12/11/2013  01:48:00      -81.730       -7.655      -12.232       25.407       24.441       14.821      645.494      597.354      219.662        0.417        0.073       82.087       14.692        0.032      326.104       -9.251      869.428
12/11/2013  01:49:00      -66.236       -2.794       -9.992       26.036       17.178       18.255      677.854      295.075      333.241        0.290        0.065       66.295       16.876        0.065      326.129       -9.210      869.436
12/11/2013  01:50:00      -92.828      -10.662      -17.335       22.273       22.097       15.674      496.097      488.278      245.669        0.513        0.062       93.438       12.974        0.019      326.141       -9.190      869.444
12/11/2013  01:51:00      -84.993      -15.861      -11.526       26.011       24.486       17.118      676.589      599.545      293.040        0.459        0.078       86.460       14.503        0.028      326.153       -9.171      869.441
12/11/2013  01:52:00      -68.602       -9.473      -24.751       38.351       37.195       22.629     1470.788     1383.479      512.072        0.439        0.168       69.253       18.144        0.069      326.130       -9.209      869.431
12/11/2013  01:53:00      -54.389       -0.231      -13.691       36.498       32.065       20.759     1332.100     1028.188      430.923        0.297        0.140       54.389       11.033        0.041      326.113       -9.236      869.421
12/11/2013  01:54:00      -51.340      -14.033      -15.507       34.534       30.136       22.327     1192.586      908.204      498.515        0.284        0.130       53.224        8.325        0.024      326.070       -9.306      869.413
12/11/2013  01:55:00      -71.773      -14.818       -8.050       26.760       30.224       19.786      716.079      913.520      391.496        0.373        0.101       73.287       13.016        0.032      326.047       -9.343      869.401
12/11/2013  01:56:00      -53.739      -17.563       -6.273       33.835       35.242       24.513     1144.801     1242.003      600.863        0.311        0.149       56.536       21.898        0.150      326.095       -9.265      869.406
12/11/2013  01:57:00      -60.278      -14.942       -8.885       39.723       26.680       19.263     1577.910      711.836      371.075        0.330        0.133       62.102        9.682        0.024      326.067       -9.310      869.401
12/11/2013  01:58:00      -73.486       -9.680       -8.976       31.292       22.853       17.223      979.168      522.239      296.641        0.369        0.090       74.121       15.325        0.043      326.076       -9.295      869.395
12/11/2013  01:59:00      -84.685      -22.374       -6.799       27.972       21.444       15.492      782.454      459.865      240.016        0.460        0.074       87.591        8.658        0.010      326.015       -9.396      869.398
12/11/2013  02:00:00      -57.294      -20.681       -8.132       45.723       35.361       20.005     2090.637     1250.401      400.209        0.376        0.187       60.912       19.824        0.106      326.067       -9.311      869.406
12/11/2013  02:01:00      -19.694       -7.778        1.259       30.454       22.338       17.404      927.464      498.977      302.915        0.109        0.086       21.175       13.438        0.403      326.071       -9.303      869.427
12/11/2013  02:02:00      -71.490       -6.132      -15.490       40.144       25.755       18.807     1611.560      663.301      353.706        0.401        0.131       71.752       16.345        0.052      326.068       -9.308      869.441
12/11/2013  02:03:00      -73.203       -3.439       -1.746       37.648       34.635       25.022     1417.356     1199.572      626.093        0.431        0.162       73.283       12.083        0.027      326.020       -9.387      869.443
12/11/2013  02:04:00      -97.614        9.375      -17.670       47.523       34.867       24.014     2258.417     1215.731      576.657        0.699        0.203       98.063       20.604        0.044      325.965       -9.476      869.451
12/11/2013  02:05:00      -84.669       30.716       -9.969       43.240       37.906       25.175     1869.661     1436.889      633.772        0.608        0.197       90.069       20.396        0.051      325.996       -9.425      869.451
12/11/2013  02:06:00      -87.562       36.097      -15.725       47.699       41.613       28.970     2275.207     1731.669      839.261        0.703        0.242       94.711       25.090        0.070      326.082       -9.287      869.474
12/11/2013  02:07:00      -99.475       23.538      -11.881       52.137       36.997       27.280     2718.232     1368.796      744.214        0.771        0.242      102.222       15.686        0.024      326.056       -9.328      869.498
12/11/2013  02:08:00      -75.603       17.268       -9.595       35.957       32.817       26.097     1292.931     1076.958      681.078        0.458        0.153       77.550       20.154        0.068      326.061       -9.320      869.509
12/11/2013  02:09:00      -75.589       17.136      -11.970       32.312       34.613       27.710     1044.074     1198.070      767.830        0.458        0.150       77.507       12.898        0.028      326.045       -9.346      869.512
12/11/2013  02:10:00     -107.881       -7.134      -13.146       39.447       25.459       21.021     1556.052      648.141      441.877        0.725        0.132      108.117       21.424        0.039      326.063       -9.317      869.504
12/11/2013  02:11:00      -56.402      -10.105       -3.512       34.714       28.356       24.318     1205.036      804.066      591.380        0.295        0.130       57.300       20.503        0.128      326.051       -9.336      869.500
12/11/2013  02:12:00      -90.897      -13.391      -15.229       32.879       26.416       17.328     1080.999      697.786      300.247        0.538        0.104       91.879       13.150        0.020      326.100       -9.256      869.493
12/11/2013  02:13:00     -110.280      -12.315      -11.261       32.414       26.799       21.442     1050.688      718.200      459.754        0.733        0.111      110.965       20.581        0.034      326.012       -9.400      869.497
12/11/2013  02:14:00     -124.556        1.493      -17.206       26.379       23.102       17.471      695.850      533.700      305.246        0.867        0.077      124.565        8.231        0.004      326.061       -9.320      869.518
12/11/2013  02:15:00     -116.471       -6.952      -14.356       25.083       27.219       16.969      629.164      740.864      287.935        0.774        0.083      116.678       10.989        0.009      326.051       -9.336      869.543
12/11/2013  02:16:00      -93.269        2.237      -10.413       37.306       23.547       22.348     1391.720      554.461      499.443        0.563        0.122       93.296       20.751        0.049      325.980       -9.452      869.576
12/11/2013  02:17:00      -71.667      -18.557       -6.617       25.201       20.219       17.901      635.085      408.806      320.448        0.344        0.068       74.031       12.382        0.028      325.968       -9.471      869.600
12/11/2013  02:18:00      -91.576      -31.482       -9.316       19.194       21.444       14.423      368.409      459.825      208.032        0.525        0.052       96.836       10.104        0.011      325.949       -9.501      869.625
12/11/2013  02:19:00     -107.988       -7.054      -11.007       23.707       21.797       13.216      562.037      475.126      174.650        0.652        0.061      108.218       10.228        0.009      325.943       -9.509      869.653
12/11/2013  02:20:00     -118.662       -7.030      -11.933       31.229       21.607       18.791      975.243      466.874      353.112        0.803        0.090      118.870       16.707        0.020      325.975       -9.460      869.689
12/11/2013  02:21:00     -121.384      -25.142      -17.400       20.376       16.984       13.372      415.190      288.467      178.815        0.828        0.044      123.960        7.903        0.004      326.005       -9.411      869.712
12/11/2013  02:22:00      -91.892      -36.125       -0.779       35.828       39.599       16.385     1283.647     1568.056      268.468        0.643        0.156       98.738       12.109        0.015      326.067       -9.310      869.732
12/11/2013  02:23:00      -64.618      -11.494       -7.043       36.710       29.790       17.756     1347.609      887.421      315.269        0.345        0.128       65.632       13.124        0.040      326.053       -9.332      869.732
12/11/2013  02:24:00      -79.553      -15.750       -3.536       23.890       25.972       18.216      570.740      674.550      331.812        0.408        0.079       81.097        9.576        0.014      326.095       -9.265      869.713
12/11/2013  02:25:00      -93.129      -37.792       -8.453       18.666       27.353       12.908      348.401      748.190      166.627        0.572        0.063      100.505       10.789        0.012      326.115       -9.231      869.683
12/11/2013  02:26:00      -84.066      -22.447       -3.426       27.032       29.301       15.243      730.746      858.561      232.362        0.470        0.091       87.011       14.187        0.027      326.009       -9.405      869.652
12/11/2013  02:27:00      -54.192      -22.571        3.823       39.165       17.979       18.644     1533.868      323.236      347.607        0.283        0.110       58.704       20.630        0.123      326.080       -9.290      869.619
12/11/2013  02:28:00      -41.034      -41.118        5.878       41.215       24.692       20.495     1698.674      609.679      420.039        0.307        0.136       58.091       22.144        0.145      326.072       -9.302      869.593
12/11/2013  02:29:00      -13.500      -13.638       13.634       25.853       15.035       15.637      668.399      226.050      244.508        0.085        0.057       19.190       12.760        0.442      326.016       -9.393      869.562
12/11/2013  02:30:00      -46.732      -39.453      -13.688       28.595       26.403       16.793      817.687      697.112      282.017        0.286        0.090       61.159        7.994        0.017      326.038       -9.357      869.536
12/11/2013  02:31:00      -44.176      -49.430       -2.967       15.452       21.659       15.401      238.771      469.114      237.177        0.267        0.047       66.294        9.740        0.022      326.115       -9.232      869.515
12/11/2013  02:32:00      -60.582      -32.596       -7.211       25.074       24.958       19.487      628.706      622.916      379.747        0.321        0.082       68.795       19.465        0.080      326.124       -9.218      869.513
12/11/2013  02:33:00      -81.123      -49.268       -3.489       23.855       21.280       13.902      569.079      452.832      193.252        0.512        0.061       94.912        9.447        0.010      326.143       -9.188      869.521
12/11/2013  02:34:00      -95.908      -37.440       -8.714       18.334       29.057       12.708      336.150      844.334      161.483        0.601        0.067      102.957        5.377        0.003      326.135       -9.200      869.548
12/11/2013  02:35:00      -77.001      -26.118      -12.537       30.863       24.953       14.874      952.523      622.652      221.228        0.428        0.090       81.310       12.831        0.025      326.190       -9.111      869.563
12/11/2013  02:36:00      -91.634      -40.713       -7.216       40.272       24.737       16.138     1621.871      611.927      260.439        0.630        0.125      100.271       12.852        0.016      326.165       -9.150      869.575
12/11/2013  02:37:00     -109.462      -57.791       -2.054       27.861       42.231       14.879      776.255     1783.429      221.382        0.905        0.139      123.781       14.335        0.013      326.148       -9.179      869.553
12/11/2013  02:38:00     -131.171        4.271       -1.634       42.391       27.888       25.131     1796.958      777.738      631.554        1.022        0.160      131.241       24.634        0.035      326.139       -9.194      869.518
12/11/2013  02:39:00     -112.916      -60.082        4.794       40.972       31.416       23.141     1678.743      986.946      535.487        0.979        0.160      127.906       21.935        0.029      326.182       -9.124      869.477
12/11/2013  02:40:00      -95.229      -39.795        5.355       57.083       42.327       24.884     3258.451     1791.555      619.198        0.817        0.283      103.209       24.955        0.058      326.260       -8.999      869.462
12/11/2013  02:41:00     -111.208      -34.963        1.309       46.369       32.156       18.553     2150.098     1034.039      344.224        0.856        0.176      116.575       18.416        0.025      326.226       -9.053      869.476
12/11/2013  02:42:00     -157.161      -38.205       -5.961       42.697       28.097       22.291     1823.037      789.416      496.888        1.465        0.155      161.738       17.825        0.012      326.154       -9.169      869.505
12/11/2013  02:43:00     -100.226      -35.716        0.397       31.971       36.534       20.735     1022.128     1334.762      429.927        0.705        0.139      106.400       20.206        0.036      326.165       -9.152      869.533
12/11/2013  02:44:00      -93.013      -34.880       -4.088       49.690       36.861       21.312     2469.062     1358.704      454.190        0.708        0.214       99.338       16.693        0.028      326.125       -9.216      869.542
12/11/2013  02:45:00      -84.331      -69.875        0.807       45.912       39.215       21.740     2107.929     1537.802      472.609        0.806        0.206      109.518       14.916        0.019      326.065       -9.312      869.533
12/11/2013  02:46:00     -136.033      -54.102       -5.789       27.694       38.627       20.181      766.965     1492.079      407.259        1.207        0.133      146.396       14.673        0.010      326.057       -9.326      869.491
12/11/2013  02:47:00     -136.487      -41.465       -9.831       31.033       29.738       17.264      963.026      884.367      298.040        1.129        0.107      142.647       13.247        0.009      325.970       -9.467      869.440
12/11/2013  02:48:00     -126.491      -24.770      -10.789       45.129       45.842       20.433     2036.656     2101.471      417.523        1.064        0.228      128.894       18.041        0.020      326.030       -9.370      869.393
12/11/2013  02:49:00     -146.435      -17.352       -9.251       34.746       24.619       23.898     1207.275      606.073      571.127        1.211        0.119      147.459       23.696        0.026      325.851       -9.658      869.355
12/11/2013  02:50:00      -79.293      -27.837        1.459       38.845       28.939       23.290     1508.914      837.483      542.413        0.498        0.144       84.037       19.480        0.054      326.000       -9.419      869.336
12/11/2013  02:51:00      -89.262      -25.021       -7.008       33.780       27.740       15.198     1141.057      769.530      230.966        0.539        0.107       92.703       15.225        0.027      325.976       -9.457      869.336
12/11/2013  02:52:00      -66.187      -26.899       -4.507       32.945       25.780       18.215     1085.370      664.621      331.772        0.360        0.104       71.444       18.066        0.064      326.018       -9.389      869.343
12/11/2013  02:53:00     -106.462      -39.748      -13.014       16.605       12.395        8.599      275.740      153.648       73.949        0.679        0.025      113.640        4.570        0.002      325.931       -9.530      869.359
12/11/2013  02:54:00      -95.556      -48.772      -11.708       30.681       21.450       17.009      941.344      460.101      289.319        0.667        0.085      107.283       14.555        0.018      326.019       -9.388      869.374
12/11/2013  02:55:00      -31.950      -27.806        5.951       28.617       33.045       19.970      818.914     1091.952      398.819        0.207        0.115       42.356       18.216        0.185      325.991       -9.434      869.393
12/11/2013  02:56:00      -71.599      -54.435       -5.828       31.105       27.590       20.308      967.510      761.186      412.405        0.513        0.107       89.942        9.020        0.010      326.008       -9.405      869.411
12/11/2013  02:57:00      -75.833      -18.402       -6.319       24.475       20.150       11.965      599.019      406.020      143.165        0.364        0.057       78.034        5.956        0.006      326.010       -9.402      869.415
12/11/2013  02:58:00      -84.448      -10.138       -6.301       15.882       22.635       13.344      252.241      512.327      178.049        0.411        0.047       85.054        6.214        0.005      325.952       -9.497      869.415
12/11/2013  02:59:00      -92.694        9.304       -8.586       15.837       15.266       12.378      250.802      233.064      153.220        0.469        0.032       93.159        8.436        0.008      325.866       -9.635      869.421
12/11/2013  03:00:00      -64.861      -14.674       -1.403       16.992       20.880       11.965      288.728      435.995      143.170        0.265        0.043       66.501        9.637        0.021      325.916       -9.554      869.434
12/11/2013  03:01:00      -60.619       -4.832       -1.624       19.251       18.144       13.629      370.584      329.214      185.750        0.229        0.044       60.811       10.925        0.032      325.891       -9.595      869.468
12/11/2013  03:02:00      -84.141       -0.679       -7.905       22.941       17.400       16.318      526.284      302.762      266.279        0.412        0.055       84.143       13.657        0.026      325.824       -9.704      869.496
12/11/2013  03:03:00     -106.619       -7.750      -15.063       14.237       11.912       11.602      202.697      141.888      134.598        0.607        0.024      106.900        6.139        0.003      325.736       -9.848      869.506
12/11/2013  03:04:00      -89.868       -7.680      -10.664       31.846       18.326       18.598     1014.178      335.839      345.886        0.497        0.085       90.196       17.836        0.039      325.727       -9.860      869.505
12/11/2013  03:05:00      -51.678      -17.210       -5.416       19.519       20.039       16.170      380.989      401.560      261.477        0.202        0.052       54.469       12.282        0.051      325.692       -9.917      869.505
12/11/2013  03:06:00      -46.964       -4.717       -2.980       21.544       22.004       13.540      464.123      484.156      183.325        0.168        0.057       47.200       12.334        0.068      325.673       -9.948      869.497
12/11/2013  03:07:00      -50.866      -11.212      -11.036       18.701       11.987        9.410      349.714      143.689       88.544        0.171        0.029       52.087        5.771        0.012      325.675       -9.946      869.482
12/11/2013  03:08:00      -45.110      -22.713       -7.522       13.486       17.492       10.573      181.876      305.976      111.797        0.160        0.030       50.505        9.275        0.034      325.710       -9.888      869.456
12/11/2013  03:09:00      -58.262      -19.854       -4.947       12.596       13.024       10.122      158.647      169.614      102.455        0.212        0.022       61.552        7.155        0.014      325.695       -9.913      869.415
12/11/2013  03:10:00      -77.876      -11.949      -10.977       17.903       14.479       11.015      320.533      209.634      121.337        0.349        0.033       78.787        8.116        0.011      325.620      -10.033      869.388
12/11/2013  03:11:00      -92.111       -6.146      -12.809       13.921       10.836       10.189      193.793      117.415      103.812        0.455        0.021       92.315        5.083        0.003      325.643       -9.996      869.374
12/11/2013  03:12:00      -92.424       -7.463      -12.255       12.593       12.187        9.073      158.573      148.513       82.326        0.457        0.019       92.725        6.314        0.005      325.627      -10.021      869.375
12/11/2013  03:13:00      -91.234      -12.541      -10.467       14.711       12.698        9.266      216.414      161.238       85.855        0.453        0.023       92.092        5.473        0.004      325.630      -10.016      869.379
12/11/2013  03:14:00      -78.889      -11.714       -7.962       15.067       11.426       10.938      227.004      130.561      119.638        0.345        0.024       79.754        7.183        0.008      325.632      -10.012      869.384
12/11/2013  03:15:00      -74.104       -8.008      -10.150       13.233       11.763        8.806      175.100      138.377       77.545        0.302        0.020       74.535        5.384        0.005      325.617      -10.038      869.403
12/11/2013  03:16:00      -70.275       -8.265      -11.098       13.063       11.937       11.435      170.644      142.491      130.750        0.279        0.022       70.759        7.762        0.012      325.658       -9.970      869.427
12/11/2013  03:17:00      -77.802       -6.229      -13.664       12.504        9.809        8.671      156.360       96.223       75.193        0.330        0.016       78.051        3.304        0.002      325.593      -10.076      869.450
12/11/2013  03:18:00      -68.640      -12.902      -11.071       12.481       19.112        8.944      155.778      365.269       80.003        0.280        0.030       69.842        3.900        0.003      325.620      -10.033      869.476
12/11/2013  03:19:00      -70.386      -14.641      -12.477       14.343       11.111        8.133      205.715      123.465       66.142        0.286        0.020       71.892        4.679        0.004      325.564      -10.123      869.490
12/11/2013  03:20:00      -59.502      -27.079      -13.249       15.546       13.749       12.215      241.669      189.042      149.209        0.251        0.029       65.374        6.668        0.010      325.650       -9.985      869.481
12/11/2013  03:21:00      -62.958      -24.575       -9.440       13.924       14.415        9.186      193.887      207.796       84.376        0.257        0.024       67.584        8.635        0.016      325.584      -10.090      869.466
12/11/2013  03:22:00      -53.147      -18.434      -11.154       14.153       13.716       10.316      200.312      188.136      106.418        0.189        0.025       56.253        6.665        0.014      325.627      -10.021      869.439
12/11/2013  03:23:00      -65.519      -14.335       -7.331       11.925        9.538        7.772      142.205       90.966       60.403        0.242        0.015       67.069        4.671        0.005      325.545      -10.153      869.409
12/11/2013  03:24:00      -62.187       -7.519      -10.126       11.015       10.061        8.509      121.330      101.230       72.396        0.216        0.015       62.640        7.268        0.013      325.573      -10.108      869.378
12/11/2013  03:25:00      -41.972      -11.403       -9.870       11.223        7.964        7.105      125.953       63.422       50.480        0.111        0.012       43.494        6.054        0.019      325.655       -9.974      869.374
12/11/2013  03:26:00      -38.142       -2.681       -8.456        8.164       10.359        6.300       66.651      107.313       39.693        0.087        0.011       38.236        3.970        0.011      325.676       -9.942      869.383
12/11/2013  03:27:00      -56.910       -2.782       -8.414       12.125       10.767        8.842      147.018      115.930       78.175        0.183        0.017       56.978        4.731        0.007      325.644       -9.994      869.402
12/11/2013  03:28:00      -62.834       -5.502       -6.152       23.826       10.583       10.325      567.697      111.992      106.603        0.240        0.039       63.074        9.512        0.023      325.586      -10.089      869.422
12/11/2013  03:29:00      -34.115      -11.865      -14.233       11.330       11.438       10.409      128.371      130.827      108.343        0.094        0.018       36.120        4.791        0.018      325.646       -9.991      869.434
12/11/2013  03:30:00       -0.954       -6.480       -4.547        8.738        7.208        8.441       76.352       51.960       71.255        0.013        0.010        6.550        5.234        0.639      325.795       -9.750      869.443
12/11/2013  03:31:00        4.312       -3.810        2.739       15.074        9.918       11.894      227.225       98.370      141.471        0.025        0.023        5.754        5.746        0.997      325.842       -9.674      869.445
12/11/2013  03:32:00      -17.728       -4.596        1.401        8.760        9.420       12.019       76.731       88.739      144.459        0.032        0.015       18.314        6.622        0.131      325.705       -9.897      869.446
12/11/2013  03:33:00      -14.474       -9.278       -1.552       12.532        6.580        5.828      157.051       43.294       33.960        0.027        0.012       17.193        4.071        0.056      325.810       -9.725      869.453
12/11/2013  03:34:00       -0.133       -0.380        7.640        5.784        5.739        4.138       33.451       32.939       17.120        0.007        0.004        0.403        3.097       59.098      325.859       -9.647      869.460
12/11/2013  03:35:00        4.617        8.600       13.987       10.870        6.216        5.122      118.162       38.639       26.236        0.024        0.009        9.761        3.811        0.152      325.994       -9.429      869.475
12/11/2013  03:36:00       30.771       19.235        3.240        6.718        6.998       10.507       45.126       48.968      110.394        0.077        0.010       36.288        6.633        0.033      326.080       -9.288      869.481
12/11/2013  03:37:00       22.275       11.520        3.017       11.588        8.266        8.023      134.272       68.324       64.362        0.045        0.013       25.078        4.933        0.039      326.097       -9.259      869.487
12/11/2013  03:38:00        5.379       -0.739        4.116        7.918        7.547        6.816       62.692       56.953       46.457        0.011        0.008        5.429        3.530        0.423      326.078       -9.293      869.493
12/11/2013  03:39:00       -4.536       -0.665        8.919        6.597        7.403        4.767       43.518       54.799       22.725        0.011        0.006        4.584        3.401        0.550      325.972       -9.463      869.505
12/11/2013  03:40:00       -4.516       -5.069        3.860        4.504        4.915        6.896       20.288       24.157       47.556        0.008        0.005        6.789        3.197        0.222      325.808       -9.728      869.523
12/11/2013  03:41:00      -13.664       -7.710        4.209       10.300        6.559        7.629      106.091       43.025       58.207        0.024        0.010       15.689        7.000        0.199      325.713       -9.883      869.545
12/11/2013  03:42:00      -14.563       -9.090       -3.384       11.469        8.154        4.759      131.529       66.485       22.648        0.026        0.011       17.167        4.837        0.079      325.746       -9.830      869.561
12/11/2013  03:43:00        2.530      -11.163        8.910        9.981        6.425        7.949       99.615       41.274       63.185        0.021        0.010       11.446        7.282        0.405      325.797       -9.746      869.570
12/11/2013  03:44:00       -3.839      -27.252        6.092        6.208       11.221       10.578       38.538      125.921      111.884        0.054        0.014       27.521        5.323        0.037      325.885       -9.607      869.572
12/11/2013  03:45:00       -4.284      -18.032        1.612        7.808       10.026        9.581       60.960      100.517       91.799        0.030        0.013       18.534        5.695        0.094      325.853       -9.656      869.552
12/11/2013  03:46:00       10.688      -19.072        6.248       10.144        8.404       10.647      102.910       70.626      113.359        0.040        0.014       21.862        5.564        0.065      325.812       -9.724      869.526
12/11/2013  03:47:00       -4.922      -11.458        5.009        8.941       10.934       10.074       79.939      119.542      101.482        0.024        0.015       12.470        6.650        0.284      325.911       -9.562      869.508
12/11/2013  03:48:00        0.588       -1.805        6.343        9.320        7.592        6.872       86.857       57.633       47.221        0.012        0.010        1.898        3.725        3.851      325.959       -9.485      869.515
12/11/2013  03:49:00        1.655       13.939       18.087       11.738       11.303       11.517      137.791      127.751      132.650        0.046        0.020       14.037        6.248        0.198      325.983       -9.446      869.531
12/11/2013  03:50:00       58.600       39.732       20.533       31.771       19.805       13.929     1009.382      392.223      194.023        0.351        0.080       70.800        8.668        0.015      326.026       -9.377      869.556
12/11/2013  03:51:00       83.342       56.609       27.645       23.319       23.765       17.880      543.767      564.773      319.696        0.617        0.071      100.750       11.546        0.013      326.002       -9.415      869.589
12/11/2013  03:52:00       66.879       49.019       31.047       26.334       18.130       18.322      693.457      328.704      335.686        0.460        0.068       82.920       12.609        0.023      326.024       -9.380      869.612
12/11/2013  03:53:00       46.087       35.896       30.388       19.934       14.551       16.385      397.347      211.730      268.457        0.261        0.044       58.417        9.262        0.025      326.030       -9.369      869.614
12/11/2013  03:54:00       28.807       25.619       34.253       23.129       18.402       14.963      534.949      338.641      223.902        0.188        0.055       38.551        9.753        0.064      326.001       -9.418      869.606
12/11/2013  03:55:00       40.975       28.186       25.858       15.762       10.034       11.007      248.436      100.677      121.147        0.181        0.024       49.733        5.110        0.011      326.017       -9.390      869.602
12/11/2013  03:56:00       23.123       27.776       34.462       14.412       15.642       10.793      207.709      244.672      116.499        0.153        0.028       36.141        8.509        0.055      326.022       -9.383      869.605
12/11/2013  03:57:00       16.576       22.343       37.017       23.831       18.184       14.519      567.911      330.670      210.797        0.163        0.055       27.821       11.839        0.181      326.013       -9.397      869.608
12/11/2013  03:58:00       34.841       24.562       25.552       24.068       21.527       21.856      579.250      463.399      477.673        0.199        0.076       42.628       15.010        0.124      326.003       -9.416      869.609
12/11/2013  03:59:00       33.976       18.562       31.416       32.644       24.599       20.983     1065.600      605.123      440.306        0.230        0.106       38.716       20.410        0.278      326.019       -9.389      869.595
12/11/2013  04:00:00       22.846       42.053       45.391       20.432       23.196       10.731      417.469      538.037      115.158        0.271        0.054       47.858        7.461        0.024      326.010       -9.402      869.571
12/11/2013  04:01:00       46.189       38.130       12.842       13.601       10.859       16.178      184.985      117.928      261.719        0.216        0.028       59.894       10.567        0.031      325.969       -9.470      869.561
12/11/2013  04:02:00       47.716       32.802       12.081       20.547       10.691       14.546      422.173      114.289      211.573        0.212        0.037       57.903       10.037        0.030      325.929       -9.532      869.562
12/11/2013  04:03:00       73.711       35.517        8.589       14.989       13.616       12.194      224.656      185.405      148.692        0.366        0.028       81.822        8.056        0.010      325.932       -9.528      869.565
12/11/2013  04:04:00       52.465       34.745       13.403       17.872       14.921       13.428      319.411      222.631      180.321        0.243        0.036       62.927       11.264        0.032      325.897       -9.583      869.561
12/11/2013  04:05:00       51.257       22.611       16.078       20.303       20.494       16.994      412.221      420.005      288.792        0.226        0.056       56.023       12.966        0.054      325.947       -9.505      869.549
12/11/2013  04:06:00       19.506       23.559       23.428       16.532       14.483       14.545      273.318      209.764      211.551        0.109        0.035       30.586        7.322        0.057      325.933       -9.527      869.538
12/11/2013  04:07:00        4.665       14.134       26.853       10.917       11.889        9.516      119.189      141.351       90.559        0.065        0.018       14.885        5.801        0.152      325.934       -9.526      869.510
12/11/2013  04:08:00       -1.572       13.485       23.959        6.742       10.456        7.744       45.453      109.327       59.971        0.049        0.011       13.576        7.168        0.279      325.915       -9.556      869.483
12/11/2013  04:09:00      -35.824      -11.424       -2.039       23.725       10.664        9.667      562.861      113.731       93.448        0.109        0.039       37.602       10.472        0.078      325.686       -9.925      869.468
12/11/2013  04:10:00      -55.453        2.085      -10.212       13.061       11.666        7.734      170.578      136.087       59.816        0.178        0.018       55.493        6.249        0.013      325.517      -10.199      869.459
12/11/2013  04:11:00      -93.215       16.361       -9.547       22.764       14.273       14.361      518.193      203.709      206.251        0.499        0.046       94.640       11.063        0.014      325.510      -10.212      869.460
12/11/2013  04:12:00      -82.884       18.571      -17.695       18.935       17.331       13.476      358.549      300.370      181.614        0.418        0.042       84.939        9.120        0.012      325.426      -10.347      869.469
12/11/2013  04:13:00      -47.747       11.262      -13.616       23.810       15.637        8.808      566.905      244.510       77.584        0.174        0.044       49.057        8.631        0.031      325.496      -10.235      869.481
12/11/2013  04:14:00      -27.825        4.064       -3.311       11.662       13.994        8.167      136.005      195.826       66.693        0.060        0.020       28.120        7.573        0.073      325.536      -10.168      869.494
12/11/2013  04:15:00      -28.353      -13.302       -6.695       11.334       15.549       11.804      128.450      241.772      139.334        0.077        0.025       31.318        9.670        0.095      325.584      -10.091      869.511
12/11/2013  04:16:00      -39.076       -9.163       -2.692       17.165       13.110       10.274      294.639      171.864      105.565        0.109        0.029       40.136        7.003        0.030      325.528      -10.181      869.508
12/11/2013  04:17:00      -57.615      -10.263      -10.451       11.265        8.141        8.911      126.903       66.276       79.399        0.190        0.014       58.522        6.028        0.011      325.452      -10.305      869.502
12/11/2013  04:18:00      -63.321       -5.192      -10.223       18.492       15.030        9.891      341.966      225.912       97.824        0.240        0.033       63.533        9.771        0.024      325.423      -10.353      869.493
12/11/2013  04:19:00      -58.080       -2.651       -6.087       15.417       14.658       11.974      237.689      214.867      143.367        0.201        0.030       58.141       10.546        0.033      325.439      -10.327      869.485
12/11/2013  04:20:00      -55.981      -13.090       -6.543       22.329       13.912       10.262      498.563      193.548      105.299        0.207        0.040       57.492       10.276        0.032      325.408      -10.376      869.486
12/11/2013  04:21:00      -47.235      -16.718       -4.314       24.960       11.715        9.294      622.998      137.230       86.371        0.169        0.042       50.106        4.731        0.009      325.409      -10.374      869.484
12/11/2013  04:22:00      -69.621        4.517       -3.378       24.334       24.432       14.460      592.140      596.943      209.095        0.314        0.070       69.767       12.657        0.033      325.414      -10.365      869.491
12/11/2013  04:23:00      -33.613       -0.314       -3.791       20.281       21.924       13.620      411.315      480.655      185.512        0.111        0.054       33.614       11.776        0.123      325.405      -10.380      869.500
12/11/2013  04:24:00      -61.663      -15.120       -7.555       25.498       15.069       10.288      650.151      227.072      105.836        0.254        0.049       63.490       11.450        0.033      325.349      -10.470      869.497
12/11/2013  04:25:00      -82.420      -11.922      -14.053       18.234       15.296       11.200      332.471      233.955      125.439        0.391        0.035       83.278        9.154        0.012      325.309      -10.534      869.497
12/11/2013  04:26:00      -77.552       -6.187       -8.663       25.682       16.321       14.715      659.566      266.372      216.539        0.363        0.057       77.799       14.244        0.034      325.272      -10.595      869.491
12/11/2013  04:27:00      -60.525      -10.707       -3.283       20.539       18.982       12.632      421.863      360.330      159.577        0.237        0.047       61.465       11.205        0.033      325.281      -10.580      869.484
12/11/2013  04:28:00      -70.841      -10.362       -5.287       27.952       19.181       17.296      781.323      367.920      299.155        0.330        0.072       71.595       11.839        0.027      325.270      -10.598      869.469
12/11/2013  04:29:00      -58.635       -9.761       -2.690       22.113       16.112       12.298      488.975      259.602      151.229        0.222        0.045       59.442       11.091        0.035      325.244      -10.640      869.464
12/11/2013  04:30:00      -55.283      -15.619       -3.442       17.063       12.231       10.065      291.140      149.591      101.309        0.193        0.027       57.447        6.441        0.013      325.216      -10.685      869.461
12/11/2013  04:31:00      -39.022      -10.028       -2.776       15.662        9.525        7.614      245.288       90.723       57.979        0.101        0.020       40.290        5.959        0.022      325.290      -10.565      869.467
12/11/2013  04:32:00      -51.360       -2.083       -3.260        7.075       13.046        6.916       50.049      170.201       47.831        0.146        0.013       51.403        3.569        0.005      325.357      -10.456      869.462
12/11/2013  04:33:00      -46.226       -7.446       -2.127        8.413        9.523        9.729       70.771       90.695       94.657        0.123        0.013       46.822        4.105        0.008      325.423      -10.352      869.460
12/11/2013  04:34:00      -53.961      -14.095       -3.432       12.298       12.058        9.735      151.236      145.390       94.769        0.176        0.020       55.772        3.820        0.005      325.385      -10.412      869.456
12/11/2013  04:35:00      -35.338       -5.699       -0.271        8.298        7.575        7.265       68.857       57.378       52.781        0.073        0.009       35.795        2.864        0.006      325.414      -10.366      869.451
12/11/2013  04:36:00      -36.436       -4.472       -3.162        6.747        9.199        8.611       45.517       84.621       74.146        0.078        0.010       36.709        7.331        0.040      325.384      -10.414      869.465
12/11/2013  04:37:00      -22.235       -0.105        3.357        8.648       11.064        8.593       74.783      122.412       73.845        0.039        0.014       22.236        4.737        0.045      325.429      -10.341      869.476
12/11/2013  04:38:00      -14.469       -1.397        0.924        7.447        4.228        5.180       55.457       17.880       26.834        0.016        0.005       14.536        3.309        0.052      325.456      -10.300      869.487
12/11/2013  04:39:00        8.059        7.751        1.521       13.483        8.221        7.389      181.779       67.589       54.590        0.022        0.015       11.181        7.045        0.397      325.609      -10.050      869.495
12/11/2013  04:40:00       16.558       10.675        7.415        9.044        9.070        6.540       81.802       82.263       42.773        0.032        0.010       19.701        4.037        0.042      325.644       -9.994      869.499
12/11/2013  04:41:00       13.551        6.710        6.061       13.439       11.495        6.423      180.598      132.126       41.249        0.031        0.018       15.121        5.548        0.135      325.685       -9.928      869.494
12/11/2013  04:42:00       15.378       18.477       -3.276       12.002       14.421        8.479      144.045      207.963       71.891        0.051        0.021       24.040        6.425        0.071      325.688       -9.924      869.481
12/11/2013  04:43:00       16.085       15.903       -1.264        9.244       11.550        5.763       85.449      133.402       33.214        0.038        0.013       22.620        2.872        0.016      325.677       -9.940      869.476
12/11/2013  04:44:00        3.631       -3.708        1.301        6.332       11.609        7.960       40.098      134.771       63.369        0.013        0.012        5.189        5.237        1.019      325.680       -9.937      869.486
12/11/2013  04:45:00       -1.375        3.089        1.353        8.632       13.174        8.311       74.519      173.545       69.075        0.017        0.016        3.381        9.209        7.418      325.687       -9.925      869.499
12/11/2013  04:46:00        0.694        8.830        4.756       15.456       10.401        8.879      238.893      108.188       78.834        0.026        0.021        8.857        6.274        0.502      325.663       -9.963      869.500
12/11/2013  04:47:00       -0.960       27.950        1.288       12.579       16.414       10.608      158.220      269.421      112.534        0.066        0.027       27.966        8.334        0.089      325.573      -10.108      869.503
12/11/2013  04:48:00      -14.919       17.523        4.960       12.936       16.532        9.186      167.345      273.310       84.377        0.054        0.026       23.014        7.280        0.100      325.469      -10.276      869.498
12/11/2013  04:49:00      -20.741       -6.087        6.907       10.419        9.400        5.659      108.545       88.366       32.028        0.037        0.011       21.616        2.988        0.019      325.314      -10.527      869.495
12/11/2013  04:50:00      -53.025       -5.609       -6.484       13.683       11.526        8.239      187.232      132.839       67.888        0.164        0.019       53.321        5.302        0.010      325.163      -10.771      869.505
12/11/2013  04:51:00      -64.806       -5.259       -9.816       12.920        7.935        6.528      166.920       62.971       42.614        0.230        0.014       65.019        4.048        0.004      324.984      -11.060      869.522
12/11/2013  04:52:00      -76.247      -11.947       -6.701       13.259       12.461       11.925      175.814      155.282      142.216        0.324        0.024       77.178        5.430        0.005      324.953      -11.108      869.535
12/11/2013  04:53:00      -83.212      -13.108      -14.395       12.694       14.507        9.122      161.145      210.458       83.204        0.388        0.023       84.238        3.969        0.002      324.922      -11.161      869.537
12/11/2013  04:54:00      -85.852      -12.591      -18.239       22.265       19.125       13.431      495.727      365.751      180.387        0.445        0.052       86.770        9.916        0.013      324.940      -11.130      869.543
12/11/2013  04:55:00      -84.200      -20.001      -17.381       19.624       14.091       11.401      385.086      198.566      129.988        0.425        0.036       86.543        5.847        0.005      324.925      -11.155      869.540
12/11/2013  04:56:00      -94.907       -6.633      -14.771       15.025       16.985       15.034      225.752      288.503      226.029        0.500        0.037       95.138        8.315        0.008      324.925      -11.155      869.539
12/11/2013  04:57:00      -88.300       -7.336      -11.785       18.023       16.141       12.857      324.838      260.534      165.306        0.437        0.038       88.605        9.798        0.012      324.908      -11.183      869.534
12/11/2013  04:58:00      -74.415        4.298       -9.953       30.562       22.849       17.458      934.044      522.069      304.794        0.371        0.088       74.539       11.584        0.024      324.893      -11.206      869.543
12/11/2013  04:59:00      -61.168       -9.808       -7.711       24.773       21.127       15.673      613.683      446.353      245.654        0.260        0.065       61.950       14.305        0.053      324.939      -11.132      869.551
12/11/2013  05:00:00      -83.282      -16.022       -6.457       23.948       17.017       12.406      573.498      289.564      153.901        0.413        0.051       84.810        8.600        0.010      324.944      -11.125      869.572
12/11/2013  05:01:00      -74.262      -11.557      -10.243       11.697       13.242       10.269      136.831      175.360      105.442        0.309        0.021       75.156        3.655        0.002      324.930      -11.145      869.589
12/11/2013  05:02:00      -95.920      -12.060      -11.518       12.370        8.656       12.001      153.009       74.932      144.015        0.493        0.019       96.675        4.493        0.002      324.945      -11.121      869.587
12/11/2013  05:03:00      -92.902      -23.325      -11.043       14.550       11.068        9.351      211.701      122.509       87.442        0.486        0.021       95.786        4.380        0.002      324.956      -11.103      869.577
12/11/2013  05:04:00     -104.395      -10.982      -10.835       13.299       14.008        9.226      176.873      196.234       85.125        0.580        0.023      104.971        4.294        0.002      324.959      -11.099      869.563
12/11/2013  05:05:00     -110.718      -18.375      -11.282       16.058       14.935        8.050      257.873      223.057       64.808        0.663        0.027      112.232        3.352        0.001      324.947      -11.120      869.545
12/11/2013  05:06:00      -93.406      -12.194       -9.634       25.067       13.707       12.988      628.332      187.872      168.695        0.498        0.049       94.198        5.585        0.004      324.965      -11.091      869.535
12/11/2013  05:07:00      -81.683      -14.838       -9.333       13.280       10.998       10.899      176.367      120.951      118.797        0.370        0.021       83.020        3.846        0.002      324.958      -11.102      869.554
12/11/2013  05:08:00      -80.424      -15.815      -10.786       13.225       12.145        9.590      174.890      147.491       91.968        0.362        0.021       81.964        4.200        0.003      324.969      -11.084      869.585
12/11/2013  05:09:00      -70.528      -24.191       -1.829       13.018       13.196       13.809      169.474      174.128      190.698        0.305        0.027       74.561        5.972        0.006      325.042      -10.966      869.608
12/11/2013  05:10:00      -75.469      -14.991      -12.082       13.864       10.310        7.380      192.223      106.298       54.469        0.321        0.018       76.943        2.499        0.001      325.053      -10.948      869.620
12/11/2013  05:11:00      -79.994       -7.903       -8.194       14.328       11.415       10.064      205.279      130.300      101.275        0.348        0.022       80.384        5.270        0.004      325.023      -10.996      869.625
12/11/2013  05:12:00      -76.395       -1.885       -8.526       23.302       11.495       12.688      542.976      132.126      160.997        0.337        0.042       76.418       11.001        0.021      325.012      -11.014      869.620
12/11/2013  05:13:00      -70.910       -8.555       -6.715       16.216       15.628       10.801      262.969      244.221      116.668        0.289        0.031       71.424        6.758        0.009      324.985      -11.058      869.626
12/11/2013  05:14:00      -56.586      -12.471       -8.136       12.188       16.380       11.201      148.548      268.312      125.473        0.198        0.027       57.944        7.830        0.018      325.016      -11.006      869.634
12/11/2013  05:15:00      -64.333      -15.658      -10.581       11.439       10.033        8.826      130.857      100.657       77.891        0.240        0.015       66.211        3.399        0.003      325.055      -10.945      869.648
12/11/2013  05:16:00      -54.235      -14.408      -13.817       19.093       11.882       14.271      364.538      141.190      203.667        0.202        0.035       56.116        9.839        0.031      325.153      -10.787      869.663
12/11/2013  05:17:00      -86.668      -16.357       -9.275       15.605       16.001       10.719      243.521      256.025      114.895        0.424        0.031       88.198        8.470        0.009      325.064      -10.930      869.672
12/11/2013  05:18:00      -79.456       -7.844       -8.965       18.970       15.729       11.061      359.872      247.411      122.341        0.359        0.036       79.842        7.031        0.008      325.047      -10.958      869.678
12/11/2013  05:19:00      -76.491       -4.504       -6.757       21.920       13.260       12.050      480.470      175.825      145.200        0.336        0.040       76.624        8.037        0.011      325.006      -11.024      869.687
12/11/2013  05:20:00      -51.802       -4.961       -7.154       13.134       10.737        6.239      172.493      115.283       38.927        0.154        0.016       52.039        3.885        0.006      324.990      -11.049      869.690
12/11/2013  05:21:00      -73.846       -7.564      -11.392       14.642        9.696        9.901      214.387       94.016       98.022        0.302        0.020       74.232        5.387        0.005      325.073      -10.916      869.693
12/11/2013  05:22:00      -58.067      -15.152      -10.011       13.014       10.042       10.255      169.374      100.847      105.175        0.204        0.019       60.011        3.180        0.003      325.136      -10.816      869.690
12/11/2013  05:23:00      -70.456       -1.273      -10.128       18.995       14.247       11.138      360.816      202.964      124.058        0.288        0.034       70.468        8.631        0.015      325.124      -10.835      869.689
12/11/2013  05:24:00      -80.735       -4.759      -12.531       18.335        7.737        9.492      336.184       59.867       90.089        0.359        0.024       80.875        9.058        0.013      325.095      -10.880      869.684
12/11/2013  05:25:00      -52.471       -8.991       -4.819       12.475       11.839       11.052      155.614      140.156      122.146        0.164        0.021       53.236        8.277        0.024      325.127      -10.829      869.683
12/11/2013  05:26:00      -64.017      -14.678      -12.160       11.275       10.369        8.397      127.130      107.511       70.509        0.238        0.015       65.678        2.566        0.002      325.205      -10.704      869.683
12/11/2013  05:27:00      -53.679      -23.201      -10.992       14.446       11.020        7.633      208.697      121.448       58.268        0.196        0.019       58.478        1.707        0.001      325.229      -10.665      869.681
12/11/2013  05:28:00      -59.920      -15.180       -8.868       17.288       11.763        7.439      298.871      138.362       55.343        0.220        0.025       61.813        5.577        0.008      325.140      -10.809      869.678
12/11/2013  05:29:00      -83.389       -8.399      -10.595       13.791       15.498       11.063      190.205      240.194      122.392        0.384        0.028       83.811        8.906        0.011      325.066      -10.928      869.664
12/11/2013  05:30:00      -99.874       -4.687      -16.894       22.300       11.781       10.334      497.275      138.795      106.800        0.551        0.037       99.984        5.480        0.003      325.048      -10.958      869.653
12/11/2013  05:31:00     -110.551       -4.141      -11.990       16.706       13.406       13.007      279.076      179.723      169.171        0.651        0.031      110.628        9.649        0.008      325.042      -10.965      869.649
12/11/2013  05:32:00     -100.386       -1.660       -7.785       20.154       15.399       16.237      406.175      237.118      263.626        0.552        0.045      100.400       13.567        0.018      324.985      -11.058      869.650
12/11/2013  05:33:00     -112.060       -4.902      -12.001       16.189       17.518       13.851      262.086      306.881      191.856        0.674        0.038      112.167        8.639        0.006      325.007      -11.022      869.649
12/11/2013  05:34:00      -84.057       -3.331       -5.222       26.015       15.340       16.796      676.766      235.326      282.120        0.415        0.060       84.123       15.577        0.034      324.958      -11.101      869.646
12/11/2013  05:35:00      -82.724       -0.811       -8.460       30.301       14.198       14.546      918.176      201.584      211.596        0.412        0.067       82.728       14.635        0.031      324.975      -11.074      869.641
12/11/2013  05:36:00      -70.486        2.942       -3.767       30.952       22.687       15.120      958.052      514.720      228.616        0.335        0.085       70.548       17.091        0.059      324.965      -11.090      869.629
12/11/2013  05:37:00      -75.637       -8.611        3.168       31.543       25.205       19.630      994.990      635.317      385.329        0.391        0.101       76.126       18.451        0.059      324.998      -11.036      869.624
12/11/2013  05:38:00      -91.822       -3.593       -2.623       32.574       29.656       20.396     1061.090      879.480      416.005        0.540        0.118       91.892       19.347        0.044      324.969      -11.084      869.624
12/11/2013  05:39:00      -74.847       -7.287        0.970       33.024       26.716       18.261     1090.581      713.722      333.461        0.390        0.107       75.201       17.786        0.056      324.974      -11.076      869.620
12/11/2013  05:40:00      -53.666      -22.591        4.178       23.695       24.697       16.977      561.431      609.930      288.217        0.243        0.073       58.227       12.014        0.043      325.073      -10.916      869.621
12/11/2013  05:41:00      -45.479        0.679        6.879       35.915       22.027       18.607     1289.856      485.171      346.204        0.212        0.106       45.484       21.741        0.228      324.987      -11.054      869.635
12/11/2013  05:42:00      -64.470        0.450        0.915       34.212       18.024       15.298     1170.427      324.860      234.037        0.294        0.086       64.471       13.100        0.041      324.981      -11.064      869.649
12/11/2013  05:43:00      -39.115        3.178        5.376       32.787       17.604       14.032     1075.010      309.894      196.889        0.158        0.079       39.244       18.094        0.213      325.069      -10.922      869.670
12/11/2013  05:44:00      -44.971      -14.886       -4.828       20.234       17.189       11.271      409.425      295.466      127.028        0.155        0.042       47.371        8.071        0.029      325.072      -10.918      869.680
12/11/2013  05:45:00      -49.301      -15.197       -5.180       16.262       21.541        9.190      264.463      464.027       84.455        0.175        0.041       51.590        8.967        0.030      325.053      -10.948      869.689
12/11/2013  05:46:00      -59.088      -14.807       -3.902       29.494       22.167       15.743      869.906      491.362      247.844        0.267        0.080       60.915        9.911        0.026      325.038      -10.973      869.697
12/11/2013  05:47:00      -54.950       -9.773       -6.539       24.007       25.100       14.296      576.347      630.024      204.388        0.228        0.071       55.812        9.366        0.028      324.984      -11.059      869.714
12/11/2013  05:48:00      -67.420      -19.537      -10.896       22.366       19.755       14.632      500.234      390.242      214.109        0.307        0.055       70.193        8.676        0.015      324.944      -11.124      869.735
12/11/2013  05:49:00      -87.751      -35.702      -11.360       22.714       21.552       14.139      515.948      464.488      199.899        0.514        0.059       94.736       10.302        0.012      324.976      -11.073      869.759
12/11/2013  05:50:00      -90.640      -47.133       -3.740       24.974       26.926       15.487      623.685      725.034      239.839        0.602        0.079      102.162        6.015        0.003      324.977      -11.072      869.777
12/11/2013  05:51:00      -82.385      -14.130       -9.423       31.361       31.120       19.516      983.497      968.452      380.891        0.470        0.117       83.588        9.626        0.013      324.866      -11.250      869.793
12/11/2013  05:52:00      -69.219      -28.384       -1.550       32.279       24.484       14.616     1041.960      599.460      213.635        0.373        0.093       74.813        9.337        0.016      324.894      -11.205      869.797
12/11/2013  05:53:00      -78.238      -24.651       -8.776       30.519       20.380       13.095      931.433      415.338      171.468        0.416        0.076       82.029        6.625        0.007      324.817      -11.330      869.807
12/11/2013  05:54:00     -102.808      -19.264      -11.468       16.280       21.270       12.587      265.039      452.400      158.424        0.597        0.044      104.597        6.977        0.004      324.786      -11.381      869.824
12/11/2013  05:55:00      -98.586      -20.304       -9.589       15.392       26.413       15.524      236.919      697.624      241.007        0.570        0.059      100.655        8.818        0.008      324.826      -11.315      869.831
12/11/2013  05:56:00      -84.505       -9.372      -15.505       11.436       12.869       12.243      130.772      165.608      149.899        0.396        0.022       85.024        4.277        0.003      324.890      -11.213      869.841
12/11/2013  05:57:00      -76.922      -10.449       -7.501       15.211       16.771       12.672      231.360      281.279      160.580        0.338        0.034       77.628        9.791        0.016      324.876      -11.235      869.836
12/11/2013  05:58:00      -78.400      -20.963      -14.089       16.850       16.969       13.754      283.909      287.957      189.164        0.377        0.038       81.154       11.177        0.019      324.917      -11.167      869.836
12/11/2013  05:59:00      -59.646      -22.073       -7.845       23.008        8.762       15.310      529.361       76.775      234.403        0.247        0.042       63.600       13.670        0.046      325.028      -10.990      869.831
12/11/2013  06:00:00      -60.822      -21.550       -6.559       12.006       11.918       10.819      144.147      142.037      117.056        0.230        0.020       64.527        7.735        0.014      325.035      -10.977      869.829
12/11/2013  06:01:00      -53.218      -12.097       -5.008       12.949       11.916        8.489      167.664      141.992       72.067        0.169        0.019       54.575        5.168        0.009      325.076      -10.911      869.823
12/11/2013  06:02:00      -62.906       -4.646       -9.421       11.544       10.610        9.319      133.263      112.567       86.838        0.220        0.017       63.077        5.661        0.008      324.986      -11.055      869.817
12/11/2013  06:03:00      -59.331      -13.779       -6.071       10.633       10.266       10.033      113.054      105.389      100.667        0.203        0.016       60.910        6.190        0.010      325.083      -10.900      869.815
12/11/2013  06:04:00      -53.487      -13.391      -15.909        5.768        7.307        9.226       33.274       53.391       85.115        0.173        0.009       55.137        2.478        0.002      325.037      -10.973      869.822
12/11/2013  06:05:00      -50.257       -2.295        0.427        8.435       10.810       12.053       71.143      116.858      145.280        0.143        0.017       50.310        6.920        0.019      325.026      -10.992      869.820
12/11/2013  06:06:00      -40.044       -8.886       -6.476        9.160        6.649        5.440       83.903       44.205       29.598        0.094        0.008       41.018        2.386        0.003      325.099      -10.873      869.814
12/11/2013  06:07:00      -34.703       -2.218       -2.621        5.961        6.739        6.506       35.532       45.420       42.332        0.067        0.006       34.774        3.359        0.009      325.125      -10.833      869.807
12/11/2013  06:08:00      -39.948       -3.113       -4.231        6.753        9.887        5.846       45.596       97.753       34.180        0.090        0.009       40.069        2.672        0.004      325.149      -10.793      869.802
12/11/2013  06:09:00      -48.106       -2.792       -8.241        8.601       10.962        8.753       73.976      120.165       76.608        0.133        0.014       48.187        5.961        0.015      325.145      -10.802      869.796
12/11/2013  06:10:00      -64.029      -10.984       -5.796        9.722       11.870        7.691       94.517      140.894       59.153        0.227        0.015       64.965        4.679        0.005      325.066      -10.927      869.797
12/11/2013  06:11:00      -60.498       -1.781      -11.760       12.654       10.047        8.934      160.116      100.942       79.825        0.207        0.017       60.524        3.061        0.003      324.984      -11.060      869.813
12/11/2013  06:12:00      -42.397       -5.538       -7.778        7.298        8.545        6.313       53.262       73.011       39.853        0.103        0.008       42.757        3.091        0.005      324.964      -11.093      869.828
12/11/2013  06:13:00      -33.249      -22.852       -6.952       18.414       11.929        7.723      339.078      142.307       59.644        0.111        0.027       40.345        7.319        0.033      324.990      -11.050      869.850
12/11/2013  06:14:00      -14.951      -12.952        3.620       17.439        9.446        9.249      304.116       89.226       85.540        0.044        0.024       19.781        8.259        0.174      325.000      -11.034      869.870
12/11/2013  06:15:00      -57.741      -12.735       -5.034       14.124       12.574        7.886      199.500      158.093       62.193        0.197        0.021       59.129        5.125        0.008      324.927      -11.151      869.883
12/11/2013  06:16:00      -70.523       -6.741       -8.472       11.088       13.130       11.387      122.952      172.394      129.659        0.276        0.021       70.844        7.374        0.011      324.877      -11.232      869.884
12/11/2013  06:17:00      -68.393       -2.496      -10.556       13.155        8.554       12.520      173.062       73.178      156.754        0.260        0.020       68.439        9.154        0.018      324.776      -11.395      869.880
12/11/2013  06:18:00      -76.851       -1.917       -8.429       17.275       11.278       11.292      298.410      127.185      127.499        0.327        0.028       76.875        6.776        0.008      324.722      -11.482      869.865
12/11/2013  06:19:00      -60.859       -9.183       -6.888       22.438       13.001       11.292      503.475      169.035      127.514        0.232        0.040       61.548       12.316        0.040      324.730      -11.469      869.859
12/11/2013  06:20:00      -67.648      -19.949      -10.685       20.210       20.185       12.220      408.462      407.431      149.320        0.303        0.048       70.528        7.522        0.011      324.728      -11.473      869.863
12/11/2013  06:21:00      -73.233      -11.255      -11.310       15.000       15.346       12.347      224.989      235.502      152.449        0.312        0.031       74.093        6.515        0.008      324.710      -11.501      869.877
12/11/2013  06:22:00      -56.319      -16.793       -6.022        8.950       11.196        8.116       80.095      125.352       65.872        0.188        0.014       58.769        5.263        0.008      324.741      -11.452      869.891
12/11/2013  06:23:00      -57.640      -11.561       -9.762        9.726       12.105        8.134       94.594      146.525       66.169        0.193        0.015       58.788        2.558        0.002      324.717      -11.490      869.902
12/11/2013  06:24:00      -55.974      -19.868       -6.031       10.563       17.597        9.734      111.576      309.669       94.748        0.204        0.026       59.395        6.375        0.012      324.719      -11.488      869.908
12/11/2013  06:25:00      -85.670       -9.992       -8.064       17.146       10.603       10.643      293.992      112.423      113.279        0.401        0.026       86.251        3.561        0.002      324.716      -11.492      869.907
12/11/2013  06:26:00      -59.576       -3.847       -6.615       19.122       10.125       10.411      365.666      102.517      108.383        0.209        0.029       59.700        9.062        0.023      324.791      -11.372      869.898
12/11/2013  06:27:00      -83.178        3.558       -8.636       17.540       11.065       11.378      307.662      122.428      129.461        0.378        0.028       83.254        4.783        0.003      324.768      -11.408      869.903
12/11/2013  06:28:00      -69.838      -16.262       -3.924       21.181       20.420       11.934      448.620      416.981      142.418        0.308        0.050       71.707        9.726        0.018      324.834      -11.301      869.914
12/11/2013  06:29:00      -92.696        0.165      -10.759       17.349       15.396       10.707      300.979      237.033      114.632        0.468        0.033       92.696        9.187        0.010      324.768      -11.408      869.922
12/11/2013  06:30:00     -102.218       -4.335       -9.795       19.791       11.734       12.900      391.698      137.676      166.399        0.563        0.035      102.310       11.382        0.012      324.771      -11.403      869.932
12/11/2013  06:31:00      -84.856       -5.444       -7.037       22.458        9.681       10.391      504.363       93.713      107.970        0.399        0.035       85.030        9.937        0.014      324.745      -11.444      869.950
12/11/2013  06:32:00      -87.773       -1.765      -11.381       15.776       12.809       11.519      248.886      164.063      132.677        0.419        0.027       87.790        6.264        0.005      324.745      -11.445      869.954
12/11/2013  06:33:00      -91.835       -2.866       -8.741       15.931       13.183       12.724      253.794      173.803      161.906        0.455        0.029       91.880        8.389        0.008      324.730      -11.469      869.958
12/11/2013  06:34:00      -88.154       -9.277      -11.130       15.144       17.462       11.252      229.344      304.937      126.618        0.432        0.033       88.641        8.105        0.008      324.760      -11.420      869.956
12/11/2013  06:35:00      -85.586       -6.289      -11.243       11.154       11.087       10.030      124.407      122.926      100.611        0.392        0.017       85.817        5.665        0.004      324.774      -11.398      869.963
12/11/2013  06:36:00      -82.404       -6.019       -9.166       13.842       12.553       12.478      191.600      157.586      155.712        0.371        0.025       82.624        9.760        0.014      324.769      -11.407      869.971
12/11/2013  06:37:00      -53.624       -6.368       -3.776       23.570       15.904       10.455      555.531      252.922      109.314        0.192        0.046       54.001       10.371        0.037      324.776      -11.396      869.979
12/11/2013  06:38:00      -53.797       -0.479       -3.305       27.269       17.783       15.928      743.586      316.221      253.706        0.211        0.066       53.800       15.306        0.081      324.759      -11.423      869.988
12/11/2013  06:39:00      -46.708       -4.489       -7.601       20.622       13.861       13.696      425.258      192.138      187.573        0.153        0.040       46.923       11.093        0.056      324.734      -11.464      869.999
12/11/2013  06:40:00      -39.132       -9.652       -2.378        8.088       12.990        8.553       65.419      168.746       73.156        0.097        0.015       40.304        5.429        0.018      324.809      -11.341      870.016
12/11/2013  06:41:00      -36.894      -15.661       -6.119        8.450        6.876        7.740       71.396       47.279       59.911        0.091        0.009       40.080        4.714        0.014      324.791      -11.372      870.029
12/11/2013  06:42:00      -38.751      -20.130       -7.412        9.308        6.602        7.397       86.644       43.585       54.709        0.107        0.009       43.667        2.757        0.004      324.813      -11.335      870.036
12/11/2013  06:43:00      -49.244      -11.676       -9.749        9.473        7.458        6.025       89.741       55.616       36.299        0.142        0.009       50.609        3.464        0.005      324.762      -11.418      870.028
12/11/2013  06:44:00      -67.387       -3.342       -9.341       14.789        8.410        8.907      218.728       70.729       79.331        0.250        0.018       67.470        2.318        0.001      324.715      -11.492      870.005
12/11/2013  06:45:00      -67.033       -7.156       -7.116       12.102       12.416        7.704      146.455      154.167       59.353        0.248        0.018       67.414        6.871        0.010      324.759      -11.423      869.985
12/11/2013  06:46:00      -53.958      -10.329       -8.576       10.887       10.407        7.835      118.522      108.299       61.394        0.169        0.014       54.937        5.896        0.012      324.736      -11.459      869.978
12/11/2013  06:47:00      -41.744       -7.368       -6.287        9.856        6.820        6.157       97.135       46.519       37.911        0.101        0.009       42.389        3.303        0.006      324.736      -11.460      869.997
12/11/2013  06:48:00      -28.328      -10.364       -7.164        7.102        6.673        6.532       50.444       44.526       42.673        0.055        0.007       30.164        4.372        0.021      324.956      -11.105      870.026
12/11/2013  06:49:00      -26.548       -8.244        3.640        6.387        9.026        8.174       40.789       81.475       66.807        0.049        0.009       27.798        6.624        0.057      325.026      -10.992      870.057
12/11/2013  06:50:00       -6.354       -0.876        0.203        7.929        6.216        7.435       62.866       38.637       55.285        0.010        0.008        6.414        5.394        0.707      325.095      -10.878      870.084
12/11/2013  06:51:00      -14.366       -3.171       -2.656        6.951        4.626        5.810       48.320       21.404       33.760        0.016        0.005       14.712        3.356        0.052      325.014      -11.012      870.099
12/11/2013  06:52:00       -8.048        4.745        2.021        6.722        4.677        4.797       45.187       21.878       23.010        0.009        0.005        9.343        1.870        0.040      325.031      -10.985      870.114
12/11/2013  06:53:00      -12.462       -1.477       -2.228        6.069        5.356        7.013       36.838       28.692       49.186        0.014        0.006       12.549        5.217        0.173      325.026      -10.993      870.130
12/11/2013  06:54:00      -13.152       -7.903       -4.903        7.369        8.580        5.438       54.307       73.613       29.576        0.021        0.008       15.344        2.673        0.030      325.049      -10.955      870.142
12/11/2013  06:55:00      -19.243       -4.985       -2.422        7.604        6.888        6.421       57.827       47.451       41.231        0.027        0.007       19.878        3.544        0.032      325.007      -11.022      870.157
12/11/2013  06:56:00      -27.566      -12.196       -3.427        5.919        5.435        6.124       35.030       29.541       37.503        0.051        0.005       30.144        2.976        0.010      324.996      -11.040      870.164
12/11/2013  06:57:00      -18.090      -13.830       -2.553       12.390        6.153        6.416      153.522       37.864       41.171        0.038        0.012       22.771        4.988        0.048      325.056      -10.942      870.167
12/11/2013  06:58:00      -44.461       -8.794       -6.656       14.571        8.278        8.398      212.320       68.521       70.523        0.122        0.018       45.322        2.485        0.003      325.020      -11.003      870.159
12/11/2013  06:59:00      -51.615       -7.235      -11.733       13.562        9.698        9.534      183.925       94.045       90.903        0.161        0.018       52.119        5.415        0.011      324.907      -11.184      870.147
12/11/2013  07:00:00      -51.534       -9.277       -6.298        8.967        9.131        7.316       80.401       83.371       53.520        0.150        0.011       52.362        3.355        0.004      324.886      -11.218      870.143
12/11/2013  07:01:00      -53.708       -4.884       -6.891       11.245        8.137        7.575      126.451       66.219       57.385        0.160        0.013       53.930        4.378        0.007      324.837      -11.296      870.148
12/11/2013  07:02:00      -56.675       -9.906       -8.690       11.204       10.338        7.762      125.539      106.868       60.241        0.184        0.015       57.534        3.887        0.005      324.864      -11.253      870.158
12/11/2013  07:03:00      -68.694       -3.631      -10.942       12.507       13.824       10.581      156.425      191.104      111.949        0.266        0.023       68.789        6.052        0.008      324.680      -11.550      870.161
12/11/2013  07:04:00      -87.305       -4.190       -9.526       32.463       14.156       13.513     1053.865      200.389      182.602        0.458        0.072       87.405       14.568        0.028      324.642      -11.611      870.167
12/11/2013  07:05:00      -95.693      -14.159      -11.654       28.313       16.751       12.267      801.642      280.611      150.476        0.536        0.062       96.735        3.996        0.002      324.612      -11.661      870.181
12/11/2013  07:06:00      -81.097      -11.883       -6.342       26.239       23.219       17.794      688.504      539.133      316.634        0.415        0.077       81.963       13.476        0.027      324.597      -11.683      870.188
12/11/2013  07:07:00      -93.697      -16.844       -4.757       23.070       20.601       15.897      532.214      424.409      252.713        0.515        0.060       95.199       10.053        0.011      324.629      -11.631      870.195
12/11/2013  07:08:00     -105.894      -16.387       -6.888       31.003       27.181       18.732      961.217      738.815      350.891        0.679        0.103      107.154       10.594        0.010      324.618      -11.650      870.199
12/11/2013  07:09:00     -100.024      -15.958       -8.194       20.782       22.390       16.583      431.904      501.315      274.980        0.577        0.060      101.289       10.208        0.010      324.639      -11.617      870.205
12/11/2013  07:10:00      -78.750      -16.335       -6.577       18.590       23.276       15.411      345.591      541.769      237.508        0.382        0.056       80.426       12.412        0.024      324.644      -11.609      870.224
12/11/2013  07:11:00      -98.468       -1.774      -10.526       21.820       14.218       12.292      476.129      202.156      151.095        0.532        0.041       98.484        9.680        0.010      324.640      -11.613      870.243
12/11/2013  07:12:00     -118.991        9.472      -10.773       21.096       14.102       15.460      445.049      198.867      239.003        0.762        0.044      119.368       11.524        0.009      324.711      -11.500      870.270
12/11/2013  07:13:00     -124.109       -0.329       -8.815       25.298       20.551       17.552      640.008      422.324      308.058        0.843        0.069      124.109       14.639        0.014      324.670      -11.567      870.290
12/11/2013  07:14:00      -96.477        1.940       -2.630       43.686       27.413       23.733     1908.468      751.465      563.271        0.627        0.161       96.497       27.545        0.081      324.656      -11.588      870.313
12/11/2013  07:15:00      -56.047        3.380        2.200       30.853       29.204       20.369      951.906      852.860      414.885        0.269        0.111       56.149       15.832        0.080      324.673      -11.560      870.337
12/11/2013  07:16:00      -89.657       -8.754       -6.118       39.318       20.947       21.150     1545.874      438.777      447.333        0.529        0.122       90.083       18.938        0.044      324.629      -11.633      870.368
12/11/2013  07:17:00      -64.680       -9.690       -4.847       26.142       22.088       16.871      683.426      487.886      284.640        0.288        0.073       65.402       14.179        0.047      324.645      -11.607      870.387
12/11/2013  07:18:00      -55.813      -19.574       -6.424       23.756       15.533       10.264      564.336      241.278      105.351        0.223        0.046       59.146        8.307        0.020      324.683      -11.545      870.399
12/11/2013  07:19:00      -58.024      -16.493       -9.001       11.431       10.247       10.129      130.677      105.001      102.607        0.203        0.017       60.322        4.132        0.005      324.691      -11.532      870.414
12/11/2013  07:20:00      -56.908      -18.167      -10.200       11.826       11.464        7.874      139.844      131.422       61.996        0.200        0.017       59.737        3.534        0.004      324.713      -11.496      870.425
12/11/2013  07:21:00      -54.597      -16.448       -5.479       19.206       12.991       12.752      368.885      168.766      162.608        0.199        0.035       57.020       12.205        0.046      324.717      -11.490      870.434
12/11/2013  07:22:00      -58.273      -18.518      -10.545       10.048        8.655        7.595      100.962       74.904       57.688        0.204        0.012       61.145        4.966        0.007      324.719      -11.489      870.444
12/11/2013  07:23:00      -69.162      -13.612      -10.064       12.360       14.654        9.864      152.778      214.743       97.291        0.277        0.023       70.489        6.003        0.007      324.715      -11.494      870.474
12/11/2013  07:24:00      -76.704      -10.890      -10.746       15.998        9.282        6.583      255.933       86.160       43.335        0.325        0.019       77.474        3.441        0.002      324.680      -11.551      870.493
12/11/2013  07:25:00      -85.938      -10.341      -12.778       11.332       11.251        8.945      128.424      126.587       80.007        0.400        0.017       86.558        5.942        0.005      324.690      -11.533      870.490
12/11/2013  07:26:00      -59.992      -21.324      -11.256       13.393       11.502        8.700      179.379      132.294       75.692        0.228        0.019       63.669        4.892        0.006      324.763      -11.417      870.475
12/11/2013  07:27:00      -48.754      -13.755       -8.967        8.170        8.852        7.979       66.751       78.362       63.661        0.143        0.010       50.658        4.442        0.008      324.825      -11.317      870.455
12/11/2013  07:28:00      -58.538      -21.108      -11.010        9.070       11.017        8.674       82.266      121.368       75.245        0.214        0.014       62.227        5.647        0.008      324.792      -11.369      870.430
12/11/2013  07:29:00      -53.840      -23.906      -11.227        9.135        8.025        8.133       83.453       64.401       66.152        0.191        0.011       58.909        4.192        0.005      324.832      -11.305      870.417
12/11/2013  07:30:00      -53.725      -18.682      -11.124       13.893       10.232        7.231      193.018      104.698       52.280        0.185        0.017       56.881        2.797        0.002      324.890      -11.209      870.406
12/11/2013  07:31:00      -57.437      -15.774      -11.483       11.164       11.454        8.833      124.640      131.197       78.025        0.201        0.017       59.564        4.243        0.005      324.869      -11.244      870.390
12/11/2013  07:32:00      -53.844       -3.550       -7.563       13.466        9.699        9.456      181.343       94.062       89.408        0.167        0.018       53.961        4.533        0.007      324.822      -11.320      870.383
12/11/2013  07:33:00      -58.830        1.011       -7.822        8.968        9.747        8.218       80.421       95.004       67.531        0.188        0.012       58.838        3.413        0.003      324.830      -11.307      870.376
12/11/2013  07:34:00      -63.930       -4.885      -10.130       11.783       12.258       10.122      138.844      150.262      102.453        0.230        0.020       64.117        6.069        0.009      324.860      -11.260      870.364
12/11/2013  07:35:00      -70.090       -2.032      -12.744       14.311        9.642       11.321      204.804       92.974      128.156        0.275        0.021       70.119        6.457        0.008      324.912      -11.176      870.355
12/11/2013  07:36:00      -57.563       -5.722       -6.001       14.709       13.411        9.990      216.349      179.849       99.793        0.194        0.025       57.847        7.842        0.018      324.951      -11.113      870.354
12/11/2013  07:37:00      -71.425       -3.048       -7.144       16.395       10.951       12.089      268.801      119.919      146.154        0.285        0.027       71.490        9.188        0.017      324.924      -11.155      870.353
12/11/2013  07:38:00      -78.948       -1.269       -8.806       11.155        8.480        9.010      124.437       71.911       81.172        0.329        0.014       78.958        5.588        0.005      324.946      -11.120      870.359
12/11/2013  07:39:00      -68.400       -6.432       -7.602       13.698       15.585       10.562      187.648      242.897      111.555        0.266        0.027       68.702        6.969        0.010      325.029      -10.988      870.367
12/11/2013  07:40:00      -53.189       -2.079       -7.498       20.661        8.205        8.363      426.887       67.329       69.933        0.173        0.028       53.229       10.170        0.037      325.022      -10.998      870.370
12/11/2013  07:41:00      -40.665       -3.472       -2.316       19.735       12.423        8.364      389.479      154.339       69.954        0.114        0.031       40.813        8.401        0.042      325.041      -10.967      870.363
12/11/2013  07:42:00      -57.522      -13.478       -5.165       16.351       15.116       10.080      267.348      228.501      101.616        0.206        0.030       59.080        6.760        0.013      325.003      -11.029      870.376
12/11/2013  07:43:00      -55.863       -6.779      -12.943       18.832       13.581       10.789      354.646      184.457      116.402        0.199        0.033       56.273        8.294        0.022      325.002      -11.031      870.416
12/11/2013  07:44:00      -47.853       -6.502      -10.147       15.487       14.449       10.008      239.841      208.774      100.167        0.149        0.027       48.293        5.246        0.012      325.032      -10.982      870.450
12/11/2013  07:45:00      -61.869       -6.728      -13.105       14.549       18.765       11.767      211.665      352.137      138.472        0.237        0.035       62.233        8.002        0.017      324.993      -11.046      870.499
12/11/2013  07:46:00      -49.392       -8.470       -9.691       20.656       14.493       12.255      426.650      210.034      150.186        0.170        0.039       50.113       11.666        0.054      325.022      -11.000      870.533
12/11/2013  07:47:00      -70.766      -11.945       -9.207       25.321       21.338       17.331      641.139      455.310      300.365        0.332        0.070       71.768       15.579        0.047      324.961      -11.096      870.556
12/11/2013  07:48:00      -53.488      -14.491       -9.768       21.604       19.119       13.138      466.728      365.529      172.612        0.209        0.050       55.416       13.836        0.062      324.997      -11.040      870.571
12/11/2013  07:49:00      -43.995      -16.356       -8.871       15.221       13.567       11.712      231.682      184.071      137.163        0.142        0.028       46.937        4.812        0.011      325.066      -10.929      870.580
12/11/2013  07:50:00      -34.475      -10.259       -4.054       11.235        9.261        6.645      126.222       85.769       44.157        0.078        0.013       35.969        2.679        0.006      325.172      -10.757      870.579
12/11/2013  07:51:00      -25.497      -20.517      -10.141       13.524       12.345       10.251      182.899      152.411      105.077        0.081        0.022       32.727        6.009        0.034      325.328      -10.506      870.573
12/11/2013  07:52:00      -17.574      -14.219        1.743        8.347       10.696       10.460       69.680      114.411      109.406        0.040        0.015       22.606        5.803        0.066      325.330      -10.501      870.568
12/11/2013  07:53:00      -19.019       -3.882       -2.064        7.881       16.303        5.727       62.114      265.786       32.802        0.037        0.018       19.411        2.234        0.013      325.459      -10.293      870.565
12/11/2013  07:54:00      -15.150       10.202        9.710       11.426       15.190        9.347      130.551      230.738       87.371        0.044        0.022       18.265        5.716        0.098      325.588      -10.084      870.567
12/11/2013  07:55:00        6.962       15.927       14.662       18.733        8.061       10.354      350.915       64.977      107.200        0.052        0.026       17.382        8.339        0.230      325.827       -9.698      870.574
12/11/2013  07:56:00       40.723       35.504       -3.371       10.488       11.880       13.749      109.989      141.129      189.044        0.169        0.022       54.027        6.464        0.014      325.657       -9.973      870.581
12/11/2013  07:57:00       35.146       38.190        0.773       23.987       17.522       15.929      575.364      307.020      253.721        0.191        0.057       51.901       11.065        0.045      325.804       -9.735      870.579
12/11/2013  07:58:00       28.740       15.609       33.235       34.422       20.167       21.913     1184.897      406.703      480.162        0.212        0.104       32.706       20.229        0.383      325.863       -9.640      870.561
12/11/2013  07:59:00       28.760       28.667       23.290       33.142       31.708       22.613     1098.414     1005.385      511.368        0.240        0.131       40.607       16.722        0.170      325.838       -9.681      870.550
12/11/2013  08:00:00       54.789       53.423       27.878       25.856       31.691       23.672      668.543     1004.310      560.379        0.443        0.112       76.524       22.804        0.089      325.765       -9.798      870.539
12/11/2013  08:01:00       50.773       48.095       36.685       29.511       20.820       26.500      870.909      433.463      702.238        0.412        0.100       69.935       19.007        0.074      325.841       -9.675      870.545
12/11/2013  08:02:00       27.555       37.123       36.152       31.489       26.082       26.129      991.585      680.258      682.700        0.290        0.118       46.232       16.648        0.130      325.980       -9.451      870.550
12/11/2013  08:03:00       48.579       16.500       25.250       36.220       27.377       25.195     1311.872      749.507      634.764        0.298        0.135       51.304       24.325        0.225      325.922       -9.545      870.563
12/11/2013  08:04:00       44.034       10.457       21.948       31.573       35.047       20.309      996.833     1228.263      412.443        0.258        0.132       45.259       21.295        0.221      325.958       -9.487      870.600
12/11/2013  08:05:00       82.250       56.780       36.294       30.252       28.010       25.530      915.204      784.555      651.794        0.683        0.118       99.945       14.405        0.021      325.937       -9.520      870.643
12/11/2013  08:06:00      103.689       68.033       29.722       22.227       13.688       23.497      494.060      187.354      552.101        0.875        0.062      124.015       16.665        0.018      325.787       -9.763      870.672
12/11/2013  08:07:00       14.098       44.430       38.167       37.397       26.612       32.707     1398.509      708.216     1069.775        0.340        0.159       46.613       27.421        0.346      326.055       -9.328      870.694
12/11/2013  08:08:00       39.394       34.821       27.266       26.234       22.667       22.673      688.232      513.771      514.045        0.261        0.086       52.577       15.380        0.086      326.166       -9.149      870.708
12/11/2013  08:09:00       30.193       24.063       24.961       23.373       27.040       17.683      546.301      731.160      312.684        0.185        0.080       38.609       11.643        0.091      326.196       -9.101      870.708
12/11/2013  08:10:00       66.095       44.565       -3.834       23.077       20.168       19.865      532.549      406.728      394.616        0.385        0.067       79.715        5.591        0.005      325.980       -9.451      870.697
12/11/2013  08:11:00       62.922       57.641        2.229       19.693       16.213       17.330      387.801      262.853      300.336        0.412        0.048       85.332       13.301        0.024      325.876       -9.621      870.687
12/11/2013  08:12:00       63.194       48.553       10.389       25.996       21.186       21.100      675.809      448.864      445.204        0.401        0.078       79.693       15.555        0.038      325.995       -9.427      870.695
12/11/2013  08:13:00       38.870       48.353        4.515       28.971       24.743       18.421      839.308      612.240      339.348        0.283        0.090       62.040       12.070        0.038      326.045       -9.346      870.710
12/11/2013  08:14:00       82.718       61.650       -1.620       20.842       30.368       20.338      434.392      922.221      413.619        0.621        0.089      103.165        9.216        0.008      326.034       -9.364      870.720
12/11/2013  08:15:00       80.706       66.277       -3.270       19.127       21.505       17.149      365.858      462.478      294.078        0.602        0.056      104.432       11.384        0.012      326.022       -9.383      870.734
12/11/2013  08:16:00       85.640       58.941        5.499       27.238       21.426       24.637      741.884      459.063      606.987        0.632        0.090      103.963       11.228        0.012      326.056       -9.327      870.746
12/11/2013  08:17:00       83.074       76.335        8.283       27.735       17.336       23.836      769.254      300.523      568.163        0.722        0.082      112.820       13.694        0.015      326.142       -9.188      870.763
12/11/2013  08:18:00      102.685       64.942       -0.814       19.587       17.199       18.831      383.653      295.796      354.616        0.790        0.052      121.498       11.475        0.009      325.949       -9.500      870.760
12/11/2013  08:19:00       93.647       55.822       11.005       23.526       22.544       23.391      553.487      508.215      547.152        0.681        0.080      109.022        8.079        0.005      326.033       -9.365      870.760
12/11/2013  08:20:00       82.102       66.862       19.197       28.520       23.579       20.762      813.370      555.989      431.045        0.669        0.090      105.883       18.297        0.030      326.006       -9.410      870.763
12/11/2013  08:21:00       65.223       62.059        5.026       18.269       14.959       23.377      333.752      223.773      546.501        0.462        0.055       90.030        9.919        0.012      325.975       -9.458      870.774
12/11/2013  08:22:00       69.885       53.554        4.642       12.040       14.351       14.641      144.959      205.965      214.348        0.417        0.028       88.045        9.290        0.011      325.967       -9.472      870.788
12/11/2013  08:23:00       57.227       44.103       -7.063       18.644       15.275       19.317      347.589      233.325      373.147        0.311        0.048       72.250       10.112        0.020      326.115       -9.233      870.816
12/11/2013  08:24:00       47.936       56.584       11.410       27.537       29.709       30.707      758.282      882.608      942.925        0.411        0.129       74.160       25.406        0.117      326.279       -8.967      870.838
12/11/2013  08:25:00       63.766       37.813       16.214       31.322       19.669       21.019      981.071      386.882      441.788        0.378        0.090       74.135       14.183        0.037      326.283       -8.960      870.859
12/11/2013  08:26:00       16.217       32.833       30.044       24.611       25.120       20.279      605.699      631.010      411.218        0.195        0.082       36.619       16.820        0.211      326.474       -8.651      870.863
12/11/2013  08:27:00       17.729       32.588       15.974       30.035       25.931       21.082      902.122      672.432      444.463        0.182        0.101       37.098       13.789        0.138      326.458       -8.679      870.853
12/11/2013  08:28:00       40.961       54.869        3.587       26.331       24.730       24.282      693.322      611.549      589.625        0.330        0.095       68.472       19.235        0.079      326.276       -8.972      870.848
12/11/2013  08:29:00       33.331       58.305       -0.061       28.883       27.037       25.555      834.210      730.999      653.046        0.336        0.111       67.160       21.799        0.105      326.339       -8.870      870.845
12/11/2013  08:30:00       35.500       57.930        6.056       24.105       24.803       20.854      581.064      615.186      434.893        0.314        0.082       67.942       15.598        0.053      326.351       -8.850      870.862
12/11/2013  08:31:00       42.755       55.531       -7.632       23.773       24.034       20.509      565.163      577.642      420.617        0.327        0.078       70.083       16.867        0.058      326.365       -8.827      870.881
12/11/2013  08:32:00       52.949       42.134       -3.032       15.076       16.179       22.555      227.279      261.748      508.738        0.279        0.050       67.667        9.059        0.018      326.253       -9.009      870.904
12/11/2013  08:33:00       11.682        6.995        2.353       33.495       34.212       18.210     1121.913     1170.454      331.607        0.141        0.131       13.616       15.377        1.275      326.592       -8.460      870.929
12/11/2013  08:34:00       -1.382        6.318       38.683       17.323       20.354       15.762      300.075      414.282      248.443        0.125        0.048        6.468       13.695        4.484      326.858       -8.028      870.946
12/11/2013  08:35:00        9.914       18.648       21.885       17.737       23.796       19.589      314.597      566.268      383.748        0.109        0.063       21.120       11.493        0.296      326.910       -7.945      870.953
12/11/2013  08:36:00        4.488       17.035       25.048       25.293       23.731       25.632      639.760      563.146      656.976        0.140        0.093       17.617       18.871        1.147      326.888       -7.979      870.971
12/11/2013  08:37:00       -3.879       21.507       35.987       17.756       25.938       21.369      315.267      672.756      456.639        0.161        0.072       21.854       15.753        0.520      326.928       -7.915      870.974
12/11/2013  08:38:00       45.128       24.313       11.916       49.116       29.989       40.058     2412.344      899.351     1604.606        0.384        0.246       51.261       34.755        0.460      326.520       -8.577      870.987
12/11/2013  08:39:00        8.741       35.522       32.103       22.460       20.899       23.745      504.464      436.775      563.812        0.194        0.075       36.582       13.578        0.138      326.831       -8.073      870.996
12/11/2013  08:40:00       39.953       52.620       68.147       30.559       22.753       12.301      933.867      517.712      151.307        0.531        0.080       66.069        6.113        0.009      326.620       -8.413      871.009
12/11/2013  08:41:00       95.167       68.807       23.665       27.400       24.169       30.486      750.785      584.145      929.406        0.831        0.113      117.436       11.812        0.010      326.362       -8.832      871.035
12/11/2013  08:42:00       19.347       44.704       41.102       38.182       52.247       35.975     1457.840     2729.772     1294.174        0.477        0.274       48.711       27.702        0.323      326.609       -8.433      871.064
12/11/2013  08:43:00       23.571       61.264       64.836       50.053       41.824       26.684     2505.294     1749.261      712.010        0.674        0.248       65.641       19.235        0.086      326.821       -8.087      871.092
12/11/2013  08:44:00       80.381       75.576       50.042       29.722       28.642       38.685      883.381      820.351     1496.549        0.894        0.160      110.331       25.329        0.053      326.483       -8.637      871.119
12/11/2013  08:45:00       78.775       75.494       22.561       23.884       25.268       29.141      570.428      638.481      849.170        0.724        0.103      109.109        9.870        0.008      326.515       -8.585      871.144
12/11/2013  08:46:00       35.673       45.496       49.885       26.752       31.353       18.906      715.695      983.031      357.430        0.394        0.103       57.814       10.565        0.033      326.932       -7.907      871.153
12/11/2013  08:47:00       28.497       43.338       59.659       25.012       30.174       18.826      625.588      910.462      354.425        0.407        0.095       51.868       19.586        0.143      326.908       -7.948      871.150
12/11/2013  08:48:00       48.143       41.097       36.688       50.183       38.062       36.709     2518.327     1448.730     1347.574        0.533        0.266       63.299       33.592        0.282      326.882       -7.989      871.145
12/11/2013  08:49:00       -9.309       63.941       90.656       20.820       41.057       24.984      433.473     1685.714      624.177        0.757        0.137       64.615       28.323        0.192      326.987       -7.819      871.130
12/11/2013  08:50:00       36.579       55.483       65.742       47.747       46.001       39.405     2279.761     2116.136     1552.744        0.734        0.297       66.455       41.852        0.397      326.859       -8.027      871.126
12/11/2013  08:51:00       32.972       47.793       54.253       45.044       49.230       24.852     2028.987     2423.620      617.632        0.569        0.254       58.063       19.571        0.114      326.831       -8.072      871.141
12/11/2013  08:52:00       -3.556       32.559       64.397       22.589       34.358       18.117      510.244     1180.506      328.222        0.362        0.101       32.753       13.859        0.179      327.232       -7.422      871.178
12/11/2013  08:53:00        1.458       11.839       56.740       20.431       31.069       19.499      417.409      965.254      380.195        0.256        0.088       11.928       11.330        0.902      327.342       -7.243      871.220
12/11/2013  08:54:00       55.819       88.986       85.098       34.889       31.768       23.937     1217.249     1009.219      572.973        1.054        0.140      105.045       13.908        0.018      326.778       -8.158      871.245
12/11/2013  08:55:00       19.236       50.815       65.275       37.926       34.943       25.766     1438.393     1221.039      663.901        0.527        0.166       54.334       20.979        0.149      326.913       -7.939      871.262
12/11/2013  08:56:00       77.914       93.421       65.874       55.923       42.674       44.924     3127.394     1821.048     2018.133        1.305        0.348      121.647       38.184        0.099      326.820       -8.092      871.277
12/11/2013  08:57:00        1.825       52.646       66.807       34.201       40.136       39.813     1169.693     1610.873     1585.060        0.580        0.218       52.677       32.521        0.381      327.152       -7.552      871.286
12/11/2013  08:58:00       66.649      106.160       84.246       35.416       26.789       34.562     1254.312      717.635     1194.555        1.299        0.158      125.348       29.451        0.055      326.768       -8.175      871.272
12/11/2013  08:59:00       64.291       96.797       76.970       38.850       34.225       43.867     1509.333     1171.333     1924.342        1.202        0.230      116.203       34.467        0.088      326.808       -8.109      871.256
12/11/2013  09:00:00       24.379       79.438       66.092       35.851       51.953       38.058     1285.286     2699.124     1448.442        0.835        0.272       83.095       18.170        0.048      326.983       -7.825      871.260
12/11/2013  09:01:00       23.824       65.947       95.761       40.982       38.405       23.556     1679.543     1474.938      554.893        0.890        0.185       70.118       22.926        0.107      327.181       -7.506      871.277
12/11/2013  09:02:00       73.684       77.820       83.742       43.115       43.058       31.709     1858.861     1854.030     1005.476        1.161        0.236      107.170       28.063        0.069      326.893       -7.971      871.299
12/11/2013  09:03:00       64.621       81.891       63.177       50.308       51.577       50.177     2530.900     2660.237     2517.751        1.129        0.385      104.317       33.690        0.104      326.966       -7.854      871.317
12/11/2013  09:04:00      122.121       47.631       39.593       36.424       47.652       29.949     1326.732     2270.673      896.917        1.162        0.225      131.081       27.546        0.044      326.757       -8.192      871.322
12/11/2013  09:05:00       15.853       52.167       66.680       32.671       33.830       25.418     1067.392     1144.454      646.066        0.514        0.143       54.523       21.373        0.154      327.214       -7.450      871.334
12/11/2013  09:06:00       39.001       44.364       68.502       40.189       27.414       25.363     1615.167      751.544      643.297        0.560        0.151       59.070       14.614        0.061      327.166       -7.528      871.331
12/11/2013  09:07:00       98.848       76.560       51.635       45.304       28.091       32.265     2052.409      789.092     1041.029        1.109        0.194      125.030       24.808        0.039      326.911       -7.943      871.319
12/11/2013  09:08:00       79.518       53.336       37.714       41.747       36.432       29.999     1742.807     1327.278      899.950        0.728        0.199       95.749       12.889        0.018      327.177       -7.511      871.323
12/11/2013  09:09:00       36.998       27.602        7.173       39.684       26.614       26.004     1574.845      708.281      676.190        0.257        0.148       46.160        5.463        0.014      327.438       -7.085      871.341
12/11/2013  09:10:00       59.577       68.892       52.200       48.011       33.608       26.119     2305.095     1129.525      682.210        0.757        0.206       91.080       26.732        0.086      327.466       -7.041      871.363
12/11/2013  09:11:00       15.415       57.775       70.438       52.439       42.623       37.181     2749.824     1816.719     1382.402        0.724        0.297       59.796       32.358        0.293      327.519       -6.956      871.375
12/11/2013  09:12:00       68.563       59.871       45.873       49.709       35.127       38.356     2470.978     1233.907     1471.182        0.778        0.259       91.025       35.124        0.149      327.311       -7.293      871.387
12/11/2013  09:13:00       -7.004       64.869       84.141       26.660       36.845       25.323      710.730     1357.528      641.252        0.702        0.135       65.246       22.130        0.115      327.516       -6.961      871.405
12/11/2013  09:14:00       13.465       29.308       69.019       22.911       34.588       19.100      524.914     1196.326      364.818        0.394        0.104       32.253       18.922        0.344      327.651       -6.741      871.406
12/11/2013  09:15:00       71.035       17.056       37.915       61.170       40.489       36.183     3741.742     1639.390     1309.201        0.673        0.335       73.054       41.544        0.323      327.272       -7.356      871.398
12/11/2013  09:16:00       95.305       49.553       70.929       68.461       57.037       51.053     4686.844     3253.248     2606.379        1.356        0.527      107.418       53.340        0.247      327.135       -7.579      871.391
12/11/2013  09:17:00       60.055       48.865       43.772       50.882       46.195       37.124     2588.985     2134.018     1378.224        0.700        0.305       77.424       35.128        0.206      327.286       -7.333      871.387
12/11/2013  09:18:00       54.308       64.962       60.944       51.568       42.408       42.603     2659.292     1798.416     1814.974        0.858        0.314       84.673       38.053        0.202      327.283       -7.338      871.402
12/11/2013  09:19:00       17.646       30.189       40.176       29.406       36.847       30.300      864.694     1357.732      918.075        0.299        0.157       34.968       18.239        0.272      327.403       -7.144      871.414
12/11/2013  09:20:00       35.803       52.664       52.845       31.605       48.284       28.345      998.882     2331.354      803.434        0.549        0.207       63.681       25.002        0.154      327.251       -7.393      871.417
12/11/2013  09:21:00       33.276      -26.730       30.392       35.577       34.577       29.734     1265.692     1195.586      884.089        0.304        0.167       42.682       19.879        0.217      327.611       -6.805      871.419
12/11/2013  09:22:00       44.763       28.487       20.288       38.839       25.681       29.508     1508.450      659.506      870.703        0.313        0.152       53.059       20.178        0.145      327.520       -6.953      871.415
12/11/2013  09:23:00       20.344      -41.969       16.623       31.948       64.056       29.464     1020.695     4103.200      868.154        0.422        0.300       46.640       28.202        0.366      327.793       -6.511      871.399
12/11/2013  09:24:00       34.041      -30.983       30.732       30.231       56.223       37.107      913.943     3161.061     1376.893        0.426        0.273       46.029       36.756        0.638      327.657       -6.730      871.396
12/11/2013  09:25:00       -8.540       28.857       69.472       21.095       31.954       20.953      445.007     1021.046      439.017        0.382        0.095       30.094       17.273        0.329      328.025       -6.132      871.398
12/11/2013  09:26:00       18.915        5.669       47.836       34.744       30.735       26.998     1207.123      944.629      728.914        0.278        0.144       19.746       18.202        0.850      327.981       -6.203      871.415
12/11/2013  09:27:00       11.366      -13.666       37.660       27.912       52.620       34.904      779.088     2768.820     1218.289        0.325        0.238       17.774       36.046        4.113      327.955       -6.246      871.425
12/11/2013  09:28:00       27.443       59.985       68.002       36.481       43.886       28.538     1330.899     1926.007      814.439        0.652        0.204       65.965       22.267        0.114      327.532       -6.934      871.431
12/11/2013  09:29:00       54.263       77.567       58.703       60.644       38.608       38.137     3677.708     1490.590     1454.458        0.951        0.331       94.664       36.221        0.146      327.489       -7.005      871.433
12/11/2013  09:30:00      109.556       80.273       37.552       42.858       46.123       32.982     1836.782     2127.336     1087.812        1.245        0.253      135.817       21.783        0.026      327.309       -7.296      871.427
12/11/2013  09:31:00       40.776       30.444       59.914       40.743       62.244       34.959     1659.964     3874.259     1222.160        0.647        0.338       50.887       35.845        0.496      327.642       -6.754      871.427
12/11/2013  09:32:00       63.696       64.380       59.532       47.688       49.006       54.693     2274.139     2401.541     2991.376        0.971        0.383       90.565       39.007        0.186      327.452       -7.065      871.431
12/11/2013  09:33:00       91.378       80.850       45.330       28.764       24.292       34.665      827.360      590.107     1201.630        0.978        0.131      122.010       17.137        0.020      327.326       -7.269      871.436
12/11/2013  09:34:00       78.580       65.327       37.876       37.422       28.098       34.530     1400.403      789.481     1192.349        0.763        0.169      102.188       14.803        0.021      327.605       -6.816      871.442
12/11/2013  09:35:00       18.488       67.632       87.123       38.666       40.519       31.443     1495.039     1641.751      988.651        0.832        0.206       70.113       31.860        0.206      327.613       -6.802      871.452
12/11/2013  09:36:00        2.564       49.536       77.450       23.550       37.246       16.322      554.626     1387.251      266.393        0.533        0.110       49.602       18.599        0.141      327.793       -6.510      871.463
12/11/2013  09:37:00       39.165       46.381       39.217       54.001       49.327       29.815     2916.131     2433.131      888.956        0.573        0.312       60.705       26.227        0.187      327.877       -6.374      871.459
12/11/2013  09:38:00       12.730       30.715       66.473       41.188       48.233       32.025     1696.432     2326.446     1025.595        0.529        0.252       33.248       31.948        0.923      328.076       -6.049      871.465
12/11/2013  09:39:00       28.247       47.486       42.598       43.130       37.106       36.322     1860.188     1376.867     1319.272        0.471        0.228       55.252       24.689        0.200      328.041       -6.106      871.465
12/11/2013  09:40:00       10.004       -3.109       64.247       34.778       95.604       47.837     1209.497     9140.142     2288.400        0.844        0.632       10.476       59.457       32.213      328.116       -5.983      871.463
12/11/2013  09:41:00        7.135       34.360       67.914       29.257       31.783       22.557      855.985     1010.142      508.815        0.411        0.119       35.093       17.631        0.252      328.036       -6.113      871.463
12/11/2013  09:42:00       40.041      -24.592       35.219       37.938       45.295       33.704     1439.324     2051.653     1135.932        0.404        0.231       46.990       26.751        0.324      327.988       -6.191      871.457
12/11/2013  09:43:00       25.249       39.587       56.947       43.064       44.289       33.247     1854.522     1961.544     1105.357        0.518        0.246       46.954       34.189        0.530      327.964       -6.232      871.452
12/11/2013  09:44:00       20.517       19.306       57.360       28.747       72.627       39.236      826.404     5274.693     1539.497        0.586        0.382       28.172       45.505        2.609      327.877       -6.373      871.434
12/11/2013  09:45:00       22.595       46.701       68.226       41.213       50.887       22.037     1698.470     2589.531      485.649        0.606        0.239       51.880       28.718        0.306      327.883       -6.364      871.434
12/11/2013  09:46:00       46.202      -11.135       24.435       37.579       71.732       35.831     1412.177     5145.491     1283.831        0.535        0.392       47.524       43.094        0.822      327.757       -6.568      871.429
12/11/2013  09:47:00       40.740       66.683       48.954       67.600       45.538       56.326     4569.783     2073.677     3172.664        0.916        0.491       78.143       43.581        0.311      327.930       -6.287      871.417
12/11/2013  09:48:00       -2.206       48.079       71.387       27.957       44.451       36.902      781.566     1975.924     1361.767        0.577        0.206       48.129       27.369        0.323      328.104       -6.003      871.417
12/11/2013  09:49:00        0.305       76.795       90.104       26.794       40.388       32.732      717.899     1631.194     1071.406        0.872        0.171       76.796       27.464        0.128      327.856       -6.406      871.410
12/11/2013  09:50:00      131.573       87.939       22.774       80.252       64.456       56.479     6440.429     4154.547     3189.868        1.967        0.689      158.255       39.152        0.061      327.622       -6.789      871.406
12/11/2013  09:51:00      156.361       98.005       14.416       48.997       47.849       42.883     2400.736     2289.530     1838.963        2.039        0.326      184.537       28.912        0.025      327.598       -6.828      871.406
12/11/2013  09:52:00      180.359      100.865       17.563       52.947       56.549       50.033     2803.405     3197.745     2503.277        2.576        0.425      206.647       31.282        0.023      327.317       -7.287      871.412
12/11/2013  09:53:00      173.769      113.700       23.479       47.785       45.659       49.300     2283.373     2084.745     2430.523        2.524        0.340      207.662       19.958        0.009      327.495       -6.997      871.419
12/11/2013  09:54:00      142.737       91.111        8.840       58.583       48.000       36.318     3432.014     2303.972     1318.984        1.790        0.353      169.337       22.343        0.017      327.518       -6.958      871.419
12/11/2013  09:55:00      108.239       77.090       30.495       91.341       68.240       44.218     8343.110     4656.693     1955.271        1.677        0.748      132.886       47.499        0.128      327.727       -6.619      871.417
12/11/2013  09:56:00       27.973       79.257      104.073       53.748       58.250       41.165     2888.847     3393.090     1694.532        1.293        0.399       84.048       35.507        0.178      327.729       -6.613      871.423
12/11/2013  09:57:00      119.614       76.959       36.108       53.112       45.132       36.059     2820.846     2036.855     1300.269        1.384        0.308      142.233       22.226        0.024      327.649       -6.745      871.420
12/11/2013  09:58:00      100.548       57.323       48.829       75.348       50.345       46.623     5677.313     2534.637     2173.682        1.308        0.519      115.741       31.381        0.074      327.776       -6.538      871.423
12/11/2013  09:59:00      146.426      108.007       51.593       76.126       43.219       55.716     5795.165     1867.899     3104.258        2.327        0.538      181.951       54.852        0.091      327.584       -6.852      871.426
12/11/2013  10:00:00      146.496      102.361       -3.336       30.779       32.769       34.763      947.365     1073.801     1208.468        1.759        0.161      178.715       13.105        0.005      327.447       -7.071      871.420
12/11/2013  10:01:00      101.844       87.168        8.561       52.154       44.581       45.394     2720.008     1987.445     2060.573        1.240        0.338      134.054       36.614        0.075      327.818       -6.469      871.414
12/11/2013  10:02:00       77.752       76.057       52.798       60.499       58.140       61.797     3660.082     3380.259     3818.895        1.274        0.543      108.766       35.662        0.108      328.013       -6.151      871.401
12/11/2013  10:03:00       40.979       88.795       56.244       51.135       36.332       55.988     2614.755     1319.981     3134.668        0.990        0.353       97.795       42.143        0.186      327.761       -6.562      871.394
12/11/2013  10:04:00      113.448       82.932       38.455       54.110       33.217       48.671     2927.884     1103.349     2368.876        1.381        0.320      140.528       35.376        0.063      327.713       -6.642      871.388
12/11/2013  10:05:00       73.922       93.479       59.953       51.426       60.710       67.214     2644.673     3685.699     4517.706        1.432        0.542      119.175       47.380        0.158      327.866       -6.392      871.371
12/11/2013  10:06:00       32.231      108.958      109.095       50.669       43.755       36.401     2567.313     1914.523     1325.014        1.531        0.290      113.625       33.074        0.085      327.718       -6.631      871.367
12/11/2013  10:07:00       76.647      111.072      104.535       52.473       42.365       28.526     2753.368     1794.789      813.728        1.725        0.268      134.951       27.153        0.040      327.654       -6.737      871.374
12/11/2013  10:08:00       91.233       97.186       46.815       48.565       30.741       45.192     2358.575      945.036     2042.318        1.265        0.267      133.299       19.637        0.022      327.809       -6.485      871.374
12/11/2013  10:09:00       30.157       45.193       79.176       47.147       44.374       28.431     2222.883     1969.061      808.302        0.711        0.250       54.331       26.758        0.243      328.239       -5.783      871.378
12/11/2013  10:10:00       71.518       83.452       66.655       83.349       56.013       58.655     6946.981     3137.473     3440.392        1.502        0.676      109.905       61.106        0.309      327.977       -6.211      871.369
12/11/2013  10:11:00       31.820       60.086       65.095       56.118       45.655       53.493     3149.202     2084.372     2861.473        0.848        0.405       67.992       38.602        0.322      328.124       -5.971      871.372
12/11/2013  10:12:00       65.928      112.657      103.904       62.857       46.507       44.987     3950.964     2162.861     2023.873        1.798        0.407      130.530       32.742        0.063      327.989       -6.191      871.377
12/11/2013  10:13:00      127.293       84.232       27.394       56.406       48.948       51.670     3181.610     2395.890     2669.821        1.615        0.412      152.639       34.422        0.051      327.838       -6.436      871.374
12/11/2013  10:14:00       73.922       55.289       22.816       64.547       59.099       36.348     4166.282     3492.656     1321.153        0.901        0.449       92.311       33.540        0.132      328.183       -5.875      871.384
12/11/2013  10:15:00       38.761       61.150       34.862       71.055       56.913       42.195     5048.769     3239.111     1780.385        0.826        0.503       72.400       25.676        0.126      328.425       -5.481      871.383
12/11/2013  10:16:00       47.098       55.609       62.580       55.299       64.819       48.007     3057.958     4201.522     2304.696        0.939        0.478       72.874       28.644        0.154      328.288       -5.702      871.404
12/11/2013  10:17:00        6.465       21.679       72.060       34.160       57.449       31.939     1166.930     3300.354     1020.129        0.559        0.274       22.623       27.621        1.491      328.392       -5.534      871.400
12/11/2013  10:18:00       51.167       53.821       50.857       58.666       58.989       55.403     3441.656     3479.752     3069.502        0.904        0.500       74.262       40.331        0.295      328.099       -6.013      871.416
12/11/2013  10:19:00      112.188       72.830       14.214       50.714       40.101       47.016     2571.900     1608.078     2210.523        1.224        0.320      133.755       35.074        0.069      327.861       -6.399      871.406
12/11/2013  10:20:00       96.039       66.229       10.254       38.241       30.430       33.756     1462.355      926.004     1139.494        0.862        0.176      116.661        9.743        0.007      327.866       -6.391      871.409
12/11/2013  10:21:00       93.773       74.182       31.689       35.078       30.931       40.901     1230.469      956.749     1672.912        0.958        0.193      119.568       25.296        0.045      327.981       -6.204      871.399
12/11/2013  10:22:00      105.053       82.210       10.652       23.224       21.530       32.851      539.358      463.553     1079.202        0.999        0.104      133.396        6.939        0.003      327.919       -6.303      871.384
12/11/2013  10:23:00       77.254       67.744       -6.895       24.048       20.598       25.968      578.312      424.291      674.319        0.614        0.084      102.749       13.460        0.017      327.785       -6.522      871.383
12/11/2013  10:24:00       -7.903       41.509       -5.106       29.476       45.766       16.291      868.852     2094.520      265.400        0.252        0.161       42.255       10.011        0.056      328.132       -5.959      871.365
12/11/2013  10:25:00        0.097      -43.658       29.141       26.665       40.773       29.287      711.035     1662.474      857.757        0.299        0.162       43.658       23.022        0.278      328.595       -5.202      871.358
12/11/2013  10:26:00       49.554       47.847        5.894       36.033       32.027       33.523     1298.408     1025.752     1123.814        0.411        0.172       68.884       26.360        0.146      328.271       -5.731      871.342
12/11/2013  10:27:00      147.340       83.062        9.687       44.133       32.507       32.083     1947.742     1056.689     1029.342        1.637        0.202      169.140       17.142        0.010      327.916       -6.310      871.327
12/11/2013  10:28:00      110.473       62.150       17.413       60.841       51.065       37.822     3701.575     2607.668     1430.468        1.205        0.387      126.755       16.244        0.016      328.071       -6.058      871.316
12/11/2013  10:29:00       63.013       55.423       43.242       39.991       31.620       41.936     1599.265      999.837     1758.637        0.663        0.218       83.919       25.977        0.096      328.324       -5.644      871.315
12/11/2013  10:30:00       31.808       41.913        6.576       29.686       40.952       32.511      881.279     1677.055     1056.952        0.321        0.181       52.616       27.424        0.272      328.494       -5.368      871.301
12/11/2013  10:31:00       23.986       50.018       60.353       35.232       39.329       34.853     1241.302     1546.754     1214.723        0.536        0.200       55.472       27.122        0.239      328.729       -4.984      871.304
12/11/2013  10:32:00       58.446       75.739       49.462       66.730       39.774       45.223     4452.848     1581.980     2045.107        0.984        0.404       95.668       37.480        0.153      328.502       -5.355      871.295
12/11/2013  10:33:00       53.327       60.962       13.717       41.486       31.337       25.696     1721.116      982.031      660.267        0.506        0.168       80.995       10.012        0.015      328.287       -5.705      871.285
12/11/2013  10:34:00       15.999       51.499       66.375       67.605       46.776       42.204     4570.482     2187.949     1781.172        0.792        0.427       53.926       36.257        0.452      328.638       -5.131      871.257
12/11/2013  10:35:00      108.485       87.562       21.175       81.003       51.972       35.303     6561.562     2701.125     1246.323        1.519        0.525      139.414       37.365        0.072      328.300       -5.686      871.246
12/11/2013  10:36:00       24.778      -13.357       59.701       36.463       47.563       32.151     1329.544     2262.253     1033.689        0.449        0.231       28.149       25.152        0.798      328.676       -5.072      871.232
12/11/2013  10:37:00       12.213       18.994       52.004       26.165       31.471       20.516      684.582      990.442      420.899        0.265        0.105       22.582       20.905        0.857      328.720       -5.000      871.214
12/11/2013  10:38:00       49.336        2.676       25.939       55.737       66.101       35.491     3106.595     4369.366     1259.639        0.592        0.437       49.408       36.588        0.548      328.660       -5.097      871.199
12/11/2013  10:39:00       46.312      -52.698       -5.115       32.786       38.425       24.415     1074.939     1476.477      596.098        0.405        0.157       70.156       23.610        0.113      328.563       -5.254      871.172
12/11/2013  10:40:00      -10.241        3.165       34.819       17.145       52.411       30.183      293.955     2746.890      911.023        0.264        0.198       10.719       28.037        6.842      328.970       -4.590      871.154
12/11/2013  10:41:00      -13.361      -11.504       25.097       19.059       39.833       29.023      363.236     1586.670      842.334        0.187        0.140       17.631       11.789        0.447      329.107       -4.367      871.147
12/11/2013  10:42:00       28.636       46.701       59.350       49.176       48.580       31.162     2418.263     2360.017      971.080        0.614        0.287       54.782       17.385        0.101      328.969       -4.593      871.128
12/11/2013  10:43:00       10.049       25.458       62.063       38.826       33.326       24.936     1507.488     1110.655      621.816        0.392        0.162       27.369       21.818        0.635      328.773       -4.913      871.113
12/11/2013  10:44:00       33.044       -0.488       44.570       35.792       29.393       34.669     1281.064      863.937     1201.956        0.321        0.167       33.048       24.466        0.548      328.862       -4.767      871.095
12/11/2013  10:45:00        3.438       29.184       27.055       32.492       34.402       32.835     1055.758     1183.522     1078.131        0.246        0.166       29.386       18.866        0.412      329.116       -4.352      871.076
12/11/2013  10:46:00       61.213       49.227       47.661       53.683       40.876       31.219     2881.862     1670.868      974.605        0.698        0.276       78.552       23.390        0.089      328.850       -4.786      871.077
12/11/2013  10:47:00      102.637       82.890       15.152       48.261       34.521       33.685     2329.114     1191.724     1134.664        1.114        0.233      131.929       30.349        0.053      328.276       -5.723      871.087
12/11/2013  10:48:00       52.125       38.175       29.476       31.287       39.590       23.507      978.869     1567.347      552.581        0.407        0.155       64.610       13.799        0.046      328.549       -5.278      871.102
12/11/2013  10:49:00       38.848       89.023       84.038       49.271       39.652       40.637     2427.661     1572.292     1651.363        1.107        0.283       97.130       36.074        0.138      328.679       -5.065      871.102
12/11/2013  10:50:00       98.156       77.744       41.182       35.186       28.389       31.823     1238.035      805.911     1012.710        1.022        0.153      125.215       21.260        0.029      328.437       -5.461      871.099
12/11/2013  10:51:00       36.657       56.595       55.236       44.240       41.128       36.394     1957.134     1691.501     1324.510        0.628        0.249       67.429       28.576        0.180      328.762       -4.929      871.096
12/11/2013  10:52:00      123.167       94.382       26.293       57.857       38.703       53.290     3347.488     1497.933     2839.815        1.623        0.384      155.171       32.239        0.043      328.434       -5.466      871.090
12/11/2013  10:53:00      130.279       81.665        2.882       47.724       38.978       32.159     2277.559     1519.305     1034.190        1.424        0.242      153.759       25.917        0.028      328.279       -5.718      871.079
12/11/2013  10:54:00       85.452       75.947       -5.479       40.765       22.218       21.805     1661.806      493.660      475.452        0.786        0.132      114.324       16.024        0.020      328.293       -5.696      871.066
12/11/2013  10:55:00        7.265       33.812       14.955       40.570       24.437       22.210     1645.959      597.151      493.271        0.208        0.137       34.583       22.009        0.405      328.671       -5.079      871.052
12/11/2013  10:56:00       15.848       38.392       63.023       36.204       45.799       36.022     1310.758     2097.567     1297.591        0.520        0.235       41.534       37.481        0.814      329.075       -4.420      871.039
12/11/2013  10:57:00       75.456       56.831       14.392       25.920       28.035       29.078      671.855      785.988      845.547        0.572        0.115       94.463       17.722        0.035      328.628       -5.150      871.026
12/11/2013  10:58:00       66.216       91.717       76.639       57.418       42.438       42.952     3296.787     1800.974     1844.866        1.280        0.347      113.122       30.545        0.073      328.817       -4.842      870.994
12/11/2013  10:59:00       56.442      126.172      121.238       57.792       49.775       46.708     3339.953     2477.509     2181.652        2.090        0.400      138.221       39.276        0.081      328.590       -5.212      870.974
12/11/2013  11:00:00       87.545       96.000       90.469       56.026       37.049       37.055     3138.957     1372.602     1373.075        1.547        0.294      129.923       30.281        0.054      328.550       -5.276      870.973
12/11/2013  11:01:00       50.024       75.666       82.493       54.721       51.342       26.161     2994.395     2636.029      684.396        1.067        0.316       90.707       29.199        0.104      328.654       -5.107      870.965
12/11/2013  11:02:00       50.916       89.779        3.991       51.021       41.291       42.135     2603.107     1704.939     1775.334        0.837        0.304      103.212       29.090        0.079      328.706       -5.022      870.952
12/11/2013  11:03:00       59.967       37.316       44.880       60.049       66.993       52.920     3605.838     4488.033     2800.487        0.895        0.545       70.629       51.287        0.527      328.939       -4.643      870.933
12/11/2013  11:04:00       99.923       94.713       95.562       64.847       44.433       46.712     4205.145     1974.262     2182.015        1.822        0.418      137.678       39.789        0.084      328.640       -5.130      870.926
12/11/2013  11:05:00      102.063      115.433       71.824       62.303       46.966       49.658     3881.658     2205.788     2465.948        1.873        0.428      154.083       43.441        0.079      328.688       -5.053      870.917
12/11/2013  11:06:00      104.784      121.949       97.505       63.369       26.175       29.541     4015.600      685.108      872.679        2.046        0.279      160.783       33.445        0.043      328.580       -5.227      870.898
12/11/2013  11:07:00       38.712       74.241       91.378       56.027       49.099       33.575     3138.999     2410.687     1127.297        1.102        0.334       83.728       29.373        0.123      328.802       -4.865      870.891
12/11/2013  11:08:00       11.112       70.804       82.730       38.034       44.391       24.340     1446.562     1970.570      592.422        0.799        0.200       71.671       22.437        0.098      328.964       -4.601      870.871
12/11/2013  11:09:00       30.064       39.851       65.703       36.434       23.388       18.366     1327.458      547.004      337.311        0.451        0.111       49.919       15.297        0.094      328.995       -4.550      870.850
12/11/2013  11:10:00       70.142      113.471       95.243       64.746       44.978       38.830     4192.092     2023.063     1507.771        1.729        0.386      133.400       37.765        0.080      328.846       -4.793      870.829
12/11/2013  11:11:00       62.619       71.412       74.349       51.262       38.504       34.625     2627.749     1482.543     1198.922        0.993        0.265       94.978       21.731        0.052      328.878       -4.741      870.823
12/11/2013  11:12:00       54.883       75.291       76.492       44.542       68.424       42.545     1984.023     4681.881     1810.092        1.150        0.424       93.171       33.750        0.131      328.985       -4.568      870.813
12/11/2013  11:13:00       71.770       69.246       52.920       53.214       27.731       29.719     2831.782      768.998      883.206        0.861        0.224       99.730       32.872        0.109      328.990       -4.558      870.797
12/11/2013  11:14:00       81.154       78.237       21.708       63.397       45.011       44.542     4019.202     2025.974     1983.982        1.060        0.401      112.725       30.279        0.072      329.024       -4.504      870.792
12/11/2013  11:15:00       65.076       64.673       56.770       60.295       44.856       44.608     3635.511     2012.101     1989.887        0.964        0.382       91.747       40.455        0.194      328.995       -4.550      870.787
12/11/2013  11:16:00       48.568       46.415       23.023       60.031       43.133       28.446     3603.771     1860.478      809.147        0.566        0.314       67.181       17.446        0.067      328.927       -4.660      870.793
12/11/2013  11:17:00       55.594       43.364       58.544       46.336       85.027       55.034     2147.031     7229.617     3028.743        1.040        0.620       70.506       61.889        0.770      329.025       -4.502      870.769
12/11/2013  11:18:00      102.824      115.558       86.495       51.389       51.183       50.541     2640.858     2619.687     2554.350        1.961        0.391      154.681       30.748        0.040      329.033       -4.489      870.757
12/11/2013  11:19:00       76.804      105.526      115.844       63.652       63.840       51.905     4051.618     4075.488     2694.080        2.064        0.541      130.517       53.957        0.171      328.899       -4.708      870.734
12/11/2013  11:20:00       70.413       26.732       43.387       55.502       51.889       36.199     3080.519     2692.495     1310.339        0.732        0.354       75.317       28.631        0.145      329.108       -4.367      870.726
12/11/2013  11:21:00       98.709       77.567       54.388       73.743       51.586       56.513     5437.974     2661.143     3193.748        1.500        0.565      125.539       49.216        0.154      329.012       -4.523      870.706
12/11/2013  11:22:00       90.223       83.708       57.274       52.171       32.463       36.929     2721.791     1053.816     1363.736        1.178        0.257      123.074       27.851        0.051      328.913       -4.685      870.703
12/11/2013  11:23:00       63.377       69.718       64.732       46.700       38.750       38.093     2180.928     1501.533     1451.051        0.910        0.257       94.219       17.066        0.033      329.107       -4.367      870.677
12/11/2013  11:24:00       77.039       67.852       51.179       54.043       33.652       34.410     2920.656     1132.475     1184.072        0.920        0.262      102.659       19.955        0.038      328.999       -4.544      870.674
12/11/2013  11:25:00       34.009       93.394      104.703       55.730       50.820       28.760     3105.865     2582.684      827.120        1.368        0.326       99.394       21.905        0.049      329.223       -4.177      870.654
12/11/2013  11:26:00       55.447      104.594      112.269       62.209       44.583       28.988     3869.919     1987.653      840.323        1.666        0.335      118.382       22.041        0.035      329.112       -4.362      870.639
12/11/2013  11:27:00      108.411      103.478       85.419       57.271       33.681       53.169     3279.962     1134.402     2826.932        1.850        0.362      149.869       37.133        0.061      328.959       -4.609      870.624
12/11/2013  11:28:00       27.706       34.567        9.900       29.614       41.878       29.086      876.983     1753.800      846.023        0.277        0.174       44.300       15.811        0.127      329.038       -4.480      870.608
12/11/2013  11:29:00       34.422       -4.750       52.813       63.596       54.776       37.243     4044.430     3000.412     1387.007        0.621        0.422       34.748       26.855        0.597      329.388       -3.908      870.589
12/11/2013  11:30:00       49.271       14.655       66.387       49.107       58.971       35.391     2411.465     3477.611     1252.488        0.709        0.357       51.405       29.618        0.332      329.343       -3.981      870.580
12/11/2013  11:31:00        5.252        9.126       56.942       20.583       35.722       20.900      423.643     1276.027      436.829        0.274        0.107       10.529       20.919        3.947      329.632       -3.509      870.576
12/11/2013  11:32:00       30.358       15.127       55.719       32.727       44.442       27.633     1071.029     1975.132      763.590        0.403        0.190       33.918       28.252        0.694      329.466       -3.782      870.555
12/11/2013  11:33:00       75.720      112.402       98.085       79.550       44.193       43.813     6328.265     1953.021     1919.558        1.909        0.510      135.528       46.125        0.116      329.158       -4.286      870.545
12/11/2013  11:34:00       63.422       58.242       43.955       52.379       37.686       35.351     2743.512     1420.230     1249.673        0.738        0.271       86.107       25.201        0.086      329.189       -4.235      870.533
12/11/2013  11:35:00        0.108       29.643       72.774       29.532       57.486       32.130      872.110     3304.642     1032.311        0.569        0.260       29.643       33.368        1.267      329.796       -3.241      870.508
12/11/2013  11:36:00       58.867       26.742       54.486       40.505       53.651       36.128     1640.640     2878.392     1305.225        0.649        0.291       64.657       23.884        0.136      329.750       -3.316      870.485
12/11/2013  11:37:00       59.694       38.796       21.488       67.289       49.676       36.583     4527.748     2467.662     1338.320        0.693        0.417       71.194       31.785        0.199      329.504       -3.719      870.460
12/11/2013  11:38:00       51.049      -33.125      -12.351       41.769       67.788       30.018     1744.636     4595.254      901.075        0.555        0.362       60.854       18.347        0.091      329.336       -3.994      870.462
12/11/2013  11:39:00       33.368        4.977       42.469       55.352       41.065       29.799     3063.887     1686.340      887.973        0.429        0.282       33.737       31.491        0.871      329.619       -3.532      870.432
12/11/2013  11:40:00       -9.465       43.528       80.395       26.332       45.837       37.826      693.355     2101.045     1430.798        0.634        0.211       44.545       30.240        0.461      329.876       -3.110      870.421
12/11/2013  11:41:00       20.312       53.671       53.433       33.744       38.352       29.974     1138.654     1470.854      898.445        0.483        0.175       57.386        9.555        0.028      329.719       -3.367      870.423
12/11/2013  11:42:00       46.075       63.930       61.602       51.304       43.322       58.133     2632.118     1876.820     3379.501        0.895        0.394       78.804       44.923        0.325      329.534       -3.669      870.412
12/11/2013  11:43:00       32.902       35.550       61.315       38.775       45.100       31.515     1503.534     2034.013      993.189        0.532        0.227       48.439       25.558        0.278      329.714       -3.374      870.404
12/11/2013  11:44:00       99.633       83.430       63.666       46.906       48.195       36.715     2200.164     2322.755     1348.003        1.340        0.294      129.951       29.256        0.051      329.324       -4.014      870.382
12/11/2013  11:45:00       -3.930       49.124       84.931       30.006       66.268       39.615      900.346     4391.423     1569.337        0.825        0.343       49.281       40.400        0.672      329.847       -3.157      870.361
12/11/2013  11:46:00       22.477       90.249      111.878       45.018       42.114       28.246     2026.647     1773.591      797.815        1.288        0.230       93.006       24.392        0.069      329.580       -3.596      870.348
12/11/2013  11:47:00       37.852       68.585      100.054       64.126       48.522       30.773     4112.105     2354.381      946.947        1.178        0.371       78.337       31.764        0.164      329.709       -3.385      870.345
12/11/2013  11:48:00      110.938       31.078       17.109       48.651       50.789       27.447     2366.915     2579.521      753.353        0.963        0.285      115.209       10.526        0.008      329.292       -4.066      870.324
12/11/2013  11:49:00       35.727       65.964       69.502       37.963       37.582       26.957     1441.198     1412.407      726.688        0.702        0.179       75.018       19.087        0.065      329.630       -3.514      870.302
12/11/2013  11:50:00      -13.673      -14.010       21.049       27.932       38.215       15.466      780.209     1460.414      239.200        0.165        0.124       19.576       12.097        0.382      329.944       -2.998      870.272
12/11/2013  11:51:00        4.573       18.327       31.666       24.749       61.570       20.165      612.518     3790.848      406.619        0.308        0.240       18.889       16.767        0.788      329.820       -3.203      870.258
12/11/2013  11:52:00       30.052      -72.574        4.865       55.030       62.248       34.432     3028.268     3874.849     1185.559        0.714        0.404       78.550       39.685        0.255      329.602       -3.559      870.243
12/11/2013  11:53:00       13.859       37.121       65.426       43.036       41.216       37.620     1852.097     1698.777     1415.258        0.541        0.248       39.624       28.795        0.528      329.806       -3.225      870.242
12/11/2013  11:54:00       83.701       78.446       81.445       61.577       69.551       53.366     3791.778     4837.293     2847.950        1.563        0.574      114.716       57.453        0.251      329.596       -3.568      870.231
12/11/2013  11:55:00      104.483      116.896       83.852       49.827       55.064       55.419     2482.760     3032.049     3071.213        2.010        0.429      156.785       40.386        0.066      329.351       -3.971      870.215
12/11/2013  11:56:00       60.840       95.295       89.328       65.542       55.935       48.764     4295.726     3128.686     2377.945        1.528        0.490      113.060       43.171        0.146      329.437       -3.828      870.221
12/11/2013  11:57:00       93.616      115.950       98.708       56.875       44.938       38.189     3234.753     2019.401     1458.434        1.933        0.336      149.024       31.783        0.045      329.473       -3.771      870.204
12/11/2013  11:58:00       22.698       83.437      108.130       43.449       52.527       31.822     1887.797     2759.047     1012.641        1.241        0.283       86.469       32.438        0.141      329.766       -3.290      870.208
12/11/2013  11:59:00       49.957      102.278      100.731       73.682       60.101       51.895     5429.014     3612.125     2693.133        1.742        0.587      113.827       40.657        0.128      329.896       -3.077      870.200
12/11/2013  12:00:00       36.769       97.893       98.195       58.490       46.782       33.768     3421.101     2188.534     1140.299        1.366        0.337      104.571       30.009        0.082      329.737       -3.338      870.203
12/11/2013  12:01:00        1.046       61.536       86.916       33.266       42.333       26.098     1106.610     1792.057      681.121        0.746        0.179       61.545       26.908        0.191      329.842       -3.165      870.203
12/11/2013  12:02:00       18.426       51.472       65.656       30.399       24.092       23.026      924.127      580.401      530.217        0.467        0.102       54.671       15.988        0.086      329.754       -3.311      870.192
12/11/2013  12:03:00       53.200       83.117       72.084       45.036       33.215       46.771     2028.241     1103.216     2187.557        1.013        0.266       98.685       33.060        0.112      329.728       -3.351      870.179
12/11/2013  12:04:00       72.910       32.060       55.732       30.219       40.910       31.373      913.210     1673.636      984.296        0.651        0.179       79.647       31.328        0.155      329.533       -3.672      870.160
12/11/2013  12:05:00       61.708       21.961       24.723       59.687       41.417       29.550     3562.539     1715.362      873.230        0.553        0.308       65.499       24.962        0.145      329.795       -3.241      870.139
12/11/2013  12:06:00       98.793       45.856       29.750       56.357       40.003       25.263     3176.108     1600.279      638.197        0.908        0.271      108.916       17.998        0.027      329.548       -3.647      870.133
12/11/2013  12:07:00       93.404       61.379       -0.513       62.354       62.178       31.964     3888.057     3866.097     1021.696        1.063        0.439      111.766       27.583        0.061      329.551       -3.641      870.113
12/11/2013  12:08:00       55.237       46.921       60.495       65.567       57.867       53.437     4298.988     3348.545     2855.548        0.971        0.525       72.475       40.536        0.313      329.907       -3.059      870.112
12/11/2013  12:09:00       86.161       73.490       33.932       42.950       40.020       43.503     1844.730     1601.629     1892.513        0.966        0.267      113.246       25.690        0.051      329.608       -3.549      870.114
12/11/2013  12:10:00       84.136      127.608      102.480       74.990       64.693       51.915     5623.569     4185.242     2695.143        2.318        0.625      152.848       44.110        0.083      329.776       -3.277      870.106
12/11/2013  12:11:00       59.109       19.085       59.195       60.409       49.879       40.473     3649.220     2487.962     1638.091        0.757        0.389       62.114       36.941        0.354      329.960       -2.972      870.095
12/11/2013  12:12:00       79.905      102.289       96.721       69.535       57.730       46.372     4835.065     3332.784     2150.364        1.826        0.516      129.799       36.874        0.081      330.063       -2.805      870.077
12/11/2013  12:13:00      103.381       75.110       71.896       65.930       55.635       48.723     4346.708     3095.299     2373.921        1.566        0.491      127.786       39.710        0.097      329.862       -3.133      870.084
12/11/2013  12:14:00       36.031       34.188        4.287       33.911       21.959       22.192     1149.952      482.216      492.466        0.230        0.106       49.669        9.448        0.036      329.965       -2.964      870.080
12/11/2013  12:15:00       13.744       39.050       68.483       46.916       54.149       36.124     2201.083     2932.125     1304.963        0.642        0.322       41.398       38.257        0.854      330.276       -2.455      870.072
12/11/2013  12:16:00       38.417       62.376       89.722       64.557       48.126       36.204     4167.577     2316.064     1310.723        1.060        0.390       73.257       36.332        0.246      330.165       -2.637      870.065
12/11/2013  12:17:00       28.671       40.098       34.816       49.979       35.911       35.412     2497.853     1289.565     1254.008        0.434        0.252       49.294       23.286        0.223      330.345       -2.340      870.058
12/11/2013  12:18:00        7.846       52.096       -0.620       46.493       32.447       21.252     2161.576     1052.810      451.665        0.322        0.183       52.683       13.530        0.066      330.276       -2.455      870.059
12/11/2013  12:19:00       36.799       15.584        7.669       43.719       25.861       27.202     1911.354      668.797      739.948        0.249        0.166       39.963       27.164        0.462      330.213       -2.557      870.058
12/11/2013  12:20:00        9.102       11.122       42.981       29.062       44.268       34.460      844.591     1959.658     1187.513        0.302        0.200       14.372       31.978        4.951      330.467       -2.141      870.036
12/11/2013  12:21:00       30.662       73.133       72.973       42.477       43.152       32.337     1804.313     1862.133     1045.683        0.816        0.236       79.301       25.231        0.101      330.194       -2.589      870.031
12/11/2013  12:22:00       25.011       26.965       39.621       37.674       42.534       32.736     1419.351     1809.154     1071.670        0.361        0.215       36.779       27.376        0.554      330.421       -2.217      870.025
12/11/2013  12:23:00       32.998       43.586       37.096       58.929       67.641       36.724     3472.664     4575.331     1348.635        0.688        0.470       54.668       22.980        0.177      330.369       -2.302      870.009
12/11/2013  12:24:00       52.639       81.150       62.050       69.492       53.678       57.570     4829.079     2881.280     3314.353        1.211        0.551       96.727       44.450        0.211      330.226       -2.537      870.013
12/11/2013  12:25:00      105.220       74.033       65.050       96.778       68.832       70.475     9365.921     4737.912     4966.741        1.992        0.954      128.655       62.208        0.234      330.061       -2.809      870.020
12/11/2013  12:26:00       52.861       37.747       27.821       50.219       71.336       42.047     2521.911     5088.829     1767.934        0.718        0.469       64.955       40.802        0.395      330.064       -2.802      870.022
12/11/2013  12:27:00       41.522       87.950       69.555       52.849       67.672       40.116     2793.012     4579.507     1609.289        1.164        0.449       97.259       33.909        0.122      330.181       -2.610      870.016
12/11/2013  12:28:00       26.760       51.522       63.281       36.872       44.955       27.306     1359.573     2020.926      745.594        0.575        0.206       58.057       23.093        0.158      330.245       -2.506      870.006
12/11/2013  12:29:00      125.680       82.497       24.651       60.846       39.497       43.885     3702.183     1559.978     1925.859        1.520        0.359      150.337       37.155        0.061      330.041       -2.840      870.018
12/11/2013  12:30:00      102.907       63.923       15.163       72.033       50.061       47.533     5188.704     2506.123     2259.387        1.243        0.498      121.144       30.722        0.064      330.040       -2.841      870.025
12/11/2013  12:31:00      190.382      127.115        9.894       55.997       40.754       36.888     3135.625     1660.853     1360.745        2.933        0.308      228.918       17.078        0.006      329.882       -3.104      870.015
12/11/2013  12:32:00       88.947       65.331       14.685       50.690       33.231       31.423     2569.508     1104.296      987.423        0.853        0.233      110.362       20.613        0.035      329.883       -3.097      870.026
12/11/2013  12:33:00       88.204       63.293       29.715       49.840       44.906       33.687     2484.058     2016.531     1134.830        0.915        0.282      108.563       16.556        0.023      330.074       -2.786      870.023
12/11/2013  12:34:00       19.248      114.532       -8.939       36.557       54.271       34.287     1336.414     2945.338     1175.632        0.951        0.273      116.138       31.204        0.072      330.071       -2.790      870.014
12/11/2013  12:35:00        5.225       41.206       13.735       22.759       46.647       23.424      517.983     2175.965      548.680        0.258        0.162       41.535       27.091        0.425      330.364       -2.311      870.014
12/11/2013  12:36:00       83.746       57.560       16.082       44.421       41.422       36.629     1973.236     1715.765     1341.695        0.781        0.252      101.620       18.687        0.034      330.120       -2.712      870.009
12/11/2013  12:37:00      182.991       95.639        8.510       61.649       54.054       49.903     3800.635     2921.785     2490.309        2.596        0.461      206.477       38.434        0.035      329.806       -3.228      869.986
12/11/2013  12:38:00       76.846       83.858       30.411       66.645       34.208       35.811     4441.537     1170.165     1282.403        1.038        0.345      113.743       33.982        0.089      330.162       -2.642      869.977
12/11/2013  12:39:00        7.915       30.020       35.633       30.502       30.797       33.563      930.385      948.451     1126.458        0.262        0.150       31.046       22.969        0.547      330.534       -2.031      869.977
12/11/2013  12:40:00       21.648       41.012       27.262       24.667       38.038       29.698      608.476     1446.859      882.000        0.291        0.147       46.375       15.646        0.114      330.449       -2.172      869.962
12/11/2013  12:41:00       55.145       48.280        4.124       43.696       43.353       28.550     1909.322     1879.461      815.090        0.500        0.230       73.293       23.424        0.102      330.332       -2.363      869.952
12/11/2013  12:42:00       46.599       87.709        7.660       57.349       40.695       43.499     3288.945     1656.118     1892.170        0.838        0.342       99.319       28.821        0.084      330.048       -2.828      869.947
12/11/2013  12:43:00       18.156       46.182       11.967       33.290       31.234       25.246     1108.211      975.567      637.357        0.266        0.136       49.623       18.588        0.140      330.055       -2.817      869.947
12/11/2013  12:44:00       24.475       22.181       15.842       16.002       12.064       18.569      256.054      145.540      344.820        0.104        0.037       33.031        3.948        0.014      330.111       -2.725      869.948
12/11/2013  12:45:00       34.502       31.524       13.914       13.638       15.556       15.321      185.986      241.979      234.728        0.152        0.033       46.735        7.641        0.027      330.076       -2.784      869.928
12/11/2013  12:46:00       63.541       88.629        6.946       54.437       49.795       36.062     2963.402     2479.518     1300.486        0.934        0.337      109.053       30.533        0.078      330.057       -2.814      869.924
12/11/2013  12:47:00       39.582       89.347        1.510       50.487       61.082       39.837     2548.918     3730.964     1587.010        0.871        0.393       97.722       37.655        0.148      330.247       -2.501      869.910
12/11/2013  12:48:00       -5.279      149.410      -12.870       55.779       62.265       25.070     3111.312     3876.904      628.482        1.507        0.381      149.503       12.196        0.007      329.954       -2.982      869.900
12/11/2013  12:49:00      -18.636       -4.620       -3.500       37.404       79.518       38.279     1399.064     6323.182     1465.311        0.478        0.459       19.200       44.197        5.299      330.066       -2.799      869.900
12/11/2013  12:50:00        1.765       17.856       -7.049       14.752       38.904       20.580      217.610     1513.490      423.525        0.126        0.108       17.943       19.155        1.140      330.218       -2.550      869.884
12/11/2013  12:51:00       38.124       18.330        2.347       37.003       28.671       24.222     1369.235      821.999      586.702        0.229        0.139       42.302       25.709        0.369      330.180       -2.611      869.880
12/11/2013  12:52:00       67.887       27.948        8.981       53.315       26.477       29.899     2842.468      701.019      893.921        0.495        0.222       73.414       21.796        0.088      330.205       -2.570      869.873
12/11/2013  12:53:00       79.389      113.390       -9.242       57.353       62.607       44.834     3289.322     3919.592     2010.066        1.423        0.461      138.419       41.868        0.091      330.156       -2.653      869.858
12/11/2013  12:54:00       39.276      104.207       -6.943       44.594       45.851       42.337     1988.613     2102.338     1792.423        0.917        0.294      111.363       31.705        0.081      330.139       -2.680      869.861
12/11/2013  12:55:00      -13.394      101.502      -15.547       20.085       32.457       22.331      403.393     1053.448      498.686        0.634        0.098      102.382       23.293        0.052      330.069       -2.793      869.852
12/11/2013  12:56:00       10.608       36.191        6.846       24.247       29.857       24.466      587.938      891.467      598.596        0.177        0.104       37.714       22.243        0.348      330.410       -2.235      869.853
12/11/2013  12:57:00       31.959       47.510       35.971       38.598       34.355       32.654     1489.795     1180.272     1066.305        0.415        0.187       57.258       17.512        0.094      330.493       -2.100      869.856
12/11/2013  12:58:00       58.433       96.387       97.274       63.740       46.526       41.650     4062.830     2164.706     1734.700        1.506        0.398      112.716       42.227        0.140      330.316       -2.390      869.853
12/11/2013  12:59:00      115.711       75.539       51.893       40.088       36.075       41.536     1607.040     1301.438     1725.202        1.321        0.232      138.186       29.557        0.046      330.075       -2.785      869.859
12/11/2013  13:00:00       79.613       81.785       50.453       28.961       30.484       23.840      838.765      929.253      568.357        0.895        0.117      114.136       18.724        0.027      330.173       -2.624      869.848
12/11/2013  13:01:00       15.470       -0.417       29.527       47.983       85.279       31.581     2302.351     7272.487      997.361        0.584        0.529       15.476       43.867        8.035      330.388       -2.271      869.848
12/11/2013  13:02:00       39.862     -103.957       -6.441       39.480       41.508       30.922     1558.683     1722.897      956.169        0.834        0.212      111.338       18.675        0.028      330.430       -2.201      869.838
12/11/2013  13:03:00       21.827      -12.160        6.181       43.513       59.086       35.556     1893.419     3491.186     1264.259        0.365        0.332       24.986       23.471        0.882      330.662       -1.822      869.816
12/11/2013  13:04:00       38.983       23.941      -13.406       32.350       46.378       24.229     1046.531     2150.949      587.032        0.303        0.189       45.748        5.133        0.013      330.647       -1.845      869.811
12/11/2013  13:05:00       23.032       36.178       30.391       54.528       44.384       56.298     2973.258     1969.961     3169.484        0.544        0.406       42.888       44.192        1.062      330.710       -1.744      869.797
12/11/2013  13:06:00       99.488       40.191       25.739       38.143       56.217       34.045     1454.874     3160.384     1159.031        0.897        0.289      107.300       13.936        0.017      330.203       -2.574      869.799
12/11/2013  13:07:00       61.257       98.609       -9.256       42.672       46.768       34.519     1820.935     2187.251     1191.550        0.938        0.260      116.087       30.469        0.069      330.326       -2.372      869.784
12/11/2013  13:08:00       11.884       73.878        0.169       21.218       50.881       24.522      450.219     2588.830      601.331        0.462        0.182       74.828       29.852        0.159      330.383       -2.278      869.773
12/11/2013  13:09:00       10.285       16.245       24.013       20.578       25.288       18.973      423.434      639.506      359.966        0.118        0.071       19.227       13.872        0.521      330.759       -1.663      869.765
12/11/2013  13:10:00       45.958       28.646       53.533       49.939       50.741       38.659     2493.918     2574.604     1494.491        0.618        0.328       54.155       39.786        0.540      330.592       -1.937      869.751
12/11/2013  13:11:00       16.697       49.494       67.851       34.874       41.096       27.465     1216.169     1688.897      754.309        0.550        0.183       52.235       19.297        0.136      330.664       -1.818      869.735
12/11/2013  13:12:00       18.927      -13.611       13.966       33.554       42.144       29.251     1125.891     1776.148      855.644        0.225        0.188       23.313       26.958        1.337      330.758       -1.665      869.716
12/11/2013  13:13:00       24.816      -67.754       18.105       36.184       42.527       32.692     1309.306     1808.559     1068.775        0.486        0.209       72.155       24.423        0.115      330.810       -1.579      869.696
12/11/2013  13:14:00       28.990      -27.008        5.749       52.613       31.502       28.145     2768.111      992.370      792.119        0.308        0.228       39.621       15.538        0.154      330.576       -1.964      869.688
12/11/2013  13:15:00       32.628       43.507       66.395       42.877       47.128       28.561     1838.442     2221.052      815.710        0.612        0.244       54.382       18.362        0.114      330.723       -1.721      869.683
12/11/2013  13:16:00       74.532       82.958       62.028       50.647       43.756       38.790     2565.151     1914.627     1504.699        1.113        0.299      111.522       28.883        0.067      330.561       -1.988      869.691
12/11/2013  13:17:00       47.565       -1.806        5.547       33.741       66.575       20.276     1138.464     4432.289      411.134        0.414        0.299       47.600       24.683        0.269      330.550       -2.005      869.691
12/11/2013  13:18:00       42.311      -38.130       15.809       32.026       39.230       32.663     1025.682     1539.009     1066.900        0.356        0.182       56.957       27.896        0.240      330.656       -1.832      869.694
12/11/2013  13:19:00       23.480       50.515       58.054       37.121       37.663       19.667     1377.964     1418.513      386.807        0.483        0.159       55.705        8.839        0.025      330.893       -1.442      869.677
12/11/2013  13:20:00       24.069       40.421       51.496       36.452       26.538       20.747     1328.762      704.269      430.450        0.366        0.123       47.044       18.800        0.160      330.864       -1.491      869.659
12/11/2013  13:21:00       16.416       23.332       39.891       31.946       16.771       14.176     1020.546      281.266      200.962        0.195        0.075       28.528        9.937        0.121      330.898       -1.434      869.655
12/11/2013  13:22:00       -7.866        2.429       18.923       23.547       28.152       18.341      554.453      792.545      336.401        0.105        0.084        8.233       16.479        4.006      331.239       -0.873      869.649
12/11/2013  13:23:00       37.873      -21.119        4.914       37.962       43.585       26.088     1441.129     1899.617      680.568        0.296        0.201       43.363       29.469        0.462      330.797       -1.600      869.644
12/11/2013  13:24:00       27.491      -88.192      -18.933       34.152       35.149       23.865     1166.377     1235.460      569.553        0.593        0.149       92.378       19.676        0.045      330.777       -1.634      869.641
12/11/2013  13:25:00       17.440      -52.506      -10.071       33.405       44.947       24.132     1115.869     2020.267      582.366        0.344        0.186       55.327       20.134        0.132      330.899       -1.434      869.644
12/11/2013  13:26:00      -82.620      -91.024      -22.036       30.531       38.178       23.956      932.159     1457.551      573.913        0.928        0.148      122.929       16.150        0.017      330.605       -1.915      869.635
12/11/2013  13:27:00       -8.656      -24.087       27.472       40.803       22.616       26.549     1664.904      511.471      704.859        0.214        0.144       25.595       25.787        1.015      331.089       -1.120      869.627
12/11/2013  13:28:00      -15.142       -0.753       24.565       39.768       19.371       18.403     1581.471      375.225      338.660        0.156        0.115       15.160       21.570        2.024      331.184       -0.964      869.633
12/11/2013  13:29:00       -8.790       18.087       17.316       29.405       26.143       24.920      864.652      683.463      621.019        0.144        0.108       20.110       12.266        0.372      331.061       -1.166      869.642
12/11/2013  13:30:00      119.392       45.390        9.924       50.936       30.496       29.802     2594.511      929.978      888.183        1.041        0.221      127.729       21.237        0.028      330.614       -1.900      869.642
12/11/2013  13:31:00       -6.598       97.661        2.570       25.265       34.215       23.542      638.322     1170.650      554.208        0.598        0.118       97.884       14.962        0.023      330.838       -1.531      869.638
12/11/2013  13:32:00        5.785      127.978      -18.034       43.823       55.996       26.036     1920.419     3135.511      677.894        1.123        0.287      128.108       19.781        0.024      330.614       -1.901      869.629
12/11/2013  13:33:00       58.996       42.583       18.918       41.010       26.634       28.282     1681.840      709.366      799.844        0.442        0.160       72.759       20.411        0.079      330.640       -1.858      869.618
12/11/2013  13:34:00       64.343       50.009        1.240       35.266       17.700       25.096     1243.693      313.302      629.815        0.441        0.109       81.491       21.708        0.071      330.565       -1.981      869.622
12/11/2013  13:35:00       29.589       47.935       25.979       34.562       31.594       32.358     1194.550      998.169     1047.025        0.354        0.162       56.331       23.704        0.177      330.970       -1.316      869.623
12/11/2013  13:36:00       50.504       43.249       16.491       45.204       29.255       40.177     2043.428      855.836     1614.177        0.460        0.226       66.492       33.276        0.250      330.977       -1.303      869.619
12/11/2013  13:37:00       41.659        5.963       -6.248       36.148       51.998       30.935     1306.686     2703.749      956.952        0.339        0.248       42.084       16.932        0.162      330.944       -1.358      869.614
12/11/2013  13:38:00       14.046       52.624        6.350       46.188       37.514       26.326     2133.329     1407.269      693.064        0.362        0.212       54.466       25.047        0.211      330.838       -1.531      869.625
12/11/2013  13:39:00       56.422       52.491        9.604       27.730       22.127       32.417      768.952      489.584     1050.880        0.417        0.115       77.063       16.419        0.045      330.688       -1.779      869.631
12/11/2013  13:40:00       36.217       78.013       -7.804       33.635       41.909       26.184     1131.293     1756.356      685.601        0.552        0.179       86.010       26.240        0.093      330.674       -1.802      869.619
12/11/2013  13:41:00       34.723      112.683      -15.216       43.907       69.950       31.385     1927.825     4893.060      985.013        1.097        0.390      117.912       34.006        0.083      330.846       -1.519      869.619
12/11/2013  13:42:00       19.730       73.936       10.493       33.293       58.104       32.278     1108.442     3376.037     1041.877        0.575        0.276       76.523       31.192        0.166      330.928       -1.385      869.627
12/11/2013  13:43:00       94.636       77.967       47.646       64.596       37.955       41.421     4172.664     1440.568     1715.671        1.232        0.366      122.617       30.807        0.063      330.931       -1.381      869.622
12/11/2013  13:44:00      114.418       94.937       30.815       48.648       30.078       37.507     2366.642      904.666     1406.778        1.387        0.234      148.676       22.155        0.022      330.701       -1.759      869.621
12/11/2013  13:45:00       79.026       70.935       54.091       46.892       36.470       39.296     2198.822     1330.044     1544.198        0.964        0.254      106.192       31.101        0.086      330.848       -1.517      869.626
12/11/2013  13:46:00       88.279       62.257       18.071       48.277       29.057       31.586     2330.658      844.328      997.647        0.808        0.209      108.023       28.062        0.067      330.695       -1.768      869.622
12/11/2013  13:47:00       10.897       19.751       30.425       46.816       34.672       24.845     2191.700     1202.147      617.296        0.272        0.201       22.557       27.282        1.463      331.092       -1.116      869.603
12/11/2013  13:48:00       88.206       58.660       30.959       74.507       33.472       25.484     5551.350     1120.343      649.429        0.975        0.366      105.931       30.558        0.083      330.964       -1.326      869.605
12/11/2013  13:49:00       91.577       55.795       18.704       45.934       32.212       36.251     2109.972     1037.633     1314.106        0.815        0.223      107.235       15.713        0.021      330.686       -1.782      869.611
12/11/2013  13:50:00       78.229       19.156       39.530       45.827       61.009       31.445     2100.138     3722.111      988.780        0.743        0.341       80.540       26.385        0.107      330.860       -1.497      869.612
12/11/2013  13:51:00       33.172       19.184       54.106       41.848       76.776       50.564     1751.249     5894.555     2556.731        0.730        0.510       38.319       59.161        2.384      331.023       -1.230      869.616
12/11/2013  13:52:00       39.888      101.194      105.650       50.937       40.797       42.287     2594.587     1664.406     1788.165        1.452        0.302      108.772       36.862        0.115      330.862       -1.493      869.630
12/11/2013  13:53:00       38.397       56.328       52.702       32.685       29.558       33.944     1068.341      873.668     1152.179        0.526        0.155       68.170       24.821        0.133      330.734       -1.703      869.642
12/11/2013  13:54:00       24.531       43.596       37.805       43.954       26.677       24.589     1931.964      711.674      604.601        0.359        0.162       50.024       14.502        0.084      330.914       -1.408      869.647
12/11/2013  13:55:00       21.249       13.391       12.583       37.188       47.408       30.250     1382.914     2247.488      915.060        0.267        0.227       25.116       34.258        1.860      330.851       -1.513      869.644
12/11/2013  13:56:00       17.558       47.678        1.640       45.232       34.340       17.516     2045.975     1179.241      306.827        0.306        0.177       50.809       15.962        0.099      331.020       -1.233      869.633
12/11/2013  13:57:00       60.755       28.369       17.671       43.380       24.512       30.108     1881.839      600.822      906.489        0.410        0.169       67.052        2.429        0.001      330.977       -1.303      869.636
12/11/2013  13:58:00       53.461       65.744        5.135       39.370       29.741       26.091     1549.990      884.529      680.737        0.516        0.156       84.737        9.436        0.012      330.882       -1.460      869.635
12/11/2013  13:59:00       58.004       68.355       -4.865       25.113       46.733       23.241      630.658     2183.943      540.160        0.571        0.168       89.649        9.645        0.012      330.825       -1.555      869.641
12/11/2013  14:00:00       57.349       78.785       11.033       49.235       62.828       37.197     2424.107     3947.420     1383.618        0.868        0.388       97.447       35.952        0.136      330.846       -1.520      869.636
12/11/2013  14:01:00       69.318       99.374       -8.981       38.441       60.706       34.216     1477.701     3685.158     1170.713        1.055        0.317      121.162       30.897        0.065      330.692       -1.773      869.625
12/11/2013  14:02:00       52.228       61.455        8.102       38.815       57.863       28.586     1506.629     3348.173      817.175        0.612        0.284       80.651       27.053        0.113      330.834       -1.539      869.617
12/11/2013  14:03:00       56.359      113.068      -12.482       46.891       55.585       42.514     2198.801     3089.672     1807.417        1.160        0.355      126.336       37.077        0.086      330.806       -1.585      869.605
12/11/2013  14:04:00       32.847       73.682        4.844       44.526       59.172       30.997     1982.548     3501.374      960.808        0.649        0.322       80.672       36.358        0.203      330.917       -1.403      869.605
12/11/2013  14:05:00      -22.313      138.986      -17.029       39.853       42.102       26.410     1588.223     1772.603      697.478        1.208        0.203      140.766       23.346        0.028      330.785       -1.619      869.600
12/11/2013  14:06:00       -8.223      146.605      -23.895       22.502       38.377       22.248      506.327     1472.821      494.957        1.230        0.124      146.835       19.646        0.018      330.832       -1.543      869.591
12/11/2013  14:07:00      -29.666      118.806      -11.673       32.060       45.070       26.041     1027.863     2031.302      678.127        0.943        0.187      122.453       24.012        0.038      330.977       -1.305      869.593
12/11/2013  14:08:00      -31.874      119.096      -19.450       24.558       31.945       17.952      603.091     1020.503      322.265        0.876        0.097      123.288       13.573        0.012      330.783       -1.624      869.595
12/11/2013  14:09:00      -45.837       97.474      -12.561       41.678       46.222       29.531     1737.094     2136.473      872.095        0.825        0.237      107.713       23.875        0.049      331.161       -1.002      869.594
12/11/2013  14:10:00      -11.732      125.198      -12.684       33.862       39.516       24.838     1146.609     1561.531      616.943        0.965        0.166      125.746       19.018        0.023      331.077       -1.141      869.584
12/11/2013  14:11:00      -12.112      131.608      -22.262       30.491       40.526       21.858      929.682     1642.317      477.785        1.051        0.152      132.164       19.951        0.023      330.807       -1.584      869.584
12/11/2013  14:12:00      -10.071      152.329      -21.611       22.148       31.845       15.839      490.537     1014.110      250.874        1.276        0.088      152.661       13.003        0.007      330.757       -1.665      869.593
12/11/2013  14:13:00       -1.667      127.080      -24.020       31.734       41.955       20.767     1007.016     1760.198      431.253        0.996        0.160      127.091       18.817        0.022      330.899       -1.433      869.595
12/11/2013  14:14:00       -9.945       94.206       -8.372       27.876       48.124       20.056      777.044     2315.887      402.225        0.627        0.175       94.729       25.767        0.074      330.911       -1.414      869.603
12/11/2013  14:15:00        0.017       51.677      -11.704       17.850       45.924       21.361      318.614     2108.996      456.293        0.285        0.144       51.677       16.603        0.103      330.952       -1.345      869.597
12/11/2013  14:16:00      -12.213       44.085      -15.505       26.927       40.156       20.492      725.065     1612.529      419.932        0.254        0.138       45.745       17.781        0.151      330.915       -1.405      869.584
12/11/2013  14:17:00        9.529       56.334       -7.756       12.585       25.359       18.347      158.384      643.068      336.629        0.223        0.057       57.134       14.204        0.062      331.095       -1.110      869.564
12/11/2013  14:18:00       14.393       99.991       -3.425       15.307       27.022       20.195      234.317      730.183      407.833        0.579        0.069      101.022       18.642        0.034      330.971       -1.316      869.553
12/11/2013  14:19:00       14.910       31.411       -2.659       25.627       30.315       20.614      656.735      918.978      424.951        0.161        0.100       34.770       15.305        0.194      331.008       -1.254      869.543
12/11/2013  14:20:00       17.261       -8.614       -2.089       16.433       16.217       15.157      270.044      262.984      229.749        0.057        0.038       19.291        8.664        0.202      331.030       -1.218      869.535
12/11/2013  14:21:00       -1.495      -64.819        5.785       25.782       23.039       17.618      664.714      530.775      310.390        0.287        0.075       64.836       11.015        0.029      331.061       -1.167      869.523
12/11/2013  14:22:00        9.518       15.454       14.682       23.963       16.498       21.256      574.243      272.168      451.799        0.092        0.065       18.150       15.323        0.713      331.330       -0.725      869.525
12/11/2013  14:23:00      -21.978       53.520        3.674       31.064       42.750       21.424      964.988     1827.585      458.995        0.331        0.163       57.857       17.987        0.097      331.278       -0.811      869.524
12/11/2013  14:24:00      -26.079       33.544        8.047       25.557       24.581       19.473      653.173      604.231      379.213        0.175        0.082       42.489       14.612        0.118      331.426       -0.567      869.517
12/11/2013  14:25:00       52.355       48.617       14.743       51.653       20.343       26.528     2668.067      413.849      703.733        0.455        0.189       71.446       12.146        0.029      331.122       -1.067      869.513
12/11/2013  14:26:00      114.762       60.668        3.532       49.602       20.583       26.261     2460.364      423.668      689.635        1.022        0.179      129.811        9.486        0.005      331.100       -1.104      869.503
12/11/2013  14:27:00      121.226       66.828        1.810       32.945       24.459       28.577     1085.342      598.234      816.622        1.083        0.125      138.426       20.255        0.021      330.977       -1.304      869.511
12/11/2013  14:28:00       92.627       59.705       13.195       32.688       25.466       23.253     1068.500      648.502      540.682        0.729        0.113      110.202       13.783        0.016      331.145       -1.030      869.510
12/11/2013  14:29:00       21.148       93.623      105.377       41.881       49.796       47.411     1754.006     2479.689     2247.807        1.340        0.324       95.982       40.557        0.179      331.108       -1.089      869.504
12/11/2013  14:30:00       77.174       47.096       78.961       40.322       60.649       52.124     1625.832     3678.298     2716.947        1.121        0.401       90.410       49.473        0.299      330.979       -1.303      869.510
12/11/2013  14:31:00       50.029       -2.055       18.105       28.168       26.177       20.086      793.455      685.257      403.430        0.236        0.094       50.071        8.738        0.030      331.026       -1.223      869.519
12/11/2013  14:32:00       35.086       43.454       46.210       28.363       29.671       26.567      804.435      880.383      705.783        0.382        0.120       55.851       19.047        0.116      331.194       -0.948      869.500
12/11/2013  14:33:00        3.419       44.044       54.576       20.700       29.512       19.956      428.502      870.969      398.245        0.331        0.085       44.177       16.159        0.134      331.353       -0.686      869.501
12/11/2013  14:34:00       23.166       13.979       43.165       28.902       46.543       38.773      835.341     2166.283     1503.339        0.355        0.225       27.057       38.807        2.057      331.110       -1.086      869.500
12/11/2013  14:35:00        6.207       -9.918       21.455       14.386       21.235       10.079      206.965      450.934      101.579        0.068        0.038       11.700        7.728        0.436      331.446       -0.534      869.499
12/11/2013  14:36:00       17.898      -47.168        1.342       39.244       45.019       21.753     1540.128     2026.732      473.177        0.329        0.202       50.450       20.887        0.171      331.220       -0.906      869.484
12/11/2013  14:37:00       -7.898       -8.044       11.435       28.454       26.553       24.845      809.622      705.044      617.286        0.119        0.107       11.273       18.803        2.782      331.334       -0.717      869.486
12/11/2013  14:38:00       -4.978       36.978        6.150       26.937       27.665       26.289      725.596      765.373      691.131        0.181        0.109       37.312       14.121        0.143      331.304       -0.767      869.488
12/11/2013  14:39:00       35.305        9.762        6.503       29.495       24.748       15.349      869.971      612.448      235.582        0.155        0.086       36.630        9.093        0.062      331.282       -0.804      869.484
12/11/2013  14:40:00       20.157       69.926      -10.658       15.446       27.160       18.355      238.577      737.683      336.894        0.336        0.066       72.774       14.590        0.040      331.142       -1.033      869.478
12/11/2013  14:41:00       17.924       80.914      -14.454       18.588       25.144       19.675      345.513      632.244      387.102        0.422        0.068       82.875       15.778        0.036      331.087       -1.124      869.468
12/11/2013  14:42:00       15.221       49.997       -6.617       20.940       20.614       16.871      438.495      424.938      284.622        0.196        0.057       52.262       14.342        0.075      331.196       -0.946      869.468
12/11/2013  14:43:00       14.783      128.825      -14.615       35.419       43.859       32.220     1254.505     1923.575     1038.119        1.062        0.211      129.671       27.651        0.045      331.169       -0.991      869.460
12/11/2013  14:44:00      -35.880       81.509        5.855       31.265       50.871       29.343      977.488     2587.887      860.998        0.619        0.221       89.057       33.638        0.143      331.311       -0.754      869.465
12/11/2013  14:45:00      -41.670       77.327       -8.009       35.389       52.069       26.478     1252.361     2711.185      701.105        0.622        0.233       87.840       26.318        0.090      331.226       -0.896      869.468
12/11/2013  14:46:00        7.699       69.715       -1.031       21.759       20.498       22.942      473.433      420.187      526.333        0.317        0.071       70.139       14.212        0.041      331.320       -0.741      869.459
12/11/2013  14:47:00      -49.835       56.341       -7.437       27.308       34.979       21.931      745.736     1223.557      480.986        0.408        0.123       75.219       22.372        0.088      331.326       -0.731      869.451
12/11/2013  14:48:00      -29.830       85.837      -11.321       24.492       27.211       21.915      599.839      740.429      480.257        0.510        0.091       90.872        9.622        0.011      331.137       -1.041      869.433
12/11/2013  14:49:00      -13.955       14.061       -5.357       21.885       17.811       12.976      478.952      317.233      168.386        0.069        0.048       19.811        9.971        0.253      331.287       -0.794      869.424
12/11/2013  14:50:00       15.657        9.838        8.517       20.526       15.712       13.400      421.301      246.873      179.547        0.063        0.042       18.491       13.446        0.529      331.200       -0.939      869.402
12/11/2013  14:51:00      -18.238       32.493        4.095       24.560       46.617       14.530      603.178     2173.151      211.130        0.220        0.149       37.262       20.737        0.310      331.655       -0.191      869.396
12/11/2013  14:52:00      -34.881       68.171        4.098       33.376       29.099       23.297     1113.934      846.766      542.763        0.419        0.125       76.577       14.717        0.037      331.476       -0.484      869.386
12/11/2013  14:53:00        5.900      102.829       -6.871       25.423       33.191       18.343      646.315     1101.654      336.467        0.637        0.104      102.998        7.093        0.005      331.121       -1.068      869.382
12/11/2013  14:54:00       -5.394      105.632      -15.941       24.769       32.311       23.865      613.489     1044.018      569.532        0.683        0.111      105.770       21.086        0.040      331.129       -1.056      869.378
12/11/2013  14:55:00       33.609       40.220        8.570       30.145       24.641       19.430      908.726      607.197      377.507        0.236        0.095       52.414       12.445        0.056      331.127       -1.058      869.383
12/11/2013  14:56:00        5.261       16.541        5.349       22.668       28.960       21.333      513.857      838.678      455.092        0.107        0.090       17.358       16.888        0.947      331.239       -0.875      869.378
12/11/2013  14:57:00       -7.911       30.595       11.421       23.074       35.349       16.789      532.414     1249.586      281.886        0.160        0.103       31.601       20.041        0.402      331.555       -0.355      869.377
12/11/2013  14:58:00       41.922       27.248       23.296       31.645       21.249       17.685     1001.428      451.535      312.743        0.240        0.088       49.999        9.413        0.035      331.434       -0.553      869.370
12/11/2013  14:59:00       32.251       43.993        9.244       38.043       25.739       20.403     1447.301      662.508      416.277        0.279        0.126       54.548       12.197        0.050      331.264       -0.832      869.365
12/11/2013  15:00:00       95.875       70.613       37.724       29.820       21.605       21.497      889.205      466.757      462.127        0.871        0.091      119.072       13.029        0.012      331.175       -0.980      869.362
12/11/2013  15:01:00      112.725       79.543       18.566       31.992       26.010       30.242     1023.473      676.517      914.594        1.100        0.131      137.964       16.277        0.014      331.176       -0.978      869.363
12/11/2013  15:02:00       72.633       47.778       20.607       43.044       28.684       33.886     1852.828      822.745     1148.273        0.590        0.191       86.938       26.886        0.096      331.323       -0.735      869.361
12/11/2013  15:03:00       34.608       47.257       38.909       36.387       25.613       26.505     1324.027      656.045      702.495        0.381        0.134       58.575       17.980        0.094      331.333       -0.720      869.362
12/11/2013  15:04:00       55.384       39.591       19.799       35.214       38.437       25.037     1240.030     1477.429      626.866        0.418        0.167       68.080       16.179        0.056      331.274       -0.816      869.354
12/11/2013  15:05:00       84.530       85.752       22.259       27.339       15.781       31.640      747.403      249.030     1001.068        0.850        0.100      120.411       15.755        0.017      331.135       -1.046      869.342
12/11/2013  15:06:00       80.048       63.349        5.368       22.495       15.709       20.625      506.014      246.777      425.391        0.581        0.059      102.082       11.410        0.012      331.150       -1.022      869.345
12/11/2013  15:07:00       36.437       45.553        4.876       27.798       19.019       19.522      772.733      361.716      381.126        0.247        0.076       58.333       12.154        0.043      331.235       -0.880      869.339
12/11/2013  15:08:00       80.281       56.245        6.507       39.156       30.424       23.434     1533.161      925.643      549.149        0.633        0.150       98.023       13.562        0.019      331.202       -0.935      869.336
12/11/2013  15:09:00       38.453       40.991       13.563       34.059       31.869       19.241     1160.039     1015.662      370.223        0.294        0.127       56.204        8.018        0.020      331.271       -0.822      869.338
12/11/2013  15:10:00       96.066       41.691       13.636       25.891       25.987       22.309      670.329      675.331      497.685        0.650        0.092      104.723       12.953        0.015      331.191       -0.953      869.335
12/11/2013  15:11:00       75.698       45.408       21.104       29.197       18.722       19.798      852.442      350.520      391.956        0.492        0.080       88.273       12.981        0.022      331.224       -0.898      869.330
12/11/2013  15:12:00       42.625       27.702        4.537       32.126       19.093       12.643     1032.066      364.535      159.847        0.208        0.078       50.836        6.358        0.016      331.158       -1.008      869.326
12/11/2013  15:13:00       10.431       32.087       33.619       19.722       24.342       34.287      388.939      592.522     1175.587        0.221        0.108       33.740       24.184        0.514      331.406       -0.600      869.319
12/11/2013  15:14:00       13.072       49.347       66.869       24.279       37.789       19.336      589.455     1427.989      373.884        0.473        0.120       51.049       23.756        0.217      331.347       -0.696      869.313
12/11/2013  15:15:00       28.082        9.434        5.585       10.686       20.656       18.271      114.180      426.663      333.820        0.089        0.044       29.624       17.636        0.354      331.212       -0.919      869.314
12/11/2013  15:16:00       22.634       19.429        7.714       25.131       15.902       12.227      631.573      252.873      149.497        0.099        0.052       29.830        5.461        0.034      331.304       -0.766      869.315
12/11/2013  15:17:00       15.988       -9.497        5.925       15.061       14.741       11.377      226.825      217.285      129.435        0.048        0.029       18.595       10.930        0.345      331.501       -0.441      869.318
12/11/2013  15:18:00      -13.102      -16.656       -1.749       14.941       15.977        9.496      223.219      255.276       90.182        0.051        0.028       21.191       10.281        0.235      331.274       -0.815      869.327
12/11/2013  15:19:00       34.040       37.448        8.932       30.321       29.524       22.688      919.371      871.656      514.767        0.247        0.115       50.607       25.932        0.263      331.297       -0.778      869.331
12/11/2013  15:20:00        9.449       22.057       59.556       29.118       55.288       26.626      847.876     3056.748      708.967        0.437        0.231       23.996       29.947        1.557      331.476       -0.485      869.323
12/11/2013  15:21:00       19.476      -56.905        5.626       32.053       27.696       25.288     1027.399      767.084      639.461        0.304        0.122       60.145       13.085        0.047      331.424       -0.570      869.306
12/11/2013  15:22:00       34.685      -33.144       40.100       59.803       56.647       36.138     3576.376     3208.875     1305.958        0.600        0.405       47.975       32.007        0.445      331.453       -0.521      869.292
12/11/2013  15:23:00       27.695       -7.098       19.272       39.347       62.366       32.421     1548.218     3889.521     1051.105        0.384        0.324       28.590       12.152        0.181      331.425       -0.568      869.297
12/11/2013  15:24:00       27.658       19.802        1.648       23.291       21.136       13.586      542.491      446.740      184.573        0.117        0.059       34.016        7.870        0.054      331.380       -0.641      869.311
12/11/2013  15:25:00       16.078       50.755        4.406       31.339       32.708       20.995      982.126     1069.823      440.791        0.267        0.125       53.241       20.973        0.155      331.358       -0.678      869.316
12/11/2013  15:26:00       68.202       16.946       19.624       36.926       26.612       17.952     1363.532      708.204      322.264        0.386        0.120       70.276       13.365        0.036      331.206       -0.929      869.333
12/11/2013  15:27:00        3.596        1.459        0.682       11.209       12.252       14.719      125.644      150.110      216.643        0.025        0.025        3.881        9.576        6.088      331.346       -0.698      869.338
12/11/2013  15:28:00        7.375        4.693        5.020       18.443        8.213        9.176      340.152       67.460       84.191        0.030        0.025        8.741        7.541        0.744      331.432       -0.557      869.338
12/11/2013  15:29:00       48.491       22.414        4.379       13.977       11.890        7.338      195.355      141.371       53.845        0.163        0.020       53.421        4.641        0.008      331.242       -0.869      869.336
12/11/2013  15:30:00       97.571       43.638        9.866       29.336       28.285       23.954      860.606      800.060      573.809        0.688        0.112      106.885       15.405        0.021      331.224       -0.899      869.341
12/11/2013  15:31:00       67.328       51.524       46.511       45.529       31.168       34.393     2072.877      971.434     1182.865        0.679        0.211       84.781       30.758        0.132      331.357       -0.680      869.339
12/11/2013  15:32:00       74.189       50.839       32.133       50.482       22.528       29.839     2548.401      507.498      890.358        0.653        0.197       89.937       32.292        0.129      331.448       -0.530      869.342
12/11/2013  15:33:00       22.089       32.060       30.407       28.940       33.559       23.338      837.526     1126.193      544.639        0.247        0.125       38.933       17.105        0.193      331.489       -0.463      869.349
12/11/2013  15:34:00        3.961       23.428       33.825       20.083       27.815       15.294      403.334      773.647      233.918        0.156        0.071       23.760       12.464        0.275      331.527       -0.401      869.349
12/11/2013  15:35:00       73.864       56.995        0.710       33.888       21.978       23.937     1148.409      483.038      572.991        0.545        0.110       93.297       17.062        0.033      331.263       -0.834      869.351
12/11/2013  15:36:00       70.806       45.288        6.226       34.948       29.984       18.632     1221.344      899.048      347.151        0.478        0.123       84.051       13.228        0.025      331.176       -0.977      869.343
12/11/2013  15:37:00       35.304       37.625       11.331       21.993       27.748       21.306      483.672      769.965      453.959        0.225        0.085       51.595        9.450        0.034      331.306       -0.763      869.335
12/11/2013  15:38:00       19.786       50.822        5.143       21.747       31.144       18.284      472.932      969.921      334.300        0.239        0.089       54.538       16.004        0.086      331.290       -0.789      869.328
12/11/2013  15:39:00       22.587       67.934      -12.832       14.860       30.433       14.048      220.831      926.144      197.353        0.332        0.067       71.590       10.436        0.021      331.231       -0.885      869.332
12/11/2013  15:40:00       56.493       40.774       -0.294       22.694       20.913       15.949      515.032      437.348      254.377        0.303        0.060       69.671       14.722        0.045      331.215       -0.914      869.338
12/11/2013  15:41:00       63.404       28.245        1.956       26.217       17.530       19.932      687.344      307.312      397.281        0.311        0.070       69.411       10.761        0.024      331.288       -0.795      869.335
12/11/2013  15:42:00       55.830       41.178        1.525       38.940       36.004       26.141     1516.293     1296.321      683.353        0.415        0.175       69.374       19.492        0.079      331.236       -0.880      869.335
12/11/2013  15:43:00       87.267       63.543        4.575       35.326       30.560       27.459     1247.937      933.934      754.002        0.730        0.147      107.950       15.395        0.020      331.127       -1.059      869.327
12/11/2013  15:44:00      105.417       53.759        1.378       46.352       32.558       29.264     2148.546     1060.049      856.395        0.903        0.203      118.333       12.997        0.012      331.109       -1.089      869.317
12/11/2013  15:45:00      126.154       53.448       -1.452       43.761       34.590       29.422     1915.047     1196.496      865.682        1.137        0.199      137.009       22.911        0.028      331.140       -1.037      869.314
12/11/2013  15:46:00       51.957       51.341        1.374       40.828       33.536       22.181     1666.957     1124.687      491.978        0.431        0.164       73.044       17.091        0.055      331.103       -1.099      869.318
12/11/2013  15:47:00       78.810       40.908        6.922       36.807       31.707       22.724     1354.768     1005.361      516.402        0.540        0.144       88.795       19.572        0.049      331.072       -1.149      869.310
12/11/2013  15:48:00       57.396       53.839        4.733       36.182       42.609       27.707     1309.140     1815.538      767.703        0.505        0.195       78.695       26.837        0.116      331.099       -1.106      869.307
12/11/2013  15:49:00       62.083       75.493       -3.189       35.830       33.466       32.382     1283.791     1119.983     1048.593        0.651        0.173       97.742       25.794        0.070      331.081       -1.134      869.309
12/11/2013  15:50:00       45.556       60.359       -4.768       38.545       34.733       21.251     1485.741     1206.383      451.623        0.444        0.157       75.622       17.411        0.053      331.098       -1.106      869.310
12/11/2013  15:51:00       43.093       81.145       -0.847       37.004       50.182       37.233     1369.289     2518.256     1386.309        0.686        0.264       91.878       33.196        0.131      331.067       -1.157      869.321
12/11/2013  15:52:00       25.025      104.396      -12.678       31.050       53.982       25.401      964.124     2914.071      645.221        0.810        0.226      107.354       27.767        0.067      331.060       -1.170      869.341
12/11/2013  15:53:00       32.151      114.758      -19.780       33.815       33.406       17.564     1143.483     1115.942      308.510        0.858        0.128      119.177        5.279        0.002      331.103       -1.099      869.345
12/11/2013  15:54:00       43.537       75.093       -5.097       36.258       39.289       20.412     1314.662     1543.650      416.632        0.542        0.164       86.801       20.687        0.057      331.074       -1.146      869.336
12/11/2013  15:55:00       30.305       76.039      -10.481       28.633       26.380       18.173      819.861      695.922      330.254        0.433        0.092       81.855       12.543        0.023      331.113       -1.082      869.339
12/11/2013  15:56:00       19.765       59.592       -1.881       26.741       38.230       26.950      715.061     1461.565      726.312        0.342        0.145       62.785       27.213        0.188      331.112       -1.084      869.346
12/11/2013  15:57:00       21.307       26.392        8.733       27.416       33.313       23.847      751.621     1109.748      568.676        0.183        0.122       33.919       20.156        0.353      331.080       -1.136      869.341
12/11/2013  15:58:00        8.127       97.636      -13.073       31.749       41.000       18.743     1008.017     1681.010      351.297        0.640        0.152       97.973       15.447        0.025      331.069       -1.154      869.351
12/11/2013  15:59:00        7.223       81.114      -13.383       20.798       44.415       18.655      432.560     1972.727      348.000        0.478        0.138       81.435       25.570        0.099      331.082       -1.131      869.354
12/11/2013  16:00:00       27.411       50.563        2.885       46.749       34.871       20.911     2185.512     1215.983      437.283        0.358        0.192       57.515       18.664        0.105      331.068       -1.155      869.354
12/11/2013  16:01:00        2.934       31.657        3.741       31.963       21.905       19.550     1021.648      479.824      382.188        0.145        0.094       31.792       13.363        0.177      331.083       -1.132      869.358
12/11/2013  16:02:00       56.939       39.938        7.939       30.231       25.383       22.174      913.901      644.306      491.668        0.347        0.102       69.549       11.815        0.029      331.016       -1.242      869.347
12/11/2013  16:03:00       52.396       61.082       -0.191       35.448       34.996       27.571     1256.537     1224.706      760.138        0.486        0.162       80.476       23.932        0.088      331.023       -1.230      869.336
12/11/2013  16:04:00       49.952       49.015       10.358       33.020       29.459       27.736     1090.302      867.827      769.298        0.387        0.136       69.983       21.060        0.091      331.006       -1.257      869.327
12/11/2013  16:05:00       42.240       72.088      -11.853       22.388       29.158       20.322      501.226      850.190      412.988        0.444        0.088       83.552       16.285        0.038      330.993       -1.278      869.306
12/11/2013  16:06:00       45.131       60.096       -2.380       39.586       27.560       23.095     1567.066      759.563      533.396        0.426        0.143       75.156       18.486        0.060      331.008       -1.253      869.296
12/11/2013  16:07:00       40.763       32.601        2.514       31.837       21.688       14.627     1013.602      470.380      213.960        0.221        0.085       52.196        5.404        0.011      331.017       -1.239      869.289
12/11/2013  16:08:00       46.858       56.051       -5.983       31.628       39.023       25.642     1000.335     1522.792      657.538        0.428        0.159       73.057       24.366        0.111      331.005       -1.259      869.289
12/11/2013  16:09:00       46.358       81.951       -9.516       24.798       24.490       22.802      614.920      599.759      519.953        0.534        0.087       94.154       14.481        0.024      330.994       -1.277      869.278
12/11/2013  16:10:00       26.345       49.150        3.844       21.760       24.478       19.619      473.477      599.196      384.905        0.229        0.073       55.765       16.791        0.091      330.989       -1.284      869.287
12/11/2013  16:11:00       25.636       50.245        3.330       22.655       33.907       18.933      513.261     1149.689      358.452        0.261        0.101       56.407       18.016        0.102      330.988       -1.287      869.281
12/11/2013  16:12:00       26.087       71.923       -8.163       18.674       30.616       14.571      348.729      937.364      212.319        0.371        0.075       76.508       13.176        0.030      330.987       -1.290      869.278
12/11/2013  16:13:00       33.862       87.491      -14.927       12.046       22.362       15.461      145.108      500.067      239.043        0.495        0.044       93.815       10.068        0.012      330.990       -1.284      869.278
12/11/2013  16:14:00       32.543       45.756       -3.222       19.880       27.274       16.879      395.227      743.892      284.913        0.229        0.071       56.148       16.052        0.082      330.970       -1.316      869.295
12/11/2013  16:15:00       39.223       49.974       -0.914       18.762       15.381       14.419      352.031      236.582      207.900        0.242        0.040       63.528       10.470        0.027      330.983       -1.296      869.294
12/11/2013  16:16:00       43.079       67.014        1.399       17.044       21.894       13.331      290.481      479.326      177.710        0.365        0.047       79.666       13.436        0.028      330.956       -1.341      869.303
12/11/2013  16:17:00       57.562       45.560        7.831       18.611       17.229       18.333      346.369      296.832      336.098        0.321        0.049       73.410       12.913        0.031      330.989       -1.287      869.310
12/11/2013  16:18:00       47.133       51.033        0.604       23.203       32.713       18.874      538.389     1070.152      356.219        0.340        0.098       69.468       16.602        0.057      330.950       -1.350      869.318
12/11/2013  16:19:00       40.986       94.034      -15.447       22.876       34.119       21.367      523.307     1164.104      456.541        0.645        0.107      102.578       20.934        0.042      330.855       -1.505      869.328
12/11/2013  16:20:00       42.596       38.528        4.716       28.455       31.175       21.153      809.669      971.872      447.451        0.277        0.111       57.436       20.965        0.133      330.846       -1.519      869.331
12/11/2013  16:21:00       29.549       61.365       -1.506       23.934       33.207       22.614      572.853     1102.714      511.407        0.341        0.109       68.108       19.366        0.081      330.817       -1.568      869.336
12/11/2013  16:22:00       48.218       54.962       -0.486       27.799       22.670       21.719      772.808      513.931      471.698        0.355        0.088       73.115       14.055        0.037      330.814       -1.573      869.335
12/11/2013  16:23:00       43.511       46.951       -6.458       30.647       36.045       19.606      939.239     1299.244      384.389        0.338        0.131       64.013       18.273        0.081      330.801       -1.592      869.346
12/11/2013  16:24:00       44.305       66.477       -0.890       35.382       36.872       29.413     1251.909     1359.539      865.111        0.493        0.174       79.888       24.733        0.096      330.785       -1.620      869.350
12/11/2013  16:25:00       42.339       58.090       -3.027       31.906       32.875       28.589     1017.962     1080.797      817.339        0.405        0.146       71.883       23.842        0.110      330.784       -1.621      869.352
12/11/2013  16:26:00       23.129       47.582        2.119       32.336       37.166       24.181     1045.627     1381.343      584.724        0.291        0.151       52.905       23.846        0.203      330.779       -1.631      869.356
12/11/2013  16:27:00       32.061       47.450        7.636       31.105       28.798       25.076      967.498      829.297      628.804        0.288        0.121       57.266       18.533        0.105      330.743       -1.689      869.365
12/11/2013  16:28:00       26.439       39.496        1.678       31.575       36.107       20.857      997.008     1303.744      435.003        0.250        0.137       47.529       20.752        0.191      330.746       -1.686      869.378
12/11/2013  16:29:00       36.384       84.457       -9.289       24.734       41.286       21.565      611.771     1704.565      465.067        0.566        0.139       91.961       21.571        0.055      330.727       -1.716      869.383
12/11/2013  16:30:00       26.645       72.703       -4.217       36.945       52.459       28.315     1364.936     2751.942      801.714        0.547        0.246       77.432       31.761        0.168      330.722       -1.723      869.392
12/11/2013  16:31:00       31.165       70.915       -8.637       24.917       29.683       21.071      620.838      881.072      443.987        0.401        0.097       77.461       16.598        0.046      330.692       -1.773      869.398
12/11/2013  16:32:00       37.031       71.200       -2.953       34.318       38.835       27.368     1177.717     1508.177      749.006        0.494        0.172       80.255       22.605        0.079      330.672       -1.805      869.412
12/11/2013  16:33:00       50.516       56.809        4.715       44.616       37.279       33.656     1990.628     1389.739     1132.754        0.516        0.226       76.021       24.417        0.103      330.614       -1.901      869.422
12/11/2013  16:34:00       38.089       41.549       -7.496       41.601       26.162       23.301     1730.642      684.458      542.955        0.310        0.148       56.366       14.024        0.062      330.574       -1.965      869.435
12/11/2013  16:35:00       25.662       48.274       -2.273       34.113       29.077       20.985     1163.669      845.479      440.351        0.272        0.122       54.671       16.482        0.091      330.568       -1.976      869.442
12/11/2013  16:36:00       37.785       63.773       -4.005       51.251       40.573       30.131     2626.707     1646.198      907.863        0.534        0.259       74.127       25.404        0.117      330.576       -1.962      869.458
12/11/2013  16:37:00       -0.361      122.166       -7.684       25.860       47.019       23.783      668.734     2210.809      565.613        0.921        0.172      122.167       27.413        0.050      330.573       -1.967      869.465
12/11/2013  16:38:00        4.020      145.577      -24.281       21.571       25.255       13.809      465.316      637.806      190.692        1.155        0.065      145.633       11.101        0.006      330.597       -1.928      869.471
12/11/2013  16:39:00       13.657       93.490       -8.060       22.460       33.378       20.497      504.429     1114.078      420.116        0.551        0.102       94.482       21.451        0.052      330.566       -1.979      869.472
12/11/2013  16:40:00        2.570      122.392      -17.858       25.565       28.911       16.749      653.563      835.839      280.517        0.854        0.088      122.419       12.402        0.010      330.560       -1.988      869.466
12/11/2013  16:41:00       15.958      103.653      -14.442       29.524       34.874       20.299      871.683     1216.171      412.048        0.685        0.125      104.874       19.793        0.036      330.519       -2.056      869.476
12/11/2013  16:42:00       20.239       97.491       -5.967       32.879       50.648       16.886     1080.998     2565.219      285.140        0.694        0.197       99.570       20.069        0.041      330.515       -2.064      869.479
12/11/2013  16:43:00        2.006       72.961       -3.581       18.527       33.951       22.801      343.267     1152.700      519.871        0.368        0.101       72.989       19.246        0.070      330.508       -2.075      869.499
12/11/2013  16:44:00       29.754       49.557       -4.954       20.359       21.265       13.174      414.487      452.212      173.567        0.220        0.052       57.803       10.198        0.031      330.505       -2.081      869.512
12/11/2013  16:45:00       19.661       55.355       -5.573       25.390       26.291       17.250      644.654      691.207      297.573        0.256        0.082       58.743       15.740        0.072      330.501       -2.085      869.517
12/11/2013  16:46:00       12.039       69.363       -8.088       26.060       25.708       18.370      679.105      660.922      337.443        0.335        0.084       70.401       10.921        0.024      330.493       -2.098      869.517
12/11/2013  16:47:00        8.954       67.106       -7.492       22.188       32.948       15.149      492.290     1085.580      229.491        0.322        0.090       67.701       14.958        0.049      330.519       -2.057      869.525
12/11/2013  16:48:00       14.032       83.241       -5.725       29.329       46.602       18.404      860.202     2171.778      338.690        0.526        0.169       84.416       21.106        0.063      330.505       -2.081      869.530
12/11/2013  16:49:00       10.618       59.490        2.017       23.373       32.857       18.882      546.292     1079.580      356.528        0.282        0.099       60.430       16.092        0.071      330.484       -2.114      869.534
12/11/2013  16:50:00       16.898       67.502       -3.372       31.350       28.170       22.874      982.799      793.534      523.230        0.358        0.115       69.585       18.822        0.073      330.482       -2.117      869.542
12/11/2013  16:51:00       29.613       35.568       -1.480       19.680       23.448       22.692      387.297      549.799      514.908        0.180        0.073       46.282       18.554        0.161      330.463       -2.148      869.539
12/11/2013  16:52:00        9.204       54.038       -5.540       23.091       29.243       12.919      533.201      855.159      166.911        0.230        0.078       54.816       13.307        0.059      330.461       -2.151      869.542
12/11/2013  16:53:00        5.283       51.558       -4.759       21.834       35.489       16.304      476.707     1259.481      265.814        0.235        0.100       51.828       17.193        0.110      330.442       -2.183      869.544
12/11/2013  16:54:00       12.947       45.183      -11.591       25.141       28.119       20.135      632.064      790.669      405.407        0.209        0.091       47.001       15.543        0.109      330.506       -2.078      869.556
12/11/2013  16:55:00       -2.515       60.110      -11.537       17.299       45.033       14.100      299.245     2027.963      198.818        0.314        0.126       60.163       15.128        0.063      330.466       -2.142      869.562
12/11/2013  16:56:00       -8.101      100.596       -7.741       17.845       20.089       12.251      318.452      403.570      150.098        0.556        0.044      100.922        8.544        0.007      330.443       -2.180      869.571
12/11/2013  16:57:00       22.076       71.310       -1.287       15.104       22.360       18.744      228.141      499.984      351.331        0.333        0.054       74.649        7.794        0.011      330.448       -2.172      869.573
12/11/2013  16:58:00        3.592       38.749        8.375       12.533       20.797       16.102      157.080      432.509      259.280        0.122        0.042       38.915       10.093        0.067      330.420       -2.218      869.576
12/11/2013  16:59:00      -21.030        7.719       -2.039       18.162       15.064        7.756      329.851      226.935       60.151        0.056        0.031       22.402        6.808        0.092      330.442       -2.183      869.572
12/11/2013  17:00:00      -18.609       10.402       -3.387       25.996       29.298       14.995      675.803      858.345      224.836        0.111        0.088       21.319        8.338        0.153      330.387       -2.273      869.569
12/11/2013  17:01:00       22.568       11.538       14.521       27.390       19.314       15.009      750.187      373.040      225.275        0.110        0.067       25.347       13.218        0.272      330.353       -2.329      869.575
12/11/2013  17:02:00       -9.948        2.051       -3.962       10.922        8.611        8.696      119.287       74.151       75.625        0.019        0.013       10.158        6.464        0.405      330.283       -2.444      869.570
12/11/2013  17:03:00        0.907        0.381       -1.735        9.375        8.581        6.944       87.889       73.637       48.219        0.011        0.010        0.984        5.178       27.718      330.279       -2.448      869.581
12/11/2013  17:04:00       30.419       12.259       -8.285       14.293       21.019       11.837      204.279      441.816      140.106        0.097        0.039       32.796        7.942        0.059      330.374       -2.295      869.579
12/11/2013  17:05:00      -12.552        5.790       -0.347       27.875       24.328       16.487      776.995      591.835      271.833        0.092        0.082       13.823       15.961        1.333      330.302       -2.414      869.585
12/11/2013  17:06:00      -36.853       -2.532       -6.639       15.939       14.542       13.873      254.042      211.459      192.456        0.103        0.033       36.940       10.413        0.079      330.105       -2.737      869.597
12/11/2013  17:07:00      -55.177      -25.398       -4.931       21.714       22.491       15.912      471.482      505.825      253.192        0.247        0.062       60.741       14.511        0.057      330.082       -2.774      869.602
12/11/2013  17:08:00      -25.108      -16.541       -2.063       16.541       19.992       12.575      273.621      399.660      158.139        0.087        0.042       30.066        9.432        0.098      329.980       -2.939      869.612
12/11/2013  17:09:00      -55.505      -15.806       -4.179       25.522       19.367       14.666      651.378      375.094      215.096        0.229        0.062       57.711       14.405        0.062      329.916       -3.045      869.607
12/11/2013  17:10:00      -22.446      -14.213       -5.467       17.781       16.876       13.114      316.160      284.811      171.989        0.075        0.039       26.568       10.241        0.149      329.919       -3.041      869.611
12/11/2013  17:11:00      -38.201      -14.162       -6.183       24.593       17.656       13.724      604.827      311.718      188.347        0.140        0.055       40.741       12.508        0.094      329.897       -3.077      869.610
12/11/2013  17:12:00      -78.494       -9.586      -14.641       22.088       19.026       12.310      487.901      361.997      151.531        0.373        0.050       79.077        9.604        0.015      329.872       -3.118      869.614
12/11/2013  17:13:00      -47.128       -6.362       -9.457       29.096       27.006       12.387      846.565      729.346      153.446        0.204        0.086       47.556       17.047        0.129      329.876       -3.111      869.627
12/11/2013  17:14:00      -55.031      -12.480      -14.865       22.129       36.101       15.402      489.700     1303.269      237.235        0.272        0.102       56.429       14.747        0.068      329.824       -3.195      869.635
12/11/2013  17:15:00      -67.474      -10.470       -8.814       32.193       28.219       12.027     1036.400      796.307      144.660        0.336        0.099       68.281       13.437        0.039      329.727       -3.354      869.648
12/11/2013  17:16:00      -92.614      -23.652      -16.881       35.245       28.150       11.183     1242.196      792.424      125.064        0.579        0.108       95.586       11.944        0.016      329.698       -3.403      869.655
12/11/2013  17:17:00      -56.021        7.283       -9.679       40.958       22.060       12.094     1677.587      486.642      146.255        0.280        0.116       56.492       11.467        0.041      329.714       -3.376      869.656
12/11/2013  17:18:00      -62.676      -12.952       -3.449       23.387       26.858       14.967      546.961      721.369      224.010        0.280        0.075       64.000       10.258        0.026      329.748       -3.318      869.661
12/11/2013  17:19:00      -42.981       -9.395       -6.039       24.793       12.989       13.783      614.683      168.701      189.964        0.147        0.049       43.996        9.630        0.048      329.687       -3.419      869.664
12/11/2013  17:20:00      -66.733      -10.543      -10.216       35.438       19.511       16.278     1255.874      380.664      264.982        0.328        0.095       67.561       15.447        0.052      329.654       -3.473      869.672
12/11/2013  17:21:00      -36.501      -11.558      -13.241       23.276       22.957       14.241      541.757      527.040      202.811        0.146        0.064       38.287        9.864        0.066      329.727       -3.355      869.680
12/11/2013  17:22:00      -55.732      -10.355      -10.886       21.152       15.551       11.327      447.421      241.840      128.305        0.207        0.041       56.685        7.913        0.019      329.665       -3.454      869.692
12/11/2013  17:23:00      -15.072      -10.459      -26.934       28.457       23.272       14.699      809.786      541.587      216.046        0.131        0.078       18.346       11.162        0.370      329.810       -3.218      869.708
12/11/2013  17:24:00      -12.959       49.167       -9.264       31.014       39.250       16.483      961.889     1540.557      271.694        0.272        0.139       50.846        9.722        0.037      330.043       -2.835      869.713
12/11/2013  17:25:00      -21.997       98.610       -6.746       39.310       46.697       26.983     1545.259     2180.641      728.072        0.735        0.223      101.033       22.028        0.048      330.199       -2.582      869.728
12/11/2013  17:26:00      -14.472      119.520      -18.927       31.743       46.340       22.001     1007.640     2147.358      484.024        0.925        0.182      120.393       20.353        0.029      330.295       -2.422      869.728
12/11/2013  17:27:00      -35.364        7.717        4.087       40.246       16.692       19.419     1619.757      278.627      377.090        0.180        0.114       36.196        9.080        0.063      329.765       -3.291      869.720
12/11/2013  17:28:00      -53.191       -3.686      -23.230       24.493       16.830       10.866      599.928      283.259      118.063        0.219        0.050       53.319        8.855        0.028      329.656       -3.470      869.718
12/11/2013  17:29:00      -21.481        7.634        1.998       21.167       16.430       14.304      448.051      269.929      204.595        0.072        0.046       22.797       12.593        0.305      329.672       -3.444      869.713
12/11/2013  17:30:00      -73.932       -7.168      -11.600       34.375       28.804       20.768     1181.612      829.684      431.328        0.405        0.122       74.279       19.501        0.069      329.580       -3.596      869.716
12/11/2013  17:31:00      -97.999      -24.910      -10.576       37.937       26.510       19.524     1439.190      702.800      381.181        0.643        0.126      101.115       17.926        0.031      329.468       -3.778      869.714
12/11/2013  17:32:00     -104.754      -27.092      -11.234       33.453       21.798       18.125     1119.128      475.158      328.531        0.688        0.096      108.201       15.431        0.020      329.488       -3.745      869.716
12/11/2013  17:33:00     -115.246      -11.623      -13.507       34.664       22.527       17.549     1201.618      507.480      307.971        0.781        0.101      115.830       15.123        0.017      329.436       -3.830      869.724
12/11/2013  17:34:00     -119.701      -11.565      -15.822       34.363       27.802       19.514     1180.804      772.944      380.811        0.852        0.117      120.258       17.552        0.021      329.500       -3.725      869.745
12/11/2013  17:35:00     -132.584       -4.212      -15.504       31.812       21.005       19.077     1012.004      441.199      363.922        0.983        0.091      132.651       14.800        0.012      329.433       -3.836      869.750
12/11/2013  17:36:00     -126.924        2.634      -19.975       26.713       20.817       17.824      713.581      433.365      317.703        0.899        0.073      126.952       12.788        0.010      329.467       -3.778      869.762
12/11/2013  17:37:00     -105.734       -4.172      -17.821       24.482       22.201       16.070      599.386      492.885      258.256        0.643        0.068      105.816       10.042        0.009      329.487       -3.746      869.774
12/11/2013  17:38:00     -109.742       -1.837      -11.162       33.145       27.151       21.512     1098.575      737.157      462.759        0.723        0.115      109.757       18.698        0.029      329.439       -3.824      869.784
12/11/2013  17:39:00      -96.750       -2.680      -13.425       40.155       26.099       19.003     1612.455      681.173      361.101        0.610        0.133       96.787       13.667        0.020      329.404       -3.883      869.805
12/11/2013  17:40:00      -57.269       -2.612       -0.018       52.519       30.226       24.674     2758.198      913.594      608.812        0.378        0.214       57.328       31.042        0.293      329.379       -3.922      869.808
12/11/2013  17:41:00     -132.600       -0.638      -12.496       54.485       21.502       19.033     2968.634      462.335      362.248        1.077        0.190      132.602       24.974        0.035      329.251       -4.133      869.817
12/11/2013  17:42:00     -109.497       -7.869      -10.302       24.357       22.109       17.895      593.264      488.797      320.244        0.678        0.070      109.779        6.122        0.003      329.334       -3.996      869.825
12/11/2013  17:43:00     -119.077      -21.763       -9.120       21.845       30.400       18.214      477.195      924.188      331.747        0.823        0.087      121.050       13.426        0.012      329.282       -4.082      869.839
12/11/2013  17:44:00     -138.932      -19.002      -16.677       18.114       33.641       18.838      328.101     1131.723      354.886        1.088        0.091      140.226       12.303        0.008      329.324       -4.013      869.858
12/11/2013  17:45:00     -131.445      -10.042      -11.747       23.919       23.488       18.127      572.110      551.688      328.587        0.948        0.073      131.828       13.669        0.011      329.284       -4.077      869.853
12/11/2013  17:46:00     -116.454      -18.026      -12.958       30.358       24.665       20.116      921.629      608.359      404.645        0.799        0.097      117.840       16.573        0.020      329.304       -4.046      869.870
12/11/2013  17:47:00     -104.513      -24.230       -6.828       33.832       31.239       17.455     1144.581      975.847      304.687        0.699        0.121      107.285       13.456        0.016      329.323       -4.016      869.871
12/11/2013  17:48:00      -96.438      -36.183      -14.572       29.208       21.672       15.491      853.101      469.670      239.985        0.619        0.078      103.002       12.946        0.016      329.310       -4.036      869.871
12/11/2013  17:49:00     -108.858      -13.196      -14.321       24.751       25.479       14.921      612.633      649.201      222.648        0.686        0.074      109.655        9.334        0.007      329.304       -4.046      869.891
12/11/2013  17:50:00      -91.518      -16.087      -16.923       22.710       19.652       13.074      515.752      386.202      170.930        0.500        0.054       92.922        7.060        0.006      329.319       -4.020      869.899
12/11/2013  17:51:00      -99.197      -17.000      -14.198       25.019       18.007       15.559      625.938      324.244      242.077        0.576        0.060      100.643       12.649        0.016      329.327       -4.007      869.921
12/11/2013  17:52:00      -93.543      -31.052      -13.040       23.332       22.383       15.088      544.368      501.021      227.652        0.558        0.064       98.562       10.087        0.010      329.334       -3.997      869.922
12/11/2013  17:53:00     -122.002      -11.228      -15.307       24.622       19.884       14.321      606.245      395.393      205.104        0.823        0.060      122.517       10.949        0.008      329.262       -4.114      869.924
12/11/2013  17:54:00      -96.738      -18.467      -11.346       22.650       20.962       15.233      513.006      439.391      232.036        0.551        0.059       98.485       11.267        0.013      329.322       -4.017      869.920
12/11/2013  17:55:00      -95.156      -15.267      -12.359       37.441       18.241       14.415     1401.820      332.738      207.794        0.569        0.097       96.373       15.605        0.026      329.295       -4.060      869.919
12/11/2013  17:56:00     -112.561       -0.323      -12.090       28.389       22.234       16.051      805.921      494.368      257.638        0.719        0.078      112.561       15.371        0.019      329.263       -4.112      869.932
12/11/2013  17:57:00      -73.269      -17.505       -2.452       19.351       24.908       16.986      374.461      620.413      288.540        0.348        0.064       75.331        9.482        0.016      329.306       -4.042      869.927
12/11/2013  17:58:00      -92.334       -5.423      -11.662       25.469       15.971       13.827      648.646      255.071      191.197        0.489        0.055       92.493        8.961        0.009      329.239       -4.152      869.946
12/11/2013  17:59:00      -74.138      -27.869       -8.084       22.186       18.473       17.138      492.234      341.267      293.711        0.373        0.056       79.203       13.677        0.030      329.328       -4.009      869.954
12/11/2013  18:00:00      -43.540      -24.092       -7.644       36.231       14.156       14.503     1312.684      200.391      210.345        0.213        0.086       49.761       11.434        0.053      329.344       -3.982      869.971
12/11/2013  18:01:00      -20.332      -37.467       -3.741       36.034       20.965       20.875     1298.425      439.547      435.783        0.200        0.109       42.629       17.336        0.165      329.316       -4.027      869.978
12/11/2013  18:02:00      -79.048      -29.729      -10.958       17.236       15.854       11.933      297.082      251.341      142.391        0.397        0.035       84.453       10.204        0.015      329.224       -4.176      869.990
12/11/2013  18:03:00      -77.270      -20.317      -13.978       23.126       20.496       12.918      534.791      420.069      166.887        0.385        0.056       79.896       12.804        0.026      329.238       -4.155      870.003
12/11/2013  18:04:00      -99.414      -19.917      -12.070       25.587       20.098       15.266      654.716      403.910      233.044        0.586        0.065      101.389       11.579        0.013      329.282       -4.081      870.013
12/11/2013  18:05:00      -73.243      -24.047      -11.784       28.591       26.324       14.050      817.446      692.933      197.400        0.389        0.085       77.090       13.085        0.029      329.216       -4.190      870.019
12/11/2013  18:06:00      -67.080       -9.561       -2.009       25.571       17.654       18.096      653.860      311.651      327.464        0.294        0.065       67.758       15.930        0.055      329.254       -4.127      870.020
12/11/2013  18:07:00      -76.843      -19.138       -9.228       23.443       16.201       14.650      549.582      262.486      214.621        0.369        0.051       79.190       13.672        0.030      329.190       -4.231      870.032
12/11/2013  18:08:00      -75.169        8.169       -4.442       18.451       13.838       15.969      340.443      191.499      255.014        0.326        0.039       75.611       13.572        0.032      329.176       -4.256      870.031
12/11/2013  18:09:00      -68.356       -2.025      -11.776       16.856       11.151       14.975      284.115      124.352      224.260        0.272        0.032       68.386        7.282        0.011      329.151       -4.297      870.035
12/11/2013  18:10:00      -78.841       -4.600       -5.714       21.210       12.902       14.978      449.859      166.465      224.343        0.356        0.042       78.975        9.225        0.014      329.171       -4.264      870.028
12/11/2013  18:11:00      -83.984       -7.299      -11.630       23.799       17.227       12.500      566.377      296.754      156.244        0.413        0.051       84.301        8.766        0.011      329.094       -4.388      870.037
12/11/2013  18:12:00      -61.845      -29.728      -16.036       13.796       16.126        8.730      190.323      260.037       76.221        0.275        0.026       68.619        6.481        0.009      329.116       -4.352      870.038
12/11/2013  18:13:00      -90.744        3.830      -12.015       20.343       17.259       14.285      413.851      297.882      204.056        0.465        0.046       90.825        4.865        0.003      329.101       -4.376      870.034
12/11/2013  18:14:00      -71.400        1.534       -8.463       20.461       13.927       13.294      418.670      193.964      176.744        0.298        0.039       71.416        7.449        0.011      329.124       -4.339      870.047
12/11/2013  18:15:00      -74.952        5.388      -10.052       15.876       12.529       11.715      252.056      156.975      137.232        0.315        0.027       75.146        7.166        0.009      329.197       -4.220      870.058
12/11/2013  18:16:00     -115.994        6.910      -17.694       13.598       13.562       13.513      184.910      183.927      182.590        0.718        0.028      116.200        6.035        0.003      329.155       -4.290      870.050
12/11/2013  18:17:00      -82.918       -6.537      -13.288       13.640       14.426       12.811      186.059      208.095      164.127        0.383        0.028       83.175        3.626        0.002      329.086       -4.402      870.050
12/11/2013  18:18:00      -80.330       -5.527       -8.669       13.236       14.335       14.592      175.189      205.481      212.923        0.358        0.030       80.520        3.580        0.002      329.059       -4.446      870.046
12/11/2013  18:19:00      -90.190       -3.126       -5.121       15.433       23.217       12.401      238.169      539.012      153.776        0.455        0.047       90.245        8.280        0.008      329.105       -4.372      870.031
12/11/2013  18:20:00     -103.735       -7.410      -14.529       15.914       20.752       13.518      253.268      430.629      182.726        0.595        0.043      103.999        3.893        0.001      329.061       -4.443      870.048
12/11/2013  18:21:00      -82.359      -35.359      -20.353       24.014       20.002       14.065      576.687      400.067      197.831        0.481        0.059       89.628       12.825        0.020      329.073       -4.423      870.057
12/11/2013  18:22:00      -79.376      -28.552      -18.443       22.801       21.424       13.699      519.868      458.990      187.672        0.431        0.058       84.355        9.192        0.012      329.098       -4.382      870.056
12/11/2013  18:23:00      -88.295      -14.344       -6.168       20.002       16.647       14.331      400.082      277.114      205.386        0.446        0.044       89.453        9.781        0.012      329.121       -4.344      870.067
12/11/2013  18:24:00     -104.479      -14.415      -11.337       15.157       19.279       14.074      229.721      371.682      198.075        0.603        0.040      105.469        6.394        0.004      329.093       -4.390      870.074
12/11/2013  18:25:00     -104.738        3.839      -10.357       20.999       16.649       16.180      440.972      277.204      261.788        0.604        0.049      104.808       10.945        0.011      329.067       -4.433      870.067
12/11/2013  18:26:00     -101.502        5.907       -7.075       28.133       26.712       17.541      791.469      713.545      307.670        0.610        0.091      101.674       14.999        0.022      329.024       -4.502      870.077
12/11/2013  18:27:00     -139.433        4.150      -13.472       23.137       18.352       16.654      535.300      336.804      277.361        1.039        0.057      139.495        8.287        0.004      328.977       -4.581      870.081
12/11/2013  18:28:00     -125.862      -14.818      -15.016       22.154       19.883       14.915      490.803      395.321      222.444        0.870        0.055      126.731        7.184        0.003      328.954       -4.618      870.073
12/11/2013  18:29:00      -89.023      -21.698       -6.404       30.036       25.267       16.681      902.169      638.406      278.264        0.513        0.091       91.629       14.802        0.026      328.905       -4.697      870.070
12/11/2013  18:30:00     -107.861        4.312       -7.712       47.846       29.628       21.834     2289.207      877.810      476.729        0.768        0.182      107.947       26.611        0.061      328.920       -4.672      870.067
12/11/2013  18:31:00      -52.245        1.555       -1.171       28.937       30.415       19.268      837.321      925.075      371.273        0.243        0.107       52.268        8.311        0.025      328.904       -4.698      870.051
12/11/2013  18:32:00      -48.935       -8.234        1.115       27.592       29.768       18.520      761.300      886.156      343.007        0.223        0.100       49.622       12.242        0.061      328.912       -4.687      870.050
12/11/2013  18:33:00      -25.554       -3.504        7.249       32.704       28.227       19.538     1069.544      796.745      381.731        0.148        0.112       25.793        9.824        0.145      328.876       -4.746      870.052
12/11/2013  18:34:00      -28.723       -6.518        3.783       42.559       24.458       23.491     1811.260      598.211      551.821        0.192        0.148       29.453       23.245        0.623      328.862       -4.768      870.047
12/11/2013  18:35:00      -90.849       -3.298       -6.980       45.137       28.197       20.014     2037.325      795.081      400.578        0.577        0.162       90.909       16.349        0.032      328.904       -4.699      870.047
12/11/2013  18:36:00      -59.974      -12.089        2.187       51.618       32.903       22.777     2664.435     1082.599      518.796        0.401        0.213       61.180       21.074        0.119      328.929       -4.659      870.052
12/11/2013  18:37:00      -27.467        0.606        7.481       43.408       28.717       22.162     1884.231      824.652      491.145        0.200        0.160       27.474       20.587        0.561      328.876       -4.746      870.051
12/11/2013  18:38:00      -48.617       -3.826       -1.832       45.703       35.416       25.666     2088.798     1254.305      658.756        0.319        0.200       48.767       19.333        0.157      328.835       -4.811      870.052
12/11/2013  18:39:00      -47.911       -4.179        1.753       47.339       23.699       19.181     2240.948      561.649      367.900        0.274        0.159       48.092       23.887        0.247      328.797       -4.873      870.061
12/11/2013  18:40:00      -63.045       -0.498       -2.229       52.953       30.777       23.032     2804.057      947.212      530.465        0.413        0.214       63.047       24.813        0.155      328.755       -4.942      870.067
12/11/2013  18:41:00      -22.118      -17.314       15.053       28.656       39.149       21.917      821.154     1532.669      480.361        0.192        0.142       28.089       16.676        0.352      328.741       -4.965      870.070
12/11/2013  18:42:00      -49.563      -17.612        5.953       46.896       35.760       25.575     2199.223     1278.783      654.092        0.347        0.207       52.600       28.509        0.294      328.763       -4.929      870.085
12/11/2013  18:43:00      -67.847       -8.969       -2.257       47.848       27.056       21.932     2289.465      732.047      481.028        0.409        0.175       68.437       15.195        0.049      328.750       -4.951      870.094
12/11/2013  18:44:00      -72.351      -11.735       -4.591       52.519       30.717       15.014     2758.233      943.558      225.419        0.466        0.196       73.297       16.271        0.049      328.799       -4.870      870.093
12/11/2013  18:45:00      -79.823       -2.213       -6.566       30.635       31.990       16.783      938.511     1023.354      281.654        0.433        0.112       79.854       14.887        0.035      328.789       -4.888      870.106
12/11/2013  18:46:00      -83.633      -30.135       -6.615       35.224       36.392       14.612     1240.757     1324.364      213.517        0.536        0.139       88.897       10.972        0.015      328.853       -4.781      870.101
12/11/2013  18:47:00      -53.537        8.152       -5.210       34.933       23.506       17.507     1220.302      552.543      306.489        0.252        0.104       54.154       12.586        0.054      328.775       -4.909      870.106
12/11/2013  18:48:00      -67.034       -3.965       -9.699       38.751       25.611       23.468     1501.662      655.948      550.739        0.366        0.135       67.151       23.929        0.127      328.751       -4.949      870.121
12/11/2013  18:49:00      -48.420        5.063       -1.124       43.572       30.724       22.355     1898.507      943.978      499.737        0.286        0.167       48.684       22.775        0.219      328.761       -4.932      870.123
12/11/2013  18:50:00      -60.827      -23.360       -7.080       29.721       25.909       16.765      883.365      671.298      281.076        0.307        0.092       65.159       13.516        0.043      328.738       -4.971      870.120
12/11/2013  18:51:00      -50.816      -18.861       -6.555       31.227       27.859       16.591      975.139      776.097      275.264        0.250        0.101       54.203       10.883        0.040      328.773       -4.912      870.116
12/11/2013  18:52:00      -46.081      -23.373       -1.811       31.586       27.034       15.688      997.671      730.820      246.124        0.232        0.099       51.669       13.957        0.073      328.737       -4.972      870.133
12/11/2013  18:53:00      -33.101      -25.568        2.294       24.334       23.850       17.803      592.141      568.823      316.941        0.162        0.074       41.826        7.582        0.033      328.759       -4.934      870.129
12/11/2013  18:54:00      -52.235      -23.680       -7.822       25.584       24.634       16.684      654.531      606.836      278.367        0.244        0.077       57.352        9.377        0.027      328.740       -4.967      870.129
12/11/2013  18:55:00      -10.031       -8.400       -5.220       18.538       16.587       13.388      343.659      275.120      179.239        0.050        0.040       13.083        8.251        0.398      328.681       -5.064      870.136
12/11/2013  18:56:00      -11.669       -5.958        0.963       18.311       12.895       15.149      335.294      166.288      229.483        0.045        0.037       13.102       12.614        0.927      328.687       -5.054      870.142
12/11/2013  18:57:00      -28.315       -8.059      -10.967       21.787       25.295       17.852      474.674      639.824      318.684        0.121        0.072       29.439       14.170        0.232      328.633       -5.140      870.144
12/11/2013  18:58:00      -64.305        8.957      -11.572       25.174       22.136       15.174      633.716      490.011      230.256        0.285        0.068       64.926       12.926        0.040      328.685       -5.057      870.158
12/11/2013  18:59:00      -55.681      -18.204       -8.559       14.373       15.755       12.604      206.587      248.234      158.852        0.206        0.031       58.581        6.924        0.014      328.743       -4.962      870.168
12/11/2013  19:00:00      -42.616      -17.668       -2.685       17.216       17.281        9.889      296.381      298.640       97.789        0.141        0.035       46.134        8.943        0.038      328.729       -4.986      870.171
12/11/2013  19:01:00      -64.221      -17.083      -10.087       21.574       18.368       10.973      465.452      337.376      120.408        0.272        0.046       66.455        9.855        0.022      328.679       -5.066      870.167
12/11/2013  19:02:00      -84.390      -13.208      -12.304       22.197       21.065       17.022      492.723      443.753      289.752        0.434        0.061       85.417        8.935        0.011      328.662       -5.093      870.174
12/11/2013  19:03:00      -67.231       -6.684       -8.066       19.361       14.350       14.775      374.842      205.937      218.300        0.271        0.040       67.562       11.012        0.027      328.741       -4.966      870.186
12/11/2013  19:04:00      -69.659      -11.169       -8.700       14.301       14.384        9.823      204.507      206.888       96.490        0.278        0.025       70.549        4.004        0.003      328.715       -5.006      870.182
12/11/2013  19:05:00      -25.278      -24.178       -8.990       14.064        9.756        7.574      197.795       95.184       57.360        0.083        0.018       34.979        6.069        0.030      328.807       -4.858      870.183
12/11/2013  19:06:00      -35.882      -30.736        0.999       19.636       10.971       12.399      385.577      120.371      153.733        0.145        0.033       47.246       10.657        0.051      328.776       -4.907      870.181
12/11/2013  19:07:00      -12.143      -22.752       -5.652       26.583       12.065       11.497      706.681      145.576      132.177        0.084        0.049       25.789        8.275        0.103      328.799       -4.870      870.206
12/11/2013  19:08:00       -0.521      -10.139        1.283       13.327        8.895        8.460      177.617       79.121       71.566        0.022        0.016       10.153        6.936        0.467      328.793       -4.879      870.225
12/11/2013  19:09:00       14.599       -7.740       14.959        9.557        6.942       11.058       91.333       48.188      122.273        0.038        0.013       16.524        5.964        0.130      328.737       -4.971      870.230
12/11/2013  19:10:00      -18.792      -17.905       -6.779       17.704       15.978        9.918      313.427      255.293       98.363        0.069        0.033       25.956        9.699        0.140      328.667       -5.085      870.237
12/11/2013  19:11:00      -45.223      -32.594       -7.147       25.841       19.082       12.469      667.735      364.109      155.481        0.217        0.059       55.745        8.675        0.024      328.666       -5.087      870.238
12/11/2013  19:12:00      -41.401      -21.723        1.043       20.806       16.726       17.228      432.896      279.759      296.814        0.160        0.050       46.754        4.226        0.008      328.599       -5.197      870.244
12/11/2013  19:13:00      -71.271      -37.503       -7.447       12.847       14.468       14.194      165.055      209.332      201.463        0.356        0.029       80.535        6.583        0.007      328.533       -5.304      870.237
12/11/2013  19:14:00      -71.628      -34.455       -5.687       21.667       19.338       12.862      469.439      373.972      165.425        0.368        0.050       79.484        9.824        0.015      328.615       -5.171      870.235
12/11/2013  19:15:00      -89.584      -31.990       -9.658       16.656       23.397       11.330      277.420      547.439      128.360        0.505        0.048       95.125        6.896        0.005      328.610       -5.177      870.240
12/11/2013  19:16:00      -82.095      -25.524      -12.050       13.309       22.572       12.419      177.126      509.509      154.222        0.419        0.042       85.972        9.086        0.011      328.591       -5.210      870.252
12/11/2013  19:17:00      -65.147      -13.151       -4.841       12.690       21.504       14.693      161.044      462.407      215.896        0.264        0.042       66.461        8.563        0.017      328.632       -5.143      870.255
12/11/2013  19:18:00      -83.002       -3.480      -14.520        7.269        7.221        9.006       52.842       52.136       81.113        0.365        0.009       83.075        5.021        0.004      328.543       -5.289      870.256
12/11/2013  19:19:00      -79.753      -20.201      -11.764       13.533       14.049       10.219      183.134      197.387      104.435        0.370        0.024       82.272        7.638        0.009      328.587       -5.215      870.255
12/11/2013  19:20:00      -77.415      -33.595       -9.603       12.703       15.885        9.856      161.371      252.331       97.134        0.386        0.026       84.390        5.705        0.005      328.624       -5.155      870.255
12/11/2013  19:21:00      -67.592      -19.304       -7.555       20.134       15.662       10.625      405.367      245.296      112.897        0.288        0.038       70.295        9.131        0.017      328.598       -5.199      870.270
12/11/2013  19:22:00      -59.257      -16.184       -5.519       18.912       15.313       12.323      357.677      234.476      151.847        0.227        0.037       61.427        6.577        0.011      328.534       -5.303      870.276
12/11/2013  19:23:00      -93.615        0.478      -13.455       11.327        8.725        8.279      128.292       76.123       68.540        0.461        0.014       93.617        4.007        0.002      328.460       -5.425      870.276
12/11/2013  19:24:00     -102.601        0.792      -10.695       14.669        8.256        9.056      215.178       68.157       82.010        0.550        0.018      102.604        5.378        0.003      328.477       -5.396      870.276
12/11/2013  19:25:00     -100.976      -16.759      -12.183       26.099       14.707       13.613      681.162      216.299      185.319        0.585        0.054      102.357        7.782        0.006      328.454       -5.433      870.273
12/11/2013  19:26:00      -77.495      -28.102       -4.539       24.762       22.153       12.317      613.134      490.766      151.720        0.404        0.063       82.433        6.908        0.007      328.417       -5.493      870.276
12/11/2013  19:27:00      -99.667       -5.859      -11.997       17.299       15.897       11.232      299.252      252.709      126.152        0.539        0.034       99.839        4.784        0.002      328.350       -5.603      870.285
12/11/2013  19:28:00      -87.253      -24.771      -13.522       19.445       18.719       11.601      378.105      350.406      134.576        0.464        0.043       90.701        5.158        0.003      328.437       -5.460      870.292
12/11/2013  19:29:00      -96.990      -15.177      -12.607       17.469       15.530       13.445      305.175      241.169      180.779        0.526        0.036       98.171        5.618        0.003      328.339       -5.621      870.301
12/11/2013  19:30:00      -98.037      -18.271      -12.281       21.108       25.485       11.676      445.543      649.476      136.324        0.566        0.062       99.725        9.423        0.009      328.309       -5.669      870.313
12/11/2013  19:31:00     -105.353       -0.527      -12.326       19.161       17.193       16.202      367.145      295.599      262.495        0.609        0.046      105.354        9.580        0.008      328.303       -5.678      870.325
12/11/2013  19:32:00      -89.490       -5.830      -10.323       13.873       15.195       14.517      192.453      230.896      210.729        0.439        0.032       89.680        8.071        0.008      328.287       -5.704      870.338
12/11/2013  19:33:00      -76.414       -4.164      -11.294       12.142       12.303       11.274      147.439      151.370      127.097        0.320        0.021       76.527        5.125        0.004      328.278       -5.720      870.340
12/11/2013  19:34:00      -83.216       -7.688      -11.736        9.192       13.520       11.244       84.488      182.780      126.423        0.376        0.020       83.570        5.841        0.005      328.331       -5.634      870.346
12/11/2013  19:35:00     -101.794       -2.962      -13.778       17.304       12.813       12.500      299.428      164.182      156.258        0.559        0.031      101.837        9.396        0.009      328.322       -5.648      870.347
12/11/2013  19:36:00      -97.210       -2.053      -14.495       17.837       13.576       17.893      318.173      184.295      320.169        0.524        0.041       97.232        9.594        0.010      328.255       -5.758      870.363
12/11/2013  19:37:00     -103.755        7.566       -9.150       41.825       20.243       22.141     1749.303      409.796      490.243        0.678        0.132      104.031       19.717        0.036      328.219       -5.815      870.376
12/11/2013  19:38:00     -129.787        2.153      -14.171       33.185       17.744       18.787     1101.255      314.858      352.933        0.941        0.088      129.804       19.391        0.022      328.146       -5.936      870.372
12/11/2013  19:39:00     -139.861       -2.176      -15.049       20.460       17.934       13.973      418.600      321.612      195.256        1.036        0.047      139.878        6.978        0.002      328.173       -5.891      870.372
12/11/2013  19:40:00     -124.979      -18.125      -12.658       38.165       25.080       17.082     1456.563      629.011      291.789        0.924        0.119      126.286       17.500        0.019      328.129       -5.963      870.377
12/11/2013  19:41:00     -157.908      -16.590      -13.895       21.351       15.663       14.315      455.863      245.342      204.916        1.315        0.045      158.777       10.832        0.005      328.053       -6.087      870.385
12/11/2013  19:42:00     -132.511       14.125      -16.429       29.621       20.354       14.775      877.422      414.291      218.289        0.977        0.076      133.262        5.987        0.002      328.055       -6.083      870.386
12/11/2013  19:43:00     -112.946       -1.167       -9.678       26.966       21.829       19.495      727.166      476.484      380.062        0.722        0.079      112.952       15.747        0.019      328.033       -6.120      870.387
12/11/2013  19:44:00     -145.979       -9.418      -16.665       22.664       17.923       15.657      513.636      321.229      245.138        1.138        0.054      146.282        8.733        0.004      327.993       -6.184      870.394
12/11/2013  19:45:00     -150.898      -12.800      -19.041       24.136       20.407       16.547      582.567      416.448      273.800        1.228        0.064      151.440        9.285        0.004      328.004       -6.167      870.396
12/11/2013  19:46:00     -142.483       -7.848      -14.317       27.055       23.317       17.452      731.980      543.664      304.584        1.107        0.079      142.699       10.703        0.006      327.992       -6.186      870.388
12/11/2013  19:47:00     -148.924      -11.700      -15.653       19.751       19.757       14.637      390.104      390.342      214.232        1.178        0.050      149.383        7.428        0.002      327.964       -6.230      870.386
12/11/2013  19:48:00     -108.125      -16.365      -13.794       29.950       21.539       18.603      897.015      463.936      346.076        0.693        0.085      109.356       10.951        0.010      327.999       -6.175      870.397
12/11/2013  19:49:00     -117.631       -3.923      -20.772       25.842       16.063       12.246      667.806      258.007      149.961        0.768        0.054      117.696        7.280        0.004      327.974       -6.215      870.395
12/11/2013  19:50:00     -110.816       -8.004      -24.675       20.682       20.589       17.291      427.732      423.891      298.980        0.705        0.058      111.105        9.819        0.008      327.958       -6.241      870.414
12/11/2013  19:51:00     -119.154       -3.015      -16.084       22.826       17.234       15.860      521.011      296.999      251.554        0.777        0.053      119.192        2.617        0.000      327.955       -6.246      870.421
12/11/2013  19:52:00      -97.221      -21.468      -16.633       19.632       14.290       12.233      385.408      204.206      149.657        0.546        0.037       99.563        3.245        0.001      327.947       -6.259      870.425
12/11/2013  19:53:00     -108.030       -5.479      -14.865       31.698       20.681       15.277     1004.755      427.696      233.375        0.679        0.083      108.169       14.671        0.018      327.945       -6.261      870.429
12/11/2013  19:54:00      -93.309       -7.537      -11.004       24.045       15.675       12.997      578.158      245.707      168.919        0.494        0.050       93.612       10.258        0.012      327.938       -6.273      870.424
12/11/2013  19:55:00      -97.245      -12.107      -14.561       18.413       19.052       12.358      339.048      362.988      152.721        0.533        0.043       97.995        7.498        0.006      327.914       -6.312      870.432
12/11/2013  19:56:00      -92.309      -19.089       -3.775       30.770       23.962       11.551      946.797      574.183      133.432        0.528        0.083       94.262       10.102        0.011      327.956       -6.243      870.441
12/11/2013  19:57:00     -118.849      -12.723      -12.402       25.433       17.737       14.233      646.834      314.618      202.565        0.780        0.058      119.528        8.774        0.005      327.887       -6.356      870.452
12/11/2013  19:58:00     -103.535      -12.251      -17.768       25.787       22.551       14.987      664.990      508.568      224.609        0.629        0.070      104.257        9.405        0.008      327.886       -6.357      870.474
12/11/2013  19:59:00     -100.915        3.386      -14.761       17.408       13.804       14.090      303.026      190.537      198.519        0.555        0.035      100.972        8.017        0.006      327.943       -6.265      870.481
12/11/2013  20:00:00     -109.435      -16.327      -11.772       24.312       20.347       17.485      591.057      413.985      305.721        0.685        0.066      110.646        6.004        0.003      327.915       -6.309      870.479
12/11/2013  20:01:00     -134.857       -1.185      -18.928       25.528       21.475       28.285      651.686      461.193      800.049        1.023        0.096      134.862       20.176        0.022      327.882       -6.364      870.494
12/11/2013  20:02:00     -125.462       -1.845      -19.534       26.031       18.392       15.678      677.629      338.250      245.811        0.869        0.063      125.475        9.350        0.006      327.838       -6.438      870.499
12/11/2013  20:03:00     -118.957      -16.765      -10.667       33.461       27.310       21.460     1119.637      745.816      460.523        0.844        0.116      120.133       19.933        0.028      327.842       -6.432      870.509
12/11/2013  20:04:00     -141.563       -9.280      -12.544       33.757       24.267       20.610     1139.564      588.911      424.790        1.122        0.108      141.866       17.407        0.015      327.850       -6.417      870.526
12/11/2013  20:05:00     -131.377      -11.302      -19.694       22.976       24.601       15.442      527.882      605.212      238.461        0.957        0.069      131.862       10.025        0.006      327.827       -6.455      870.522
12/11/2013  20:06:00     -118.990       -0.589      -16.191       23.340       16.522       19.220      544.757      272.963      369.411        0.780        0.059      118.992       13.448        0.013      327.839       -6.436      870.518
12/11/2013  20:07:00     -135.492        0.592      -18.661       17.682       17.642       15.295      312.665      311.237      233.941        0.978        0.043      135.493        5.509        0.002      327.866       -6.390      870.517
12/11/2013  20:08:00     -112.357       -8.209      -10.643       20.883       23.606       17.002      436.110      557.225      289.066        0.704        0.064      112.656        8.093        0.005      327.897       -6.339      870.522
12/11/2013  20:09:00      -95.900       -8.285      -12.162       25.610       17.472       15.818      655.888      305.279      250.211        0.531        0.061       96.257       11.557        0.014      327.927       -6.291      870.527
12/11/2013  20:10:00     -116.526       -3.156      -11.774       21.626       16.809       14.313      467.676      282.550      204.867        0.734        0.048      116.569       10.787        0.009      327.879       -6.370      870.536
12/11/2013  20:11:00     -105.000      -10.884      -14.763       22.966       21.088       11.507      527.437      444.692      132.415        0.623        0.055      105.562        5.273        0.002      327.891       -6.350      870.541
12/11/2013  20:12:00     -115.708       -0.052      -11.134       16.337       16.378       14.088      266.909      268.231      198.462        0.712        0.037      115.708        9.330        0.007      327.833       -6.445      870.551
12/11/2013  20:13:00     -100.059      -18.269      -10.979       19.057       18.676       13.535      363.167      348.777      183.204        0.568        0.045      101.713        6.282        0.004      327.884       -6.360      870.559
12/11/2013  20:14:00      -98.381      -14.769       -9.410       21.154       17.641       16.897      447.501      311.215      285.512        0.551        0.052       99.483       10.544        0.011      327.863       -6.395      870.556
12/11/2013  20:15:00      -95.398       -4.633      -11.405       20.793       17.107       16.732      432.330      292.645      279.966        0.513        0.050       95.510       12.393        0.017      327.851       -6.416      870.563
12/11/2013  20:16:00      -92.406       -0.336      -12.913       14.536       12.869       10.823      211.302      165.611      117.135        0.460        0.025       92.407        4.266        0.002      327.837       -6.439      870.570
12/11/2013  20:17:00     -128.571      -11.370      -13.302       21.308       18.880       17.190      454.019      356.460      295.502        0.897        0.055      129.073        8.392        0.004      327.800       -6.498      870.561
12/11/2013  20:18:00     -110.232      -17.828       -9.803       27.529       19.883       12.382      757.827      395.335      153.313        0.694        0.065      111.664        7.163        0.004      327.819       -6.467      870.552
12/11/2013  20:19:00     -115.863       -8.744      -17.538       23.722       16.246       13.328      562.751      263.941      177.625        0.741        0.050      116.192        8.014        0.005      327.786       -6.521      870.547
12/11/2013  20:20:00     -112.622      -20.949      -18.126       19.192       17.373       15.491      368.316      301.825      239.986        0.718        0.046      114.553        9.806        0.007      327.785       -6.523      870.539
12/11/2013  20:21:00      -81.258      -13.465      -11.828       22.206       15.293       21.182      493.099      233.874      448.677        0.405        0.059       82.366       12.722        0.024      327.785       -6.524      870.538
12/11/2013  20:22:00      -79.951      -15.559      -16.248       13.093       12.713       15.109      171.430      161.618      228.289        0.373        0.028       81.450       10.131        0.015      327.799       -6.501      870.546
12/11/2013  20:23:00      -97.193       13.833       -9.303       24.205       21.723       17.178      585.868      471.904      295.090        0.554        0.068       98.172       17.448        0.032      327.728       -6.615      870.539
12/11/2013  20:24:00     -110.461      -11.098      -15.866       44.239       18.158       18.089     1957.109      329.714      327.199        0.759        0.131      111.018       19.791        0.032      327.676       -6.701      870.535
12/11/2013  20:25:00      -76.024      -28.418       -8.160       22.366       21.754       16.327      500.222      473.246      266.582        0.395        0.062       81.162       11.855        0.021      327.682       -6.691      870.531
12/11/2013  20:26:00      -96.552      -25.038      -15.137       19.782       16.927       13.257      391.309      286.527      175.760        0.552        0.043       99.745        8.814        0.008      327.643       -6.754      870.541
12/11/2013  20:27:00     -117.206       -6.595      -10.594       29.897       26.331       19.979      893.805      693.315      399.174        0.794        0.099      117.391       14.059        0.014      327.626       -6.781      870.540
12/11/2013  20:28:00     -105.644       -5.475      -10.300       21.120       19.853       15.709      446.064      394.146      246.772        0.619        0.054      105.786       11.444        0.012      327.650       -6.742      870.532
12/11/2013  20:29:00     -117.588      -20.119      -16.185       20.615       16.665       12.684      424.979      277.718      160.888        0.768        0.043      119.296        6.159        0.003      327.661       -6.725      870.521
12/11/2013  20:30:00     -112.353       -7.643      -17.309       14.513       12.864       12.740      210.631      165.495      162.318        0.676        0.027      112.613        6.464        0.003      327.654       -6.738      870.538
12/11/2013  20:31:00     -110.315      -10.193      -13.329       25.471       18.327       15.940      648.761      335.861      254.069        0.684        0.062      110.785       11.385        0.011      327.613       -6.802      870.547
12/11/2013  20:32:00     -115.352      -17.421      -12.635       26.271       19.014       16.180      690.172      361.514      261.798        0.754        0.066      116.660       11.184        0.009      327.609       -6.810      870.530
12/11/2013  20:33:00      -97.000       -0.120      -14.670       23.093       17.387       14.707      533.270      302.321      216.283        0.534        0.053       97.000        9.292        0.009      327.608       -6.810      870.522
12/11/2013  20:34:00     -119.187      -11.781      -16.454       21.474       12.540       11.474      461.146      157.260      131.657        0.768        0.038      119.767        6.715        0.003      327.571       -6.870      870.527
12/11/2013  20:35:00     -119.886      -12.023      -11.200       26.233       13.336       12.461      688.159      177.845      155.268        0.783        0.051      120.488        8.603        0.005      327.576       -6.862      870.529
12/11/2013  20:36:00      -95.478       -7.028      -14.154       22.727       16.386       14.521      516.496      268.486      210.871        0.518        0.050       95.736        1.263        0.000      327.586       -6.846      870.518
12/11/2013  20:37:00      -71.755       -8.443       -5.868       28.747       16.367       10.429      826.369      267.863      108.765        0.323        0.060       72.250        9.827        0.019      327.570       -6.871      870.509
12/11/2013  20:38:00      -59.197      -12.094       -6.944       18.194       13.969        9.879      331.027      195.125       97.594        0.216        0.031       60.419        4.634        0.006      327.614       -6.801      870.504
12/11/2013  20:39:00      -49.664      -16.812      -11.819       11.226       11.886        9.159      126.019      141.267       83.892        0.162        0.018       52.432        4.432        0.007      327.670       -6.709      870.498
12/11/2013  20:40:00      -59.386      -18.470      -11.740       11.335       17.124        8.945      128.492      293.228       80.005        0.225        0.025       62.192        6.099        0.010      327.633       -6.770      870.494
12/11/2013  20:41:00      -61.089      -15.725      -12.336        9.213       10.264        7.622       84.882      105.359       58.102        0.219        0.012       63.080        3.809        0.004      327.563       -6.883      870.497
12/11/2013  20:42:00      -59.311      -18.626      -10.997       10.622        9.472        8.978      112.836       89.717       80.613        0.213        0.014       62.167        5.968        0.009      327.579       -6.858      870.503
12/11/2013  20:43:00      -59.761       -8.430       -8.170       10.131        8.863        9.994      102.634       78.559       99.871        0.200        0.014       60.353        6.823        0.013      327.553       -6.899      870.503
12/11/2013  20:44:00      -42.480      -11.003      -12.359        6.781        7.455        4.506       45.982       55.574       20.304        0.110        0.006       43.882        2.315        0.003      327.660       -6.727      870.504
12/11/2013  20:45:00      -37.374      -15.331       -7.884       10.272        9.840        8.284      105.517       96.826       68.631        0.098        0.014       40.396        4.972        0.015      327.714       -6.638      870.505
12/11/2013  20:46:00      -31.123      -16.439      -10.749        7.346        9.108        6.904       53.961       82.953       47.663        0.077        0.009       35.198        3.079        0.008      327.716       -6.635      870.510
12/11/2013  20:47:00      -46.199      -10.069       -7.549        8.775        8.528        6.897       76.994       72.719       47.566        0.124        0.010       47.283        3.792        0.006      327.678       -6.696      870.509
12/11/2013  20:48:00      -56.708      -16.712      -10.035       10.158       10.293        8.797      103.184      105.950       77.391        0.194        0.014       59.119        3.871        0.004      327.575       -6.863      870.499
12/11/2013  20:49:00      -66.008      -19.733       -8.085        9.540        8.897       10.369       91.014       79.150      107.521        0.254        0.014       68.894        4.491        0.004      327.491       -7.002      870.490
12/11/2013  20:50:00      -76.768      -21.043      -17.388        9.082        9.568        6.385       82.478       91.546       40.772        0.343        0.011       79.600        4.466        0.003      327.428       -7.103      870.476
12/11/2013  20:51:00      -88.444      -16.884      -13.046       11.934       13.409       11.619      142.423      179.812      134.992        0.437        0.023       90.041        5.617        0.004      327.427       -7.105      870.461
12/11/2013  20:52:00      -93.954      -18.947      -11.567       18.133       14.356       13.918      328.805      206.084      193.724        0.502        0.036       95.846        9.751        0.010      327.356       -7.221      870.446
12/11/2013  20:53:00      -75.126      -21.858      -12.598       16.280       18.210       14.753      265.042      331.590      217.654        0.355        0.041       78.241        4.561        0.003      327.363       -7.209      870.424
12/11/2013  20:54:00      -77.476      -11.192      -14.337       15.224       15.202        9.417      231.782      231.095       88.681        0.344        0.028       78.280        5.252        0.005      327.376       -7.188      870.406
12/11/2013  20:55:00      -66.922      -18.964      -11.362        9.018       10.648        6.990       81.331      113.387       48.858        0.261        0.012       69.557        1.817        0.001      327.369       -7.199      870.386
12/11/2013  20:56:00      -69.453      -25.746       -8.542       10.349       11.383       10.333      107.109      129.573      106.777        0.295        0.017       74.072        2.105        0.001      327.383       -7.177      870.375
12/11/2013  20:57:00      -59.919      -21.844      -11.636       11.138       14.719        8.734      124.060      216.660       76.286        0.231        0.021       63.777        3.104        0.002      327.360       -7.214      870.364
12/11/2013  20:58:00      -67.021      -10.757      -16.241        8.920        9.045        7.045       79.569       81.819       49.627        0.254        0.011       67.878        5.404        0.006      327.386       -7.170      870.355
12/11/2013  20:59:00      -63.749      -10.943      -14.438        8.544        9.362        8.309       73.006       87.651       69.033        0.231        0.011       64.681        4.208        0.004      327.400       -7.148      870.343
12/11/2013  21:00:00      -65.595      -12.581      -15.843       14.341       12.032        8.372      205.665      144.768       70.084        0.257        0.021       66.791        6.110        0.008      327.367       -7.202      870.341
12/11/2013  21:01:00      -71.678       -9.615       -7.597        9.685       10.768        9.866       93.791      115.959       97.341        0.280        0.015       72.320        6.096        0.007      327.343       -7.243      870.346
12/11/2013  21:02:00      -78.732       -0.188      -16.100       14.288        8.311        9.990      204.160       69.080       99.799        0.342        0.019       78.732        5.853        0.006      327.423       -7.112      870.362
12/11/2013  21:03:00      -77.717       -4.628       -9.608       15.390        9.294       12.085      236.854       86.387      146.042        0.331        0.023       77.855        6.544        0.007      327.381       -7.178      870.370
12/11/2013  21:04:00      -79.086        1.513       -2.945       10.265       11.499       10.911      105.366      132.229      119.048        0.331        0.018       79.100        4.097        0.003      327.547       -6.909      870.370
12/11/2013  21:05:00      -63.338       -6.067      -13.368       12.086       11.504        9.542      146.061      132.336       91.053        0.230        0.018       63.628        3.635        0.003      327.527       -6.943      870.370
12/11/2013  21:06:00      -63.089      -17.203       -4.794       14.655       12.170        8.431      214.778      148.102       71.079        0.237        0.022       65.392        5.515        0.007      327.439       -7.085      870.376
12/11/2013  21:07:00      -77.274      -19.168       -8.299       10.398       12.130        8.194      108.109      147.131       67.134        0.336        0.016       79.616        5.268        0.004      327.343       -7.242      870.381
12/11/2013  21:08:00      -72.415       -9.520      -11.329        8.671        9.194        8.840       75.188       84.521       78.153        0.285        0.012       73.038        3.806        0.003      327.231       -7.423      870.386
12/11/2013  21:09:00      -80.272      -26.046      -11.262       11.541        9.680        9.409      133.190       93.708       88.527        0.378        0.016       84.392        4.298        0.003      327.277       -7.349      870.390
12/11/2013  21:10:00      -72.230      -14.655      -13.480       14.251       12.336        8.448      203.101      152.184       71.365        0.302        0.021       73.701        6.473        0.008      327.247       -7.398      870.396
12/11/2013  21:11:00      -65.518      -18.949      -11.119        9.692       10.825        9.650       93.933      117.190       93.125        0.254        0.015       68.203        6.382        0.009      327.277       -7.348      870.388
12/11/2013  21:12:00      -60.858      -24.119       -4.359       14.662       10.434       10.089      214.985      108.863      101.779        0.236        0.021       65.464        5.051        0.006      327.279       -7.346      870.375
12/11/2013  21:13:00      -79.391      -20.572      -13.235       10.587       12.823        9.781      112.088      164.426       95.662        0.364        0.019       82.013        4.493        0.003      327.207       -7.463      870.360
12/11/2013  21:14:00      -97.668      -19.384      -10.507       18.920       17.702       13.066      357.975      313.356      170.730        0.543        0.042       99.573        9.238        0.009      327.183       -7.500      870.346
12/11/2013  21:15:00     -101.552       -9.696      -14.656       11.942       11.605        9.576      142.601      134.686       91.705        0.550        0.018      102.014        2.250        0.000      327.087       -7.656      870.344
12/11/2013  21:16:00      -93.794      -15.964      -14.406       10.969       12.798       11.225      120.313      163.798      126.012        0.483        0.021       95.143        4.598        0.002      327.122       -7.601      870.346
12/11/2013  21:17:00      -87.217      -24.960       -8.783       14.261       18.130       12.730      203.382      328.706      162.049        0.450        0.035       90.718        2.318        0.001      327.151       -7.555      870.338
12/11/2013  21:18:00      -68.560      -24.598       -9.585       11.850        8.506        8.583      140.432       72.345       73.663        0.284        0.014       72.839        4.512        0.004      327.271       -7.358      870.334
12/11/2013  21:19:00      -47.507      -21.146      -12.581       13.608        7.646        7.364      185.174       58.464       54.228        0.158        0.015       52.001        2.131        0.002      327.367       -7.204      870.325
12/11/2013  21:20:00      -59.994      -22.153       -5.355       10.290        9.374       10.880      105.877       87.866      118.382        0.222        0.016       63.954        6.464        0.010      327.287       -7.332      870.319
12/11/2013  21:21:00      -64.951      -12.325      -12.279       13.433        8.763        7.818      180.439       76.796       61.118        0.242        0.016       66.110        5.305        0.006      327.289       -7.329      870.327
12/11/2013  21:22:00      -81.108      -19.342      -11.679       11.984       12.001        7.946      143.628      144.033       63.145        0.372        0.018       83.382        4.788        0.003      327.225       -7.434      870.328
12/11/2013  21:23:00      -84.762      -24.110      -14.490        9.952       11.362        9.539       99.051      129.097       90.995        0.415        0.016       88.125        4.500        0.003      327.220       -7.441      870.326
12/11/2013  21:24:00      -92.713      -23.317      -18.335       11.990       12.175       11.582      143.770      148.229      134.150        0.495        0.021       95.600        4.756        0.002      327.159       -7.541      870.334
12/11/2013  21:25:00      -79.637      -18.507       -9.823       17.934       18.096       14.708      321.635      327.461      216.330        0.382        0.043       81.759        7.254        0.008      327.170       -7.522      870.326
12/11/2013  21:26:00      -94.683      -12.510      -15.110       16.361       18.239       10.807      267.692      332.664      116.799        0.503        0.036       95.506        3.433        0.001      327.058       -7.704      870.330
12/11/2013  21:27:00      -96.073      -22.542      -11.022       19.720       18.473       12.450      388.879      341.253      154.992        0.537        0.044       98.682        2.333        0.001      327.069       -7.687      870.314
12/11/2013  21:28:00      -99.874      -19.255      -13.903       18.702       21.148       11.537      349.776      447.234      133.098        0.573        0.047      101.713        6.364        0.004      327.010       -7.782      870.304
12/11/2013  21:29:00     -120.871      -12.030      -15.152       17.095       12.241       11.436      292.223      149.833      130.793        0.778        0.029      121.469        4.658        0.001      326.947       -7.883      870.309
12/11/2013  21:30:00     -114.808      -14.144      -16.059       19.758       14.297       14.052      390.389      204.399      197.455        0.722        0.040      115.676        5.528        0.002      326.997       -7.803      870.316
12/11/2013  21:31:00     -119.294      -17.508      -11.933       22.072       19.599       16.573      487.180      384.126      274.658        0.791        0.057      120.572        6.843        0.003      326.940       -7.895      870.315
12/11/2013  21:32:00     -102.902      -10.121      -11.273       23.786       15.832       16.102      565.794      250.647      259.279        0.595        0.054      103.398       12.821        0.015      326.975       -7.839      870.315
12/11/2013  21:33:00     -109.233      -16.742       -9.832       14.786       12.225       11.507      218.634      149.459      132.408        0.640        0.025      110.509        7.058        0.004      326.999       -7.801      870.312
12/11/2013  21:34:00      -96.811      -20.681       -6.622       20.223       16.539       15.196      408.974      273.553      230.905        0.538        0.046       98.995       10.661        0.012      326.965       -7.854      870.308
12/11/2013  21:35:00      -80.032      -29.772      -12.274       17.295       14.942       11.233      299.131      223.268      126.171        0.405        0.032       85.390        8.982        0.011      327.073       -7.679      870.300
12/11/2013  21:36:00      -97.388      -10.161      -16.628       13.487       15.015        9.799      181.907      225.444       96.018        0.518        0.025       97.916        6.484        0.004      327.017       -7.771      870.296
12/11/2013  21:37:00      -98.162       -4.904      -11.729       16.245       13.030       13.519      263.887      169.787      182.757        0.521        0.031       98.284        8.305        0.007      327.009       -7.784      870.290
12/11/2013  21:38:00      -89.380        6.935      -18.880       11.559       12.320       11.988      133.619      151.781      143.715        0.441        0.021       89.649        5.181        0.003      326.987       -7.819      870.293
12/11/2013  21:39:00      -89.865      -16.754      -15.945       15.860       14.847       13.560      251.533      220.420      183.880        0.463        0.033       91.414        8.291        0.008      327.022       -7.762      870.302
12/11/2013  21:40:00      -87.693      -19.648       -8.721       11.588       16.455       14.683      134.288      270.775      215.580        0.439        0.031       89.867        5.344        0.004      327.047       -7.723      870.311
12/11/2013  21:41:00      -89.317       -5.124      -13.295       16.808       20.147       13.031      282.506      405.901      169.816        0.452        0.043       89.464        8.180        0.008      327.003       -7.794      870.319
12/11/2013  21:42:00      -78.539       -8.825      -14.455       13.897       13.461       16.382      193.123      181.187      268.365        0.355        0.032       79.034        4.552        0.003      326.999       -7.801      870.323
12/11/2013  21:43:00      -77.106       -9.446      -12.263       12.451       11.655       11.231      155.019      135.846      126.138        0.330        0.021       77.683        2.657        0.001      326.955       -7.870      870.327
12/11/2013  21:44:00      -69.631      -14.763      -13.489       11.102       19.450       12.700      123.255      378.314      161.297        0.296        0.033       71.179        5.989        0.007      326.979       -7.832      870.328
12/11/2013  21:45:00      -81.709       -4.511      -11.450       12.508       11.890       12.358      156.459      141.380      152.726        0.364        0.023       81.833        6.733        0.007      326.957       -7.868      870.321
12/11/2013  21:46:00      -91.044      -29.380      -12.500       17.854       18.994       13.708      318.755      360.759      187.921        0.509        0.043       95.667        8.801        0.008      326.997       -7.802      870.320
12/11/2013  21:47:00      -92.944      -18.483       -6.225       23.343       29.258       19.074      544.881      856.018      363.834        0.539        0.088       94.764        8.552        0.008      326.971       -7.846      870.324
12/11/2013  21:48:00      -99.119      -23.374      -10.463       20.841       31.996       14.257      434.332     1023.735      203.263        0.607        0.083      101.838        8.585        0.007      326.915       -7.936      870.327
12/11/2013  21:49:00      -92.256      -36.304      -16.502       26.528       18.237       16.623      703.738      332.574      276.334        0.571        0.066       99.142        6.760        0.005      326.930       -7.912      870.324
12/11/2013  21:50:00      -92.711      -46.141      -19.183       28.882       17.900       17.260      834.187      320.399      297.911        0.627        0.073      103.558        6.824        0.004      326.991       -7.813      870.319
12/11/2013  21:51:00     -121.869        1.996      -16.209       15.398       23.861       17.492      237.103      569.364      305.980        0.812        0.056      121.886       10.830        0.008      326.840       -8.059      870.319
12/11/2013  21:52:00     -111.318      -33.695      -10.032       19.787       21.252       15.987      391.526      451.627      255.587        0.736        0.055      116.306        8.366        0.005      326.859       -8.027      870.337
12/11/2013  21:53:00     -119.901      -20.844      -15.990       19.230       24.209       16.193      369.795      586.052      262.213        0.814        0.061      121.699       10.715        0.008      326.873       -8.005      870.343
12/11/2013  21:54:00     -113.418      -21.119      -13.179       23.625       19.127       18.570      558.140      365.828      344.840        0.738        0.063      115.368       13.717        0.014      326.879       -7.994      870.346
12/11/2013  21:55:00     -107.749      -22.229       -8.492       29.160       27.200       19.407      850.301      739.839      376.637        0.707        0.098      110.018       16.725        0.023      326.889       -7.979      870.349
12/11/2013  21:56:00     -100.613       -2.664      -13.125       25.787       22.552       20.965      664.953      508.611      439.533        0.596        0.081      100.648       11.585        0.013      326.795       -8.130      870.351
12/11/2013  21:57:00     -115.925       -8.617      -15.873       30.110       22.448       21.347      906.601      503.914      455.715        0.782        0.093      116.245       20.871        0.032      326.757       -8.193      870.360
12/11/2013  21:58:00     -147.501       -0.299      -15.216       24.797       18.037       21.125      614.870      325.348      446.284        1.169        0.069      147.501        9.721        0.004      326.769       -8.173      870.355
12/11/2013  21:59:00     -157.004      -12.154      -15.212       19.143       14.090       13.031      366.458      198.520      169.814        1.288        0.037      157.474        6.719        0.002      326.740       -8.220      870.356
12/11/2013  22:00:00     -121.342      -19.248      -14.498       22.507       18.234       14.236      506.566      332.464      202.675        0.817        0.052      122.859        6.554        0.003      326.748       -8.207      870.358
12/11/2013  22:01:00     -112.715       -1.722      -15.905       17.411       23.835       23.225      303.135      568.105      539.399        0.719        0.071      112.728       16.039        0.020      326.732       -8.234      870.360
12/11/2013  22:02:00     -108.945      -12.595      -15.209       17.447       18.181       14.374      304.414      330.539      206.619        0.655        0.042      109.671        5.889        0.003      326.741       -8.221      870.352
12/11/2013  22:03:00     -131.548      -17.994      -16.906       27.416       18.852       16.912      751.662      355.392      286.015        0.965        0.070      132.773        5.031        0.001      326.743       -8.214      870.345
12/11/2013  22:04:00     -119.231       -6.112       -8.503       22.796       16.115       14.626      519.643      259.695      213.920        0.766        0.050      119.387        6.359        0.003      326.732       -8.233      870.344
12/11/2013  22:05:00     -126.711       -7.363      -14.687       17.974       20.901       14.519      323.060      436.861      210.795        0.865        0.049      126.925        7.194        0.003      326.724       -8.246      870.338
12/11/2013  22:06:00      -99.127      -11.313      -10.821       24.908       19.282       19.714      620.421      371.780      388.639        0.573        0.069       99.771       14.054        0.020      326.766       -8.179      870.336
12/11/2013  22:07:00     -109.464      -16.869      -16.917       19.063       19.120       15.908      363.381      365.566      253.067        0.677        0.049      110.756        7.361        0.004      326.736       -8.226      870.327
12/11/2013  22:08:00     -104.449       -3.716      -12.610       17.925       27.963       21.996      321.314      781.953      483.843        0.633        0.079      104.515       14.761        0.020      326.688       -8.303      870.318
12/11/2013  22:09:00     -112.230      -14.405      -16.616       20.442       20.808       16.096      417.887      432.983      259.093        0.709        0.055      113.151        9.329        0.007      326.710       -8.270      870.303
12/11/2013  22:10:00     -104.850      -14.174      -22.287       20.255       19.325       14.360      410.249      373.467      206.203        0.634        0.049      105.804        9.137        0.007      326.713       -8.264      870.290
12/11/2013  22:11:00     -137.830       -7.109      -12.662       21.364       21.548       18.285      456.414      464.327      334.323        1.023        0.063      138.013       11.123        0.006      326.654       -8.360      870.280
12/11/2013  22:12:00     -118.634      -17.802      -18.175       22.537       14.773       13.191      507.932      218.239      173.998        0.781        0.045      119.962        5.919        0.002      326.668       -8.338      870.268
12/11/2013  22:13:00     -117.070      -11.078      -12.231       16.164       13.592       12.098      261.262      184.731      146.358        0.728        0.030      117.593        4.495        0.001      326.696       -8.292      870.255
12/11/2013  22:14:00      -98.367      -16.485       -8.053       20.169       19.619       12.890      406.777      384.903      166.147        0.549        0.048       99.739        8.914        0.008      326.737       -8.226      870.245
12/11/2013  22:15:00     -101.834       -9.570      -10.669       17.729       17.959       16.935      314.329      322.537      286.785        0.575        0.046      102.282       13.602        0.018      326.728       -8.240      870.234
12/11/2013  22:16:00     -103.529       -7.315      -13.548       18.532       17.288       12.551      343.450      298.884      157.525        0.588        0.040      103.787        6.134        0.003      326.700       -8.286      870.221
12/11/2013  22:17:00     -114.255      -10.173      -10.063       34.285       26.877       17.976     1175.482      722.381      323.124        0.774        0.111      114.707       13.598        0.014      326.673       -8.327      870.215
12/11/2013  22:18:00      -91.792      -19.224      -16.682       14.189       14.421       10.502      201.340      207.967      110.296        0.480        0.026       93.783        5.997        0.004      326.725       -8.246      870.196
12/11/2013  22:19:00     -125.791      -12.206      -12.008       17.732       17.681       15.098      314.440      312.621      227.941        0.849        0.043      126.382        1.346        0.000      326.672       -8.330      870.189
12/11/2013  22:20:00     -121.882      -21.286      -13.997       15.034       17.705       12.950      226.030      313.472      167.711        0.811        0.035      123.727        4.901        0.002      326.641       -8.381      870.178
12/11/2013  22:21:00     -129.127       -7.743      -16.007       26.335       19.392       17.052      693.546      376.052      290.776        0.917        0.068      129.359       12.119        0.009      326.620       -8.414      870.171
12/11/2013  22:22:00     -105.300       -1.762      -12.507       19.225       15.412       17.779      369.596      237.528      316.077        0.609        0.046      105.315        9.466        0.008      326.633       -8.393      870.162
12/11/2013  22:23:00     -106.833       -9.175       -6.996       22.015       18.432       13.054      484.670      339.723      170.403        0.627        0.050      107.226        8.557        0.006      326.632       -8.396      870.156
12/11/2013  22:24:00     -124.559       -8.678      -11.252       22.994       25.058       21.602      528.725      627.908      466.630        0.867        0.081      124.861       11.488        0.008      326.633       -8.393      870.158
12/11/2013  22:25:00     -107.592       -3.279      -15.262       21.322       19.350       19.168      454.614      374.437      367.419        0.651        0.060      107.642        9.755        0.008      326.615       -8.423      870.142
12/11/2013  22:26:00     -142.287      -16.335      -16.169       20.744       15.820       16.336      430.322      250.262      266.862        1.086        0.047      143.222       10.329        0.005      326.532       -8.558      870.129
12/11/2013  22:27:00     -144.466      -17.672      -16.382       16.726       20.529       10.837      279.767      421.420      117.440        1.113        0.041      145.543        4.007        0.001      326.547       -8.532      870.118
12/11/2013  22:28:00     -133.079      -10.069      -15.033       24.386       17.567       15.075      594.686      308.603      227.241        0.958        0.057      133.460        5.029        0.001      326.555       -8.519      870.112
12/11/2013  22:29:00     -121.045       -4.225      -18.255       19.874       16.712       15.296      394.979      279.287      233.979        0.796        0.045      121.119        7.063        0.003      326.557       -8.517      870.110
12/11/2013  22:30:00     -120.448       -6.523      -13.142       21.013       16.505       17.634      441.541      272.408      310.952        0.787        0.051      120.625       10.409        0.007      326.580       -8.479      870.100
12/11/2013  22:31:00     -121.225      -18.202      -14.357       20.659       14.874       12.742      426.785      221.221      162.353        0.802        0.041      122.584        5.738        0.002      326.587       -8.469      870.090
12/11/2013  22:32:00     -107.925      -12.706      -17.477       18.922       19.014       12.193      358.047      361.531      148.662        0.649        0.043      108.671        4.721        0.002      326.604       -8.439      870.071
12/11/2013  22:33:00     -100.347      -23.284       -9.099       22.705       15.829       14.103      515.535      250.561      198.908        0.583        0.048      103.013       13.550        0.017      326.604       -8.440      870.063
12/11/2013  22:34:00      -86.595      -11.414       -9.070       18.083       15.713       14.781      326.991      246.904      218.475        0.425        0.040       87.344        9.810        0.013      326.625       -8.407      870.059
12/11/2013  22:35:00      -85.601       -5.894      -10.586       17.172       13.521       11.535      294.881      182.818      133.065        0.404        0.031       85.803        4.925        0.003      326.629       -8.401      870.057
12/11/2013  22:36:00      -83.828        4.612      -11.502       13.631        9.764       12.070      185.815       95.337      145.686        0.380        0.021       83.955        5.316        0.004      326.619       -8.416      870.059
12/11/2013  22:37:00      -79.180        1.050      -14.721       10.851       12.235       11.840      117.734      149.691      140.197        0.345        0.020       79.187        4.350        0.003      326.643       -8.377      870.071
12/11/2013  22:38:00      -73.120        1.040       -0.846       15.792       12.625       10.345      249.373      159.394      107.009        0.293        0.026       73.128        2.693        0.001      326.600       -8.448      870.078
12/11/2013  22:39:00      -81.774       -0.178       -8.307       10.532       11.464       11.960      110.925      131.428      143.050        0.357        0.019       81.774        2.041        0.001      326.624       -8.407      870.084
12/11/2013  22:40:00      -78.269        5.101       -7.531       17.115       14.104       15.424      292.934      198.934      237.906        0.347        0.036       78.435        7.621        0.009      326.625       -8.407      870.089
12/11/2013  22:41:00      -82.092       -4.699      -11.346       12.228       22.079       13.453      149.526      487.491      180.990        0.385        0.041       82.226        2.697        0.001      326.567       -8.501      870.092
12/11/2013  22:42:00     -104.466       -7.865      -10.717       24.006       23.457       16.915      576.297      550.251      286.103        0.625        0.071      104.762        8.071        0.006      326.509       -8.595      870.095
12/11/2013  22:43:00     -117.254       -9.496      -10.236       28.642       22.401       14.296      820.336      501.812      204.379        0.773        0.076      117.638       10.597        0.008      326.475       -8.648      870.100
12/11/2013  22:44:00      -88.648       -2.688       -8.190       34.414       22.828       21.366     1184.334      521.100      456.510        0.505        0.108       88.689       18.196        0.042      326.483       -8.637      870.107
12/11/2013  22:45:00      -64.477       -4.266       -4.685       38.070       24.719       18.613     1449.315      611.035      346.437        0.330        0.120       64.618       20.569        0.101      326.478       -8.644      870.105
12/11/2013  22:46:00      -71.805      -22.521       -6.168       21.709       22.678       19.469      471.282      514.297      379.042        0.353        0.068       75.254       14.089        0.035      326.490       -8.626      870.100
12/11/2013  22:47:00      -54.775       -5.848       -6.001       23.603       15.921       12.734      557.097      253.478      162.157        0.202        0.049       55.087       12.042        0.048      326.527       -8.567      870.098
12/11/2013  22:48:00      -54.065      -11.661       -8.700       17.402       14.990       12.012      302.814      224.714      144.279        0.190        0.034       55.308        8.651        0.024      326.547       -8.533      870.102
12/11/2013  22:49:00      -31.868       -5.231       -9.074        9.581        8.987        5.788       91.798       80.758       33.495        0.067        0.010       32.294        2.152        0.004      326.698       -8.287      870.097
12/11/2013  22:50:00      -28.430        7.442       -7.961        5.111        9.144        4.258       26.127       83.608       18.131        0.053        0.006       29.388        3.736        0.016      326.929       -7.914      870.100
12/11/2013  22:51:00      -21.357        4.751        1.488        9.697        7.211        7.701       94.030       52.002       59.302        0.034        0.010       21.879        4.072        0.035      327.089       -7.654      870.105
12/11/2013  22:52:00      -10.374        9.463        1.396       10.282        6.010        5.826      105.710       36.125       33.937        0.019        0.009       14.041        6.719        0.229      327.141       -7.569      870.099
12/11/2013  22:53:00      -28.572      -18.059       -7.530       13.366       10.345        8.391      178.641      107.016       70.409        0.078        0.018       33.801        5.700        0.028      326.931       -7.910      870.096
12/11/2013  22:54:00      -28.173      -13.059       -3.978       17.744       10.100        8.249      314.843      102.015       68.053        0.073        0.024       31.052        9.211        0.088      326.743       -8.215      870.094
12/11/2013  22:55:00      -33.546      -13.559       -3.235       15.730       10.186        7.059      247.432      103.753       49.829        0.086        0.020       36.183        5.237        0.021      326.688       -8.304      870.092
12/11/2013  22:56:00      -34.324      -21.137       -2.110       17.067        9.011        6.666      291.277       81.197       44.441        0.102        0.021       40.310        3.477        0.007      326.840       -8.059      870.089
12/11/2013  22:57:00      -23.896      -24.274       -1.269       11.058       11.643        8.253      122.272      135.562       68.112        0.074        0.016       34.063        4.379        0.017      326.924       -7.920      870.071
12/11/2013  22:58:00      -23.978      -18.102        6.244        8.504       10.699        8.275       72.312      114.471       68.475        0.060        0.013       30.044        3.865        0.017      326.938       -7.900      870.066
12/11/2013  22:59:00       -2.630        3.574        5.699       13.808       11.168       10.618      190.668      124.717      112.735        0.024        0.021        4.438        7.482        2.843      327.108       -7.623      870.066
12/11/2013  23:00:00      -17.702        7.616       -6.818       15.252       14.872        6.794      232.637      221.172       46.154        0.046        0.025       19.270        5.846        0.092      327.042       -7.729      870.059
12/11/2013  23:01:00      -34.976      -24.203       -8.036       17.521       11.593        9.020      306.978      134.394       81.359        0.120        0.026       42.534        7.942        0.035      326.869       -8.011      870.055
12/11/2013  23:02:00      -48.165      -23.302      -11.023       13.470        9.111        7.890      181.449       83.013       62.245        0.166        0.016       53.505        4.995        0.009      326.706       -8.275      870.051
12/11/2013  23:03:00      -38.665      -10.976        2.874       13.867        9.694       13.462      192.303       93.966      181.239        0.105        0.023       40.193       10.010        0.062      326.806       -8.114      870.044
12/11/2013  23:04:00      -43.889       -5.441       -5.955       12.148        7.785       10.237      147.572       60.608      104.805        0.115        0.016       44.225        5.019        0.013      326.771       -8.169      870.035
12/11/2013  23:05:00      -49.799      -14.696       -8.008       17.197       10.374       11.206      295.724      107.619      125.564        0.164        0.026       51.922        4.780        0.008      326.744       -8.212      870.033
12/11/2013  23:06:00      -67.361       -6.438      -10.553       10.852       10.897        9.059      117.763      118.748       82.066        0.250        0.016       67.668        5.784        0.007      326.583       -8.475      870.030
12/11/2013  23:07:00      -66.357       -8.706      -10.786        9.402        9.151        6.665       88.401       83.746       44.417        0.241        0.011       66.926        3.880        0.003      326.616       -8.422      870.025
12/11/2013  23:08:00      -49.525       -4.512       -9.490        8.632       10.878        6.279       74.514      118.337       39.428        0.140        0.012       49.730        2.881        0.003      326.650       -8.367      870.025
12/11/2013  23:09:00      -39.835      -22.680      -11.203        9.946        9.170        6.583       98.928       84.097       43.338        0.123        0.011       45.839        5.528        0.015      326.712       -8.265      870.022
12/11/2013  23:10:00      -55.044      -14.842      -14.082        8.520        8.733        8.711       72.596       76.271       75.875        0.184        0.011       57.009        4.409        0.006      326.668       -8.338      870.025
12/11/2013  23:11:00      -61.453      -23.192      -12.600        9.043       10.292        8.219       81.781      105.918       67.555        0.236        0.013       65.684        4.439        0.005      326.616       -8.422      870.017
12/11/2013  23:12:00      -72.300      -16.631      -10.130       13.269       14.207        8.817      176.056      201.833       77.737        0.303        0.023       74.188        3.313        0.002      326.553       -8.524      870.007
12/11/2013  23:13:00      -87.623      -17.112      -13.306       18.711       15.176       11.997      350.096      230.307      143.927        0.444        0.036       89.279        8.362        0.009      326.461       -8.672      870.008
12/11/2013  23:14:00      -98.388      -13.394      -10.817       33.245       15.424       15.112     1105.257      237.889      228.366        0.577        0.079       99.296       15.308        0.024      326.397       -8.776      870.001
12/11/2013  23:15:00     -127.238       -7.207      -19.224       15.234       15.914       12.255      232.072      253.264      150.184        0.862        0.032      127.442        7.027        0.003      326.427       -8.727      869.992
12/11/2013  23:16:00     -146.376       -1.744      -13.888       23.272       15.969       16.824      541.592      254.994      283.036        1.135        0.054      146.386        9.740        0.004      326.376       -8.809      869.984
12/11/2013  23:17:00     -101.722        6.756       -5.501       42.258       25.335       26.974     1785.746      641.879      727.572        0.679        0.158      101.946       26.140        0.066      326.391       -8.786      869.966
12/11/2013  23:18:00      -96.890      -17.130       -5.269       56.706       29.617       21.434     3215.617      877.154      459.415        0.713        0.228       98.392       24.973        0.064      326.376       -8.810      869.957
12/11/2013  23:19:00     -123.307       -0.692      -10.563       39.291       28.118       16.814     1543.786      790.634      282.713        0.897        0.131      123.308       14.215        0.013      326.325       -8.892      869.961
12/11/2013  23:20:00      -38.510      -21.465        2.756       29.801       32.320       18.592      888.115     1044.594      345.672        0.211        0.114       44.089       11.574        0.069      326.380       -8.804      869.961
12/11/2013  23:21:00      -50.884      -16.349        1.851       37.673       26.992       27.234     1419.261      728.551      741.709        0.287        0.144       53.446       15.518        0.084      326.332       -8.882      869.963
12/11/2013  23:22:00     -123.607      -31.538       -3.471       43.346       39.673       23.119     1878.875     1573.949      534.471        1.014        0.199      127.567       22.487        0.031      326.312       -8.913      869.963
12/11/2013  23:23:00     -132.493       -6.899       -6.691       39.590       32.266       21.251     1567.337     1041.081      451.626        1.035        0.153      132.672       12.861        0.009      326.333       -8.880      869.964
12/11/2013  23:24:00     -124.238      -16.897       -8.639       46.768       20.790       24.064     2187.239      432.223      579.072        0.950        0.160      125.382       25.804        0.042      326.341       -8.868      869.966
12/11/2013  23:25:00     -120.757      -12.089      -11.494       25.706       22.802       19.459      660.812      519.921      378.644        0.821        0.078      121.360       15.883        0.017      326.351       -8.850      869.963
12/11/2013  23:26:00      -97.586       -7.960        1.319       45.221       25.710       24.204     2044.939      660.986      585.857        0.644        0.165       97.911       25.769        0.069      326.391       -8.787      869.969
12/11/2013  23:27:00     -117.074      -29.322       -8.891       34.806       25.678       16.378     1211.436      659.361      268.237        0.839        0.107      120.691       13.538        0.013      326.356       -8.842      869.968
12/11/2013  23:28:00     -125.452      -14.581      -10.325       42.210       29.010       24.663     1781.722      841.565      608.245        0.964        0.162      126.296       24.291        0.037      326.390       -8.787      869.966
12/11/2013  23:29:00     -123.437       -3.433       -9.912       26.626       29.568       21.179      708.933      874.244      448.538        0.869        0.102      123.485       14.183        0.013      326.408       -8.758      869.961
12/11/2013  23:30:00     -104.276      -26.198       -7.473       26.371       29.467       19.844      695.450      868.289      393.782        0.679        0.098      107.517       16.222        0.023      326.449       -8.692      869.956
12/11/2013  23:31:00      -41.806      -27.283       -3.064       37.095       31.157       17.719     1376.035      970.732      313.958        0.258        0.133       49.921       16.135        0.104      326.569       -8.497      869.950
12/11/2013  23:32:00      -62.691      -10.647      -10.061       31.527       22.014       18.026      993.980      484.632      324.937        0.297        0.090       63.588       15.150        0.057      326.542       -8.542      869.953
12/11/2013  23:33:00      -84.501      -21.391       -8.640       20.741       21.570       16.273      430.170      465.265      264.808        0.442        0.058       87.167        6.399        0.005      326.578       -8.482      869.955
12/11/2013  23:34:00      -78.848      -16.927       -7.994       29.657       20.610       14.719      879.545      424.772      216.643        0.404        0.076       80.644        6.044        0.006      326.633       -8.392      869.946
12/11/2013  23:35:00      -38.892       -4.662       -4.563       32.337       15.159       15.597     1045.680      229.797      243.277        0.154        0.076       39.170       16.147        0.170      326.642       -8.379      869.939
12/11/2013  23:36:00      -86.832      -24.911       -7.353       18.013       16.014       16.819      324.482      256.445      282.871        0.454        0.043       90.334       11.340        0.016      326.605       -8.438      869.930
12/11/2013  23:37:00      -90.872      -11.058      -11.389       18.263       20.130       15.587      333.533      405.218      242.959        0.475        0.049       91.542       10.087        0.012      326.531       -8.559      869.918
12/11/2013  23:38:00      -97.739       -7.831       -8.623       16.074       21.776       14.474      258.369      474.194      209.507        0.532        0.047       98.053        4.809        0.002      326.475       -8.650      869.925
12/11/2013  23:39:00      -80.693      -11.042      -15.680       22.496       18.591       13.283      506.087      345.610      176.435        0.395        0.051       81.445       10.082        0.015      326.468       -8.659      869.925
12/11/2013  23:40:00      -91.040      -19.595      -11.933       22.024       19.812       14.460      485.053      392.523      209.085        0.495        0.054       93.125        9.944        0.011      326.533       -8.556      869.925
12/11/2013  23:41:00      -92.000        0.538      -15.339       14.919       21.967       14.567      222.576      482.543      212.199        0.481        0.046       92.002        9.940        0.012      326.456       -8.681      869.937
12/11/2013  23:42:00      -75.722       -8.939      -13.534       16.987       14.740       11.340      288.546      217.254      128.593        0.332        0.032       76.247        6.492        0.007      326.455       -8.682      869.948
12/11/2013  23:43:00      -73.940      -20.945      -15.777       18.940       19.812       10.888      358.731      392.505      118.541        0.351        0.043       76.849        7.953        0.011      326.500       -8.610      869.955
12/11/2013  23:44:00      -80.977      -11.275      -16.234       14.614       15.790       13.970      213.560      249.332      195.148        0.380        0.033       81.758        3.938        0.002      326.542       -8.542      869.963
12/11/2013  23:45:00      -85.740      -27.254       -5.217       24.470       27.945       15.196      598.799      780.931      230.927        0.487        0.081       89.968       11.509        0.016      326.552       -8.525      869.970
12/11/2013  23:46:00      -97.589      -10.465      -10.796       25.442       22.362       21.969      647.271      500.070      482.658        0.569        0.081       98.149       17.322        0.031      326.502       -8.606      869.977
12/11/2013  23:47:00     -100.391        0.730       -6.687       35.341       22.247       21.345     1249.004      494.929      455.621        0.616        0.110      100.394       20.057        0.040      326.518       -8.580      869.970
12/11/2013  23:48:00     -144.254      -14.485      -19.287       15.614       16.130       11.212      243.796      260.193      125.708        1.101        0.031      144.979        4.552        0.001      326.505       -8.601      869.959
12/11/2013  23:49:00     -104.981      -18.752      -14.742       22.346       22.644       15.317      499.339      512.741      234.608        0.642        0.062      106.642       10.565        0.010      326.509       -8.594      869.953
12/11/2013  23:50:00      -95.653      -15.382       -7.279       18.871       19.207       14.123      356.101      368.922      199.469        0.518        0.046       96.882        9.006        0.009      326.561       -8.512      869.956
12/11/2013  23:51:00      -98.902      -18.924      -11.143       26.007       17.539       14.169      676.344      307.600      200.755        0.572        0.059      100.696       11.386        0.013      326.577       -8.484      869.951
12/11/2013  23:52:00     -118.133      -37.685      -18.170       23.222       30.716       14.144      539.265      943.501      200.039        0.869        0.084      123.999       12.297        0.010      326.514       -8.585      869.952
12/11/2013  23:53:00     -117.362      -18.709      -12.514       31.296       32.490       20.185      979.428     1055.612      407.450        0.836        0.122      118.844       14.001        0.014      326.502       -8.607      869.961
12/11/2013  23:54:00     -126.899       -4.149      -16.955       21.279       22.703       18.502      452.799      515.440      342.310        0.886        0.066      126.967        8.097        0.004      326.441       -8.704      869.980
12/11/2013  23:55:00     -103.080       -1.179      -17.509       15.475       15.421       12.214      239.484      237.795      149.181        0.578        0.031      103.087        9.904        0.009      326.438       -8.710      869.987
12/11/2013  23:56:00     -115.025       -1.719      -15.584       24.815       19.289       18.960      615.793      372.055      359.488        0.741        0.067      115.038       13.989        0.015      326.419       -8.741      869.989
12/11/2013  23:57:00     -115.297        4.559      -14.908       25.968       17.561       23.022      674.341      308.395      530.001        0.752        0.076      115.387       12.049        0.011      326.435       -8.715      869.989
12/11/2013  23:58:00     -107.559       -6.292      -12.348       27.706       22.973       19.865      767.621      527.778      394.608        0.673        0.085      107.743        8.662        0.006      326.430       -8.722      869.986
12/11/2013  23:59:00      -94.750       -9.553       -6.390       32.941       22.860       18.793     1085.083      522.574      353.184        0.553        0.098       95.230       16.255        0.029      326.435       -8.714      869.983
